[[{"header":{"parameterUnit":"m.s-1","parameterCategory":1,"la1":31.0,"la2":29.5877,"lo1":-88.7671,"lo2":-86.6584,"dy":0.0162,"dx":0.0185,"nx":115,"ny":88,"refTime":"2023-05-09T06:00:00:Z","depth":0,"parameterNumber":2,"parameterNumberName":"U-component_of_WINDS"},"data":[0.0,0.0,0.0,0.0,0.0,0.0,0.0,0.0,0.0,0.0,0.0,0.0,0.0,0.0,0.0,0.0,0.0,0.0,0.0,0.0,0.0,0.0,0.0,0.0,0.0,0.0,0.0,0.0,0.0,0.0,0.0,0.0,0.0,0.0,0.0,0.0,0.0,0.0,0.0,0.0,0.0,0.0,0.0,0.0,0.0,0.0,0.0,0.0,0.0,0.0,0.0,0.0,0.0,0.0,0.0,0.0,0.0,0.0,0.0,0.0,0.0,0.0,0.0,0.0,0.0,0.0,0.0,0.0,0.0,0.0,0.0,0.0,0.0,0.0,0.0,0.0,0.0,0.0,0.0,0.0,0.0,0.0,0.0,0.0,0.0,0.0,0.0,0.0,0.0,0.0,0.0,0.0,0.0,0.0,0.0,0.0,0.0,0.0,0.0,0.0,0.0,0.0,0.0,0.0,0.0,0.0,0.0,0.0,0.0,0.0,0.0,0.0,0.0,0.0,0.0,0.0,0.0,0.0,0.0,0.0,0.0,0.0,0.0,0.0,0.0,0.0,0.0,0.0,0.0,0.0,0.0,0.0,0.0,0.0,0.0,0.0,0.0,0.0,0.0,0.0,0.0,0.0,0.0,0.0,0.0,0.0,0.0,0.0,0.0,0.0,0.0,0.0,0.0,0.0,0.0,0.0,0.0,0.0,0.0,0.0,0.0,0.0,0.0,0.0,0.0,0.0,0.0,0.0,0.0,0.0,0.0,0.0,0.0,0.0,0.0,0.0,0.0,0.0,0.0,0.0,0.0,0.0,0.0,0.0,0.0,0.0,0.0,0.0,0.0,0.0,0.0,0.0,0.0,0.0,0.0,0.0,0.0,0.0,0.0,0.0,0.0,0.0,0.0,0.0,0.0,0.0,0.0,0.0,0.0,0.0,0.0,0.0,0.0,0.0,0.0,0.0,0.0,0.0,0.0,0.0,0.0,0.0,0.0,0.0,0.0,0.0,0.0,0.0,0.0,0.0,0.0,0.0,0.0,0.0,0.0,0.0,0.0,0.0,0.0,0.0,0.0,0.0,0.0,0.0,0.0,0.0,0.0,0.0,0.0,0.0,0.0,0.0,0.0,0.0,0.0,0.0,0.0,0.0,0.0,0.0,0.0,0.0,0.0,0.0,0.0,0.0,0.0,0.0,0.0,0.0,0.0,0.0,0.0,0.0,0.0,0.0,0.0,0.0,0.0,0.0,0.0,0.0,0.0,0.0,0.0,0.0,0.0,0.0,0.0,0.0,0.0,0.0,0.0,0.0,0.0,0.0,0.0,0.0,0.0,0.0,0.0,0.0,0.0,0.0,0.0,0.0,0.0,0.0,0.0,0.0,0.0,0.0,0.0,0.0,0.0,0.0,0.0,0.0,0.0,0.0,0.0,0.0,0.0,0.0,0.0,0.0,0.0,0.0,0.0,0.0,0.0,0.0,0.0,0.0,0.0,0.0,0.0,0.0,0.0,0.0,0.0,0.0,0.0,0.0,0.0,0.0,0.0,0.0,0.0,0.0,0.0,0.0,0.0,0.0,0.0,0.0,0.0,0.0,0.0,0.0,0.0,0.0,0.0,0.0,0.0,0.0,0.0,0.0,0.0,0.0,0.0,0.0,0.0,0.0,0.0,0.0,0.0,0.0,0.0,0.0,0.0,0.0,0.0,0.0,0.0,0.0,0.0,0.0,0.0,0.0,0.0,0.0,0.0,0.0,0.0,0.0,0.0,0.0,0.0,0.0,0.0,0.0,0.0,0.0,0.0,0.0,0.0,0.0,0.0,0.0,0.0,0.0,0.0,0.0,0.0,0.0,0.0,0.0,0.0,0.0,0.0,0.0,0.0,0.0,0.0,0.0,0.0,0.0,0.0,0.0,0.0,0.0,0.0,0.0,0.0,0.0,0.0,0.0,0.0,0.0,0.0,0.0,0.0,0.0,0.0,0.0,0.0,0.0,0.0,0.0,0.0,0.0,0.0,0.0,0.0,0.0,0.0,0.0,0.0,0.0,0.0,0.0,0.0,0.0,0.0,0.0,0.0,0.0,0.0,0.0,0.0,0.0,0.0,0.0,0.0,0.0,0.0,0.0,0.0,0.0,0.0,0.0,0.0,0.0,0.0,0.0,0.0,0.0,0.0,0.0,0.0,0.0,0.0,0.0,0.0,0.0,0.0,0.0,0.0,0.0,0.0,0.0,0.0,0.0,0.0,0.0,0.0,0.0,0.0,0.0,0.0,0.0,0.0,0.0,0.0,0.0,0.0,0.0,0.0,0.0,0.0,0.0,0.0,0.0,0.0,0.0,0.0,0.0,0.0,0.0,0.0,0.0,0.0,0.0,0.0,0.0,0.0,0.0,0.0,0.0,0.0,0.0,0.0,0.0,0.0,0.0,0.0,0.0,0.0,0.0,0.0,0.0,0.0,0.0,0.0,0.0,0.0,0.0,0.0,0.0,0.0,0.0,0.0,0.0,0.0,0.0,0.0,0.0,0.0,0.0,0.0,0.0,0.0,0.0,0.0,0.0,0.0,0.0,0.0,0.0,0.0,0.0,0.0,0.0,0.0,0.0,0.0,0.0,0.0,0.0,0.0,0.0,0.0,0.0,0.0,0.0,0.0,0.0,0.0,0.0,0.0,0.0,0.0,0.0,0.0,0.0,0.0,0.0,0.0,0.0,0.0,0.0,0.0,0.0,0.0,0.0,0.0,0.0,0.0,0.0,0.0,0.0,0.0,0.0,0.0,0.0,0.0,0.0,0.0,0.0,0.0,0.0,0.0,0.0,0.0,0.0,0.0,0.0,0.0,0.0,0.0,0.0,0.0,0.0,0.0,0.0,0.0,0.0,0.0,0.0,0.0,0.0,0.0,0.0,0.0,0.0,0.0,0.0,0.0,0.0,0.0,0.0,0.0,0.0,0.0,0.0,0.0,0.0,0.0,0.0,0.0,0.0,0.0,0.0,0.0,0.0,0.0,0.0,0.0,0.0,0.0,0.0,0.0,0.0,0.0,0.0,0.0,0.0,0.0,0.0,0.0,0.0,0.0,0.0,0.0,0.0,0.0,0.0,0.0,0.0,0.0,0.0,0.0,0.0,0.0,0.0,0.0,0.0,0.0,0.0,0.0,0.0,0.0,0.0,0.0,0.0,0.0,0.0,0.0,0.0,0.0,0.0,0.0,0.0,0.0,0.0,0.0,0.0,0.0,0.0,0.0,0.0,0.0,0.0,0.0,0.0,0.0,0.0,0.0,0.0,0.0,0.0,0.0,0.0,0.0,0.0,0.0,0.0,0.0,0.0,0.0,0.0,0.0,0.0,0.0,0.0,0.0,0.0,0.0,0.0,0.0,0.0,0.0,0.0,0.0,0.0,0.0,0.0,0.0,0.0,0.0,0.0,0.0,0.0,0.0,0.0,0.0,0.0,0.0,0.0,0.0,0.0,0.0,0.0,0.0,0.0,0.0,0.0,0.0,0.0,0.0,0.0,0.0,0.0,0.0,0.0,0.0,0.0,0.0,0.0,0.0,0.0,0.0,0.0,0.0,0.0,0.0,0.0,0.0,0.0,0.0,0.0,0.0,0.0,0.0,0.0,0.0,0.0,0.0,0.0,0.0,0.0,0.0,0.0,0.0,0.0,0.0,0.0,0.0,0.0,0.0,0.0,0.0,0.0,0.0,0.0,0.0,0.0,0.0,0.0,0.0,0.0,0.0,0.0,0.0,0.0,0.0,0.0,0.0,0.0,0.0,0.0,0.0,0.0,0.0,0.0,0.0,0.0,0.0,0.0,0.0,0.0,0.0,0.0,0.0,0.0,0.0,0.0,0.0,0.0,0.0,0.0,0.0,0.0,0.0,0.0,0.0,0.0,0.0,0.0,0.0,0.0,0.0,0.0,0.0,0.0,0.0,0.0,0.0,0.0,0.0,0.0,0.0,0.0,0.0,0.0,0.0,0.0,0.0,0.0,0.0,0.0,0.0,0.0,0.0,0.0,0.0,0.0,0.0,0.0,0.0,0.0,0.0,0.0,0.0,0.0,0.0,0.0,0.0,0.0,0.0,0.0,0.0,0.0,0.0,0.0,0.0,0.0,0.0,0.0,0.0,0.0,0.0,0.0,0.0,0.0,0.0,0.0,0.0,0.0,0.0,0.0,0.0,0.0,0.0,0.0,0.0,0.0,0.0,0.0,0.0,0.0,0.0,0.0,0.0,0.0,0.0,0.0,0.0,0.0,0.0,0.0,0.0,0.0,0.0,0.0,-0.666,0.0,0.0,0.0,0.0,0.0,0.0,0.0,0.0,0.0,0.0,0.0,0.0,0.0,0.0,0.0,0.0,0.0,0.0,0.0,0.0,0.0,0.0,0.0,0.0,0.0,0.0,0.0,0.0,0.0,0.0,0.0,0.0,0.0,0.0,0.0,0.0,0.0,0.0,0.0,0.0,0.0,0.0,0.0,0.0,0.0,0.0,0.0,0.0,0.0,0.0,0.0,0.0,0.0,0.0,0.0,0.0,0.0,0.0,0.0,0.0,0.0,0.0,0.0,0.0,0.0,0.0,0.0,0.0,0.0,0.0,0.0,0.0,0.0,0.0,0.0,0.0,0.0,0.0,0.0,0.0,0.0,0.0,0.0,0.0,0.0,0.0,0.0,0.0,0.0,0.0,0.0,0.0,0.0,0.0,0.0,0.0,0.0,0.0,0.0,0.0,0.0,0.0,0.0,0.0,0.0,0.0,0.0,0.0,0.0,0.0,-0.6983,-0.6993,-0.6847,-0.6727,-0.6593,0.0,0.0,0.0,0.0,0.0,0.0,0.0,0.0,0.0,0.0,0.0,0.0,0.0,0.0,0.0,0.0,0.0,0.0,0.0,0.0,0.0,0.0,0.0,0.0,0.0,0.0,0.0,0.0,0.0,0.0,0.0,0.0,0.0,0.0,0.0,0.0,0.0,0.0,0.0,0.0,0.0,0.0,0.0,0.0,0.0,0.0,0.0,0.0,0.0,0.0,0.0,0.0,0.0,0.0,0.0,0.0,0.0,0.0,0.0,0.0,0.0,0.0,0.0,0.0,0.0,0.0,0.0,0.0,0.0,0.0,0.0,0.0,0.0,0.0,0.0,0.0,0.0,0.0,0.0,0.0,0.0,0.0,0.0,0.0,0.0,0.0,0.0,0.0,0.0,0.0,0.0,0.0,0.0,0.0,0.0,0.0,0.0,0.0,0.0,0.0,0.0,0.0,0.0,0.0,0.0,0.0,0.0,0.0,0.0,0.0,0.0,0.0,-0.6693,-0.6526,-0.6396,0.0,0.0,0.0,0.0,0.0,0.0,0.0,0.0,0.0,0.0,0.0,0.0,0.0,0.0,0.0,0.0,0.0,0.0,0.0,0.0,0.0,0.0,0.0,0.0,0.0,0.0,0.0,0.0,0.0,0.0,0.0,0.0,0.0,0.0,0.0,0.0,0.0,0.0,0.0,0.0,0.0,0.0,0.0,0.0,0.0,0.0,0.0,0.0,0.0,0.0,0.0,0.0,0.0,0.0,0.0,0.0,0.0,0.0,0.0,0.0,0.0,0.0,0.0,0.0,0.0,0.0,0.0,0.0,0.0,0.0,0.0,0.0,0.0,0.0,0.0,0.0,0.0,0.0,0.0,0.0,0.0,0.0,0.0,0.0,0.0,0.0,0.0,0.0,0.0,0.0,0.0,0.0,0.0,0.0,0.0,0.0,0.0,0.0,0.0,0.0,0.0,0.0,0.0,0.0,0.0,0.0,0.0,0.0,0.0,0.0,-0.6509,-0.6283,-0.6486,0.0,-0.5816,0.0,0.0,0.0,0.0,0.0,0.0,0.0,0.0,0.0,0.0,0.0,0.0,0.0,0.0,0.0,0.0,0.0,0.0,0.0,0.0,0.0,0.0,0.0,0.0,0.0,0.0,0.0,0.0,0.0,0.0,0.0,0.0,0.0,0.0,0.0,0.0,0.0,0.0,0.0,0.0,0.0,0.0,0.0,0.0,0.0,0.0,0.0,0.0,0.0,0.0,0.0,0.0,0.0,0.0,0.0,0.0,0.0,0.0,0.0,0.0,0.0,0.0,0.0,0.0,0.0,0.0,0.0,0.0,0.0,0.0,0.0,0.0,0.0,0.0,0.0,0.0,0.0,0.0,0.0,0.0,0.0,0.0,0.0,0.0,0.0,0.0,0.0,0.0,0.0,0.0,0.0,0.0,0.0,0.0,0.0,0.0,0.0,0.0,0.0,0.0,0.0,0.0,0.0,0.0,0.0,0.0,0.0,0.0,0.0,0.0,-0.6623,-0.6683,-0.6472,-0.613,0.0,0.0,0.0,0.0,0.0,0.0,0.0,0.0,0.0,0.0,0.0,0.0,0.0,0.0,0.0,0.0,0.0,0.0,0.0,0.0,0.0,0.0,0.0,0.0,0.0,0.0,0.0,0.0,0.0,0.0,0.0,0.0,0.0,0.0,0.0,0.0,0.0,0.0,0.0,0.0,0.0,0.0,0.0,0.0,0.0,0.0,0.0,0.0,0.0,0.0,0.0,0.0,0.0,0.0,0.0,0.0,0.0,0.0,0.0,0.0,0.0,0.0,0.0,0.0,0.0,0.0,0.0,0.0,0.0,0.0,0.0,0.0,0.0,0.0,0.0,0.0,0.0,0.0,0.0,0.0,0.0,0.0,0.0,0.0,0.0,0.0,0.0,0.0,0.0,0.0,0.0,0.0,0.0,0.0,0.0,0.0,0.0,0.0,0.0,0.0,0.0,0.0,0.0,0.0,0.0,0.0,0.0,0.0,0.0,0.0,-0.6566,-0.6687,-0.6847,-0.6417,-0.5962,-0.5607,0.0,0.0,0.0,0.0,0.0,0.0,0.0,0.0,0.0,0.0,0.0,0.0,0.0,0.0,0.0,0.0,0.0,0.0,0.0,0.0,0.0,0.0,0.0,0.0,0.0,0.0,0.0,0.0,0.0,0.0,0.0,0.0,0.0,0.0,0.0,0.0,0.0,0.0,0.0,0.0,0.0,0.0,0.0,0.0,0.0,0.0,0.0,0.0,0.0,0.0,0.0,0.0,0.0,0.0,0.0,0.0,0.0,0.0,0.0,0.0,0.0,0.0,0.0,0.0,0.0,0.0,0.0,0.0,0.0,0.0,0.0,0.0,0.0,0.0,0.0,0.0,0.0,0.0,0.0,0.0,0.0,0.0,0.0,0.0,0.0,0.0,0.0,0.0,0.0,0.0,0.0,0.0,0.0,0.0,0.0,0.0,0.0,0.0,0.0,0.0,0.0,0.0,0.0,0.0,0.0,0.0,0.0,0.0,-0.6216,-0.6482,-0.66,-0.663,-0.6231,-0.5878,0.0,0.0,0.0,0.0,0.0,0.0,0.0,0.0,0.0,0.0,0.0,0.0,0.0,0.0,0.0,0.0,0.0,0.0,0.0,0.0,0.0,0.0,0.0,0.0,0.0,0.0,0.0,0.0,0.0,0.0,0.0,0.0,0.0,0.0,0.0,0.0,0.0,0.0,0.0,0.0,0.0,0.0,0.0,0.0,0.0,0.0,0.0,0.0,0.0,0.0,0.0,0.0,0.0,0.0,0.0,0.0,0.0,0.0,0.0,0.0,0.0,0.0,0.0,0.0,0.0,0.0,0.0,0.0,0.0,0.0,0.0,0.0,0.0,0.0,0.0,0.0,0.0,0.0,0.0,0.0,0.0,0.0,0.0,0.0,0.0,0.0,0.0,0.0,0.0,0.0,0.0,0.0,0.0,0.0,0.0,0.0,0.0,0.0,0.0,0.0,0.0,0.0,0.0,0.0,0.0,0.0,0.0,0.0,0.0,-0.6455,-0.6724,-0.6857,-0.685,-0.6465,-0.6182,0.0,0.0,0.0,0.0,0.0,0.0,0.0,0.0,0.0,0.0,0.0,0.0,0.0,0.0,0.0,0.0,0.0,0.0,0.0,0.0,0.0,0.0,0.0,0.0,0.0,0.0,0.0,0.0,0.0,0.0,0.0,0.0,0.0,0.0,0.0,0.0,0.0,0.0,0.0,0.0,0.0,0.0,0.0,0.0,0.0,0.0,0.0,0.0,0.0,0.0,0.0,0.0,0.0,0.0,0.0,0.0,0.0,0.0,0.0,0.0,0.0,0.0,0.0,0.0,0.0,0.0,0.0,0.0,0.0,0.0,0.0,0.0,0.0,0.0,0.0,0.0,0.0,0.0,0.0,0.0,0.0,0.0,0.0,0.0,0.0,0.0,0.0,0.0,0.0,0.0,0.0,0.0,0.0,0.0,0.0,0.0,0.0,0.0,0.0,0.0,0.0,0.0,0.0,0.0,0.0,0.0,0.0,0.0,0.0,-0.673,0.0,-0.6983,0.0,-0.6676,-0.6428,0.0,0.0,0.0,0.0,0.0,0.0,0.0,0.0,0.0,0.0,0.0,0.0,0.0,0.0,0.0,0.0,0.0,0.0,0.0,0.0,0.0,0.0,0.0,0.0,0.0,0.0,0.0,0.0,0.0,0.0,0.0,0.0,0.0,0.0,0.0,0.0,0.0,0.0,0.0,0.0,0.0,0.0,0.0,0.0,0.0,0.0,0.0,0.0,0.0,0.0,0.0,0.0,0.0,0.0,0.0,0.0,0.0,0.0,0.0,0.0,0.0,0.0,0.0,0.0,0.0,0.0,0.0,0.0,0.0,0.0,0.0,0.0,0.0,0.0,0.0,0.0,0.0,0.0,0.0,0.0,0.0,0.0,0.0,0.0,0.0,0.0,0.0,0.0,0.0,0.0,0.0,0.0,0.0,0.0,0.0,0.0,0.0,0.0,0.0,0.0,0.0,0.0,0.0,0.0,0.0,0.0,0.0,0.0,-0.6757,-0.7004,-0.7009,-0.704,-0.7009,-0.6832,-0.6581,0.0,0.0,0.0,0.0,0.0,0.0,0.0,0.0,0.0,0.0,0.0,0.0,0.0,0.0,0.0,0.0,0.0,0.0,0.0,0.0,0.0,0.0,0.0,0.0,0.0,0.0,0.0,0.0,0.0,0.0,0.0,0.0,0.0,0.0,0.0,0.0,0.0,0.0,0.0,0.0,0.0,0.0,0.0,0.0,0.0,0.0,0.0,0.0,0.0,0.0,0.0,0.0,0.0,0.0,0.0,0.0,0.0,0.0,0.0,0.0,0.0,0.0,0.0,0.0,0.0,0.0,0.0,0.0,0.0,0.0,0.0,0.0,0.0,0.0,0.0,0.0,0.0,0.0,0.0,0.0,0.0,0.0,0.0,0.0,0.0,0.0,0.0,0.0,0.0,0.0,0.0,0.0,0.0,0.0,0.0,0.0,0.0,0.0,0.0,0.0,0.0,0.0,0.0,0.0,0.0,0.0,0.0,0.0,0.0,-0.7357,-0.753,-0.7614,-0.7596,-0.7197,-0.6934,0.0,0.0,0.0,0.0,0.0,0.0,0.0,0.0,0.0,0.0,0.0,0.0,0.0,0.0,0.0,0.0,0.0,0.0,0.0,0.0,0.0,0.0,0.0,0.0,0.0,0.0,0.0,0.0,0.0,0.0,0.0,0.0,0.0,0.0,0.0,0.0,0.0,0.0,0.0,0.0,0.0,0.0,0.0,0.0,0.0,0.0,0.0,0.0,0.0,0.0,0.0,0.0,0.0,0.0,0.0,0.0,0.0,0.0,0.0,0.0,0.0,0.0,0.0,0.0,0.0,0.0,0.0,0.0,0.0,0.0,0.0,0.0,0.0,0.0,0.0,0.0,0.0,0.0,0.0,0.0,0.0,0.0,0.0,0.0,0.0,0.0,0.0,0.0,0.0,0.0,0.0,0.0,0.0,0.0,0.0,0.0,0.0,0.0,0.0,0.0,0.0,0.0,0.0,0.0,0.0,0.0,0.0,0.0,0.0,-0.7981,-0.8049,-0.8096,-0.8084,-0.7545,-0.7269,-0.7268,0.0,0.0,0.0,0.0,0.0,0.0,0.0,0.0,0.0,0.0,0.0,0.0,0.0,0.0,0.0,0.0,0.0,0.0,0.0,0.0,0.0,0.0,0.0,0.0,0.0,0.0,0.0,0.0,0.0,0.0,0.0,0.0,0.0,0.0,0.0,0.0,0.0,0.0,0.0,0.0,0.0,0.0,0.0,0.0,0.0,0.0,0.0,0.0,0.0,0.0,0.0,0.0,0.0,0.0,0.0,0.0,0.0,0.0,0.0,0.0,0.0,0.0,0.0,0.0,0.0,0.0,0.0,0.0,0.0,0.0,0.0,0.0,0.0,0.0,0.0,0.0,0.0,0.0,0.0,0.0,0.0,0.0,0.0,0.0,0.0,0.0,0.0,0.0,0.0,0.0,0.0,0.0,0.0,0.0,0.0,0.0,0.0,0.0,0.0,0.0,0.0,0.0,0.0,0.0,0.0,0.0,0.0,0.0,-0.8838,-0.8617,-0.8508,-0.847,-0.7886,-0.7586,0.0,0.0,0.0,0.0,0.0,0.0,0.0,0.0,0.0,0.0,0.0,0.0,0.0,0.0,0.0,0.0,0.0,0.0,0.0,0.0,0.0,0.0,0.0,0.0,0.0,0.0,0.0,0.0,0.0,0.0,0.0,0.0,0.0,0.0,0.0,0.0,0.0,0.0,0.0,0.0,0.0,0.0,0.0,0.0,0.0,0.0,0.0,0.0,0.0,0.0,0.0,0.0,0.0,0.0,0.0,0.0,0.0,0.0,0.0,0.0,0.0,0.0,0.0,0.0,0.0,0.0,0.0,0.0,0.0,0.0,0.0,0.0,0.0,0.0,0.0,0.0,0.0,0.0,0.0,0.0,0.0,0.0,0.0,0.0,0.0,0.0,0.0,0.0,0.0,0.0,0.0,0.0,0.0,0.0,0.0,0.0,0.0,0.0,0.0,0.0,0.0,0.0,0.0,0.0,0.0,0.0,0.0,0.0,0.0,-0.9453,-0.9586,-0.9552,-0.9353,-0.8586,-0.8184,0.0,0.0,0.0,0.0,0.0,0.0,0.0,0.0,0.0,0.0,0.0,0.0,0.0,0.0,0.0,0.0,0.0,0.0,0.0,0.0,0.0,0.0,0.0,0.0,0.0,0.0,0.0,0.0,0.0,0.0,0.0,0.0,0.0,0.0,0.0,0.0,0.0,0.0,0.0,0.0,0.0,0.0,0.0,0.0,0.0,0.0,0.0,0.0,0.0,0.0,0.0,0.0,0.0,0.0,0.0,0.0,0.0,0.0,0.0,0.0,0.0,0.0,0.0,0.0,0.0,0.0,0.0,0.0,0.0,0.0,0.0,0.0,0.0,0.0,0.0,0.0,0.0,0.0,0.0,0.0,0.0,0.0,0.0,0.0,0.0,0.0,0.0,0.0,0.0,0.0,0.0,0.0,0.0,0.0,0.0,0.0,0.0,0.0,0.0,0.0,0.0,0.0,0.0,0.0,0.0,0.0,0.0,0.0,-0.9431,-0.986,-1.0012,-1.0094,-1.0084,-0.9202,-0.8702,0.0,0.0,0.0,0.0,0.0,0.0,0.0,0.0,0.0,0.0,0.0,0.0,0.0,0.0,0.0,0.0,0.0,0.0,0.0,0.0,0.0,0.0,0.0,0.0,0.0,0.0,0.0,0.0,0.0,0.0,0.0,0.0,0.0,0.0,0.0,0.0,0.0,0.0,0.0,0.0,0.0,0.0,0.0,0.0,0.0,0.0,0.0,0.0,0.0,0.0,0.0,0.0,0.0,0.0,0.0,0.0,0.0,0.0,0.0,0.0,0.0,0.0,0.0,0.0,0.0,0.0,0.0,0.0,0.0,0.0,0.0,0.0,0.0,0.0,0.0,0.0,0.0,0.0,0.0,0.0,0.0,0.0,0.0,0.0,0.0,0.0,0.0,0.0,0.0,0.0,0.0,0.0,0.0,0.0,0.0,0.0,0.0,0.0,0.0,0.0,0.0,0.0,0.0,0.0,0.0,0.0,0.0,0.0,-0.957,-1.0154,-1.0145,-1.0303,-1.0566,-0.9736,-0.917,0.0,0.0,0.0,0.0,0.0,0.0,0.0,0.0,0.0,0.0,0.0,0.0,0.0,0.0,0.0,0.0,0.0,0.0,0.0,0.0,0.0,0.0,0.0,0.0,0.0,0.0,0.0,0.0,0.0,0.0,0.0,0.0,0.0,0.0,0.0,0.0,0.0,0.0,0.0,0.0,0.0,0.0,0.0,0.0,0.0,0.0,0.0,0.0,0.0,0.0,0.0,0.0,0.0,0.0,0.0,0.0,0.0,0.0,0.0,0.0,0.0,0.0,0.0,0.0,0.0,0.0,0.0,0.0,0.0,0.0,0.0,0.0,0.0,0.0,0.0,0.0,0.0,0.0,0.0,0.0,0.0,0.0,0.0,0.0,0.0,0.0,0.0,0.0,0.0,0.0,0.0,0.0,0.0,0.0,0.0,0.0,0.0,0.0,0.0,0.0,0.0,0.0,0.0,0.0,0.0,0.0,0.0,0.0,-1.01,-1.047,-1.0515,-1.0526,-1.0586,-1.0039,-0.9568,0.0,0.0,0.0,0.0,0.0,0.0,0.0,0.0,0.0,0.0,0.0,0.0,0.0,0.0,0.0,0.0,0.0,0.0,0.0,0.0,0.0,0.0,0.0,0.0,0.0,0.0,0.0,0.0,0.0,0.0,0.0,0.0,0.0,0.0,0.0,0.0,0.0,0.0,0.0,0.0,0.0,0.0,0.0,0.0,0.0,0.0,0.0,0.0,-0.4801,0.0,0.0,0.0,0.0,0.0,0.0,0.0,0.0,0.0,0.0,0.0,0.0,0.0,0.0,0.0,0.0,0.0,0.0,0.0,0.0,0.0,0.0,0.0,0.0,0.0,0.0,0.0,0.0,0.0,0.0,0.0,0.0,0.0,0.0,0.0,0.0,0.0,0.0,0.0,0.0,0.0,0.0,0.0,0.0,0.0,0.0,0.0,0.0,0.0,0.0,0.0,0.0,0.0,0.0,0.0,0.0,0.0,0.0,0.0,-1.0261,-1.0579,-1.0586,-1.0586,-1.0579,-1.0135,-0.971,0.0,0.0,0.0,0.0,0.0,0.0,0.0,0.0,0.0,0.0,0.0,0.0,0.0,0.0,0.0,0.0,0.0,0.0,0.0,0.0,0.0,0.0,0.0,0.0,0.0,0.0,0.0,0.0,0.0,0.0,0.0,0.0,0.0,0.0,0.0,0.0,0.0,0.0,0.0,0.0,0.0,0.0,0.0,0.0,0.0,0.0,0.0,0.0,0.0,0.0,0.0,0.0,0.0,0.0,0.0,0.0,0.0,0.0,0.0,0.0,0.0,0.0,0.0,0.0,0.0,0.0,0.0,0.0,0.0,0.0,0.0,0.0,0.0,0.0,0.0,0.0,0.0,0.0,0.0,0.0,0.0,0.0,0.0,0.0,0.0,0.0,0.0,0.0,0.0,0.0,0.0,0.0,0.0,0.0,0.0,0.0,0.0,0.0,0.0,0.0,0.0,0.0,0.0,0.0,0.0,0.0,0.0,-1.0013,-1.0307,-1.0579,-1.0586,-1.0586,-1.0586,-1.0142,-0.971,-0.9301,0.0,0.0,0.0,0.0,0.0,0.0,0.0,0.0,0.0,0.0,0.0,0.0,0.0,0.0,0.0,0.0,0.0,0.0,0.0,0.0,0.0,0.0,0.0,0.0,0.0,0.0,0.0,0.0,0.0,0.0,0.0,0.0,0.0,0.0,0.0,0.0,0.0,0.0,-0.3983,-0.4373,0.0,0.0,0.0,0.0,0.0,0.0,0.0,0.0,-0.5038,0.0,0.0,0.0,0.0,0.0,0.0,0.0,0.0,0.0,0.0,0.0,0.0,0.0,0.0,0.0,0.0,0.0,0.0,0.0,0.0,0.0,0.0,0.0,0.0,0.0,0.0,0.0,0.0,0.0,0.0,0.0,0.0,0.0,0.0,0.0,0.0,0.0,0.0,0.0,0.0,0.0,0.0,0.0,0.0,0.0,0.0,0.0,0.0,0.0,0.0,0.0,0.0,0.0,0.0,0.0,0.0,-0.9694,-1.0244,-1.0546,-1.0586,-1.0586,-1.0586,-1.0579,-1.0135,-0.9717,-0.9274,0.0,0.0,0.0,0.0,0.0,0.0,0.0,0.0,0.0,0.0,0.0,0.0,0.0,0.0,0.0,0.0,0.0,0.0,0.0,0.0,0.0,0.0,0.0,0.0,0.0,0.0,0.0,0.0,0.0,0.0,0.0,0.0,0.0,0.0,0.0,0.0,0.0,0.0,0.0,-0.5064,-0.5261,0.0,0.0,0.0,0.0,0.0,0.0,0.0,0.0,-0.5654,0.0,0.0,0.0,0.0,0.0,0.0,0.0,0.0,0.0,0.0,0.0,0.0,0.0,0.0,0.0,0.0,0.0,0.0,0.0,0.0,0.0,0.0,0.0,0.0,0.0,0.0,0.0,0.0,0.0,0.0,0.0,0.0,0.0,0.0,0.0,0.0,0.0,0.0,0.0,0.0,0.0,0.0,0.0,0.0,0.0,0.0,0.0,0.0,0.0,0.0,0.0,0.0,0.0,0.0,0.0,-0.9688,-1.0122,-1.0423,-1.0579,-1.0586,-1.0519,-1.035,-0.9918,-0.9489,0.0,0.0,0.0,0.0,0.0,0.0,0.0,0.0,0.0,0.0,0.0,0.0,0.0,0.0,0.0,0.0,0.0,0.0,0.0,0.0,0.0,0.0,0.0,0.0,0.0,0.0,0.0,0.0,0.0,0.0,0.0,0.0,0.0,0.0,0.0,0.0,0.0,0.0,0.0,0.0,-0.5536,-0.5689,-0.5738,0.0,0.0,0.0,0.0,0.0,0.0,-0.58,-0.58,0.0,0.0,0.0,0.0,0.0,0.0,0.0,0.0,0.0,0.0,0.0,0.0,0.0,0.0,0.0,0.0,0.0,0.0,0.0,0.0,0.0,0.0,0.0,0.0,0.0,0.0,0.0,0.0,0.0,0.0,0.0,0.0,0.0,0.0,0.0,0.0,0.0,0.0,0.0,0.0,0.0,0.0,0.0,0.0,0.0,0.0,0.0,0.0,0.0,0.0,0.0,0.0,0.0,0.0,0.0,-0.9587,-0.9925,-1.0234,-1.0492,-1.0566,-1.043,-1.0105,-0.9751,-0.9302,0.0,0.0,0.0,0.0,0.0,0.0,0.0,0.0,0.0,0.0,0.0,0.0,0.0,0.0,0.0,0.0,0.0,0.0,0.0,0.0,0.0,0.0,0.0,0.0,0.0,0.0,0.0,0.0,0.0,0.0,0.0,0.0,0.0,0.0,0.0,0.0,0.0,0.0,0.0,0.0,0.0,-0.6207,-0.6305,-0.6263,0.0,0.0,0.0,0.0,-0.5976,-0.5983,0.0,0.0,0.0,0.0,0.0,0.0,0.0,0.0,0.0,0.0,0.0,0.0,0.0,0.0,0.0,0.0,0.0,0.0,0.0,0.0,0.0,0.0,0.0,0.0,0.0,0.0,0.0,0.0,0.0,0.0,0.0,0.0,0.0,0.0,0.0,0.0,0.0,0.0,0.0,0.0,0.0,0.0,0.0,0.0,0.0,0.0,0.0,0.0,0.0,0.0,0.0,0.0,0.0,0.0,0.0,0.0,-0.9257,-0.981,-1.0125,-1.0158,-1.0437,-1.0437,-1.0105,-0.9818,-0.9417,0.0,0.0,0.0,0.0,0.0,0.0,0.0,0.0,0.0,0.0,0.0,0.0,0.0,0.0,0.0,0.0,0.0,0.0,0.0,0.0,0.0,0.0,0.0,0.0,0.0,0.0,0.0,0.0,0.0,0.0,0.0,0.0,0.0,0.0,0.0,0.0,0.0,0.0,0.0,0.0,0.0,-0.7055,-0.7077,-0.6761,-0.6575,0.0,0.0,-0.646,-0.6576,-0.6597,0.0,0.0,0.0,0.0,0.0,0.0,0.0,0.0,0.0,0.0,0.0,0.0,0.0,0.0,0.0,0.0,0.0,0.0,0.0,0.0,0.0,0.0,0.0,0.0,0.0,0.0,0.0,0.0,0.0,0.0,0.0,0.0,0.0,0.0,0.0,0.0,0.0,0.0,0.0,0.0,0.0,0.0,0.0,0.0,0.0,0.0,0.0,0.0,0.0,0.0,0.0,0.0,0.0,0.0,0.0,-0.8657,-0.919,-0.9638,-0.9953,-1.0114,-1.0416,-1.0365,-0.9895,-0.9761,-0.9352,0.0,0.0,0.0,0.0,0.0,0.0,0.0,0.0,0.0,0.0,0.0,0.0,0.0,0.0,0.0,0.0,0.0,0.0,0.0,0.0,0.0,0.0,0.0,0.0,0.0,0.0,0.0,0.0,0.0,0.0,0.0,0.0,0.0,0.0,0.0,0.0,0.0,0.0,0.0,0.0,0.0,0.0,-0.7878,-0.764,0.0,0.0,0.0,-0.6836,-0.6828,0.0,0.0,0.0,0.0,0.0,0.0,0.0,0.0,0.0,0.0,0.0,0.0,0.0,0.0,0.0,0.0,0.0,0.0,0.0,0.0,0.0,0.0,0.0,0.0,0.0,0.0,0.0,0.0,0.0,0.0,0.0,0.0,0.0,0.0,0.0,0.0,0.0,0.0,0.0,0.0,0.0,0.0,0.0,0.0,0.0,0.0,0.0,0.0,0.0,0.0,0.0,0.0,0.0,0.0,0.0,0.0,0.0,-0.9084,-0.9499,-0.9808,-0.9998,-1.0399,-1.0311,-0.9727,-0.9701,0.0,0.0,0.0,0.0,0.0,0.0,0.0,0.0,0.0,0.0,0.0,0.0,0.0,0.0,0.0,0.0,0.0,0.0,0.0,0.0,0.0,0.0,0.0,0.0,0.0,0.0,0.0,-0.6117,0.0,0.0,0.0,0.0,0.0,0.0,0.0,0.0,0.0,0.0,0.0,0.0,0.0,0.0,-0.8393,-0.862,-0.8362,-0.8008,0.0,0.0,-0.7232,-0.7074,-0.6973,-0.6898,0.0,0.0,0.0,0.0,0.0,0.0,0.0,0.0,0.0,0.0,0.0,0.0,0.0,0.0,0.0,0.0,0.0,0.0,0.0,0.0,0.0,0.0,0.0,0.0,0.0,0.0,0.0,0.0,0.0,0.0,0.0,0.0,0.0,0.0,0.0,0.0,0.0,0.0,0.0,0.0,0.0,0.0,0.0,0.0,0.0,0.0,0.0,0.0,0.0,0.0,0.0,0.0,0.0,0.0,0.0,-0.8844,-0.9399,-0.9714,-0.9747,-1.0298,-1.0311,-0.9727,-0.9701,-0.9349,0.0,0.0,0.0,0.0,0.0,0.0,0.0,0.0,0.0,0.0,0.0,0.0,0.0,0.0,0.0,0.0,0.0,0.0,0.0,0.0,0.0,0.0,0.0,0.0,0.0,0.0,0.0,0.0,0.0,0.0,0.0,0.0,0.0,0.0,0.0,0.0,0.0,0.0,0.0,0.0,0.0,-0.9022,-0.9304,-0.8727,-0.8276,0.0,0.0,-0.776,-0.7511,-0.7456,-0.7383,-0.7112,0.0,0.0,0.0,0.0,0.0,0.0,0.0,0.0,0.0,0.0,0.0,0.0,0.0,0.0,0.0,0.0,0.0,0.0,0.0,0.0,0.0,0.0,0.0,0.0,0.0,0.0,0.0,0.0,0.0,0.0,0.0,0.0,0.0,0.0,0.0,0.0,0.0,0.0,0.0,0.0,0.0,0.0,0.0,0.0,0.0,0.0,0.0,0.0,0.0,0.0,0.0,0.0,0.0,-0.8784,-0.9044,-0.9472,-0.9781,-0.9953,-1.0385,-1.0376,-0.9967,-0.9794,-0.9435,0.0,0.0,0.0,0.0,0.0,0.0,0.0,0.0,0.0,0.0,0.0,0.0,0.0,0.0,0.0,0.0,0.0,0.0,0.0,0.0,0.0,0.0,0.0,0.0,0.0,0.0,0.0,0.0,-0.8083,-0.8201,-0.8299,0.0,0.0,0.0,0.0,0.0,0.0,0.0,0.0,0.0,0.0,-1.0017,-0.9957,-0.961,0.0,0.0,-0.8494,-0.8208,-0.7854,-0.7631,-0.7415,-0.7139,-0.6977,0.0,0.0,0.0,0.0,0.0,0.0,0.0,0.0,0.0,0.0,0.0,0.0,0.0,0.0,0.0,0.0,0.0,0.0,0.0,0.0,0.0,0.0,0.0,0.0,0.0,0.0,0.0,0.0,0.0,0.0,0.0,0.0,0.0,0.0,0.0,0.0,0.0,0.0,0.0,0.0,0.0,0.0,0.0,0.0,0.0,0.0,0.0,0.0,0.0,0.0,0.0,0.0,-0.9011,-0.9197,-0.9598,-0.9907,-1.0105,-1.0416,-1.0452,-1.0112,-0.992,-0.9596,0.0,0.0,0.0,0.0,0.0,0.0,0.0,0.0,0.0,0.0,0.0,0.0,0.0,0.0,0.0,0.0,0.0,0.0,0.0,0.0,0.0,0.0,0.0,0.0,0.0,0.0,0.0,0.0,-0.8878,-0.8949,-0.8799,0.0,0.0,0.0,0.0,0.0,0.0,0.0,0.0,0.0,0.0,-1.0826,-1.0636,-1.0406,-1.006,-0.945,-0.9192,-0.8879,-0.8384,-0.8087,-0.7771,-0.7389,0.0,0.0,0.0,0.0,0.0,0.0,0.0,0.0,0.0,0.0,0.0,0.0,0.0,0.0,0.0,0.0,0.0,0.0,0.0,0.0,0.0,0.0,0.0,0.0,0.0,0.0,0.0,0.0,0.0,0.0,-0.9526,0.0,0.0,0.0,0.0,0.0,0.0,0.0,0.0,0.0,0.0,0.0,0.0,0.0,0.0,0.0,0.0,0.0,0.0,0.0,0.0,0.0,0.0,-0.9197,-0.9224,-0.9798,-1.0092,-1.0112,-1.0439,-1.0437,-1.0118,-1.0092,-0.9804,-0.9237,0.0,0.0,0.0,0.0,0.0,0.0,0.0,0.0,0.0,0.0,0.0,0.0,0.0,0.0,0.0,0.0,0.0,0.0,0.0,0.0,0.0,0.0,0.0,0.0,0.0,0.0,-0.9618,-0.9979,-1.0064,0.0,0.0,0.0,0.0,0.0,0.0,0.0,0.0,0.0,0.0,-1.1456,-1.1276,-1.1281,-1.1056,-1.0721,-1.0246,-1.0115,-0.986,-0.9174,-0.8957,-0.8616,0.0,0.0,0.0,0.0,0.0,0.0,0.0,0.0,0.0,0.0,0.0,0.0,0.0,0.0,0.0,0.0,0.0,0.0,0.0,0.0,0.0,0.0,0.0,0.0,0.0,0.0,0.0,-1.1501,-1.1462,0.0,0.0,0.0,0.0,0.0,0.0,0.0,0.0,0.0,0.0,0.0,-1.043,-1.0494,0.0,0.0,0.0,0.0,0.0,0.0,0.0,0.0,0.0,0.0,0.0,0.0,-0.9618,-0.979,-0.9983,-1.0207,-1.0439,-1.0539,-1.0539,-1.0439,-1.0205,-0.994,-0.9552,0.0,0.0,0.0,0.0,0.0,0.0,0.0,0.0,0.0,0.0,0.0,0.0,0.0,0.0,0.0,0.0,0.0,0.0,0.0,0.0,0.0,0.0,0.0,0.0,0.0,-0.9901,0.0,0.0,0.0,0.0,0.0,0.0,0.0,0.0,0.0,0.0,0.0,-1.2042,-1.232,-1.2275,-1.2107,-1.182,-1.1727,-1.1504,0.0,0.0,0.0,0.0,0.0,0.0,0.0,0.0,0.0,0.0,0.0,0.0,0.0,0.0,-0.7299,-0.7299,-0.7299,-0.7299,-0.7299,0.0,0.0,0.0,0.0,0.0,0.0,0.0,0.0,0.0,0.0,0.0,0.0,0.0,0.0,-1.2669,0.0,-1.2385,0.0,0.0,0.0,0.0,0.0,0.0,0.0,0.0,-1.1613,-1.1582,-1.1533,-1.1601,-1.1647,0.0,-1.1435,-1.1103,0.0,0.0,0.0,0.0,0.0,0.0,0.0,0.0,-0.9912,-1.0092,-1.0221,-1.0383,-1.0579,-1.0586,-1.0586,-1.0586,-1.0274,-1.0027,-0.984,-0.9452,-0.9321,0.0,0.0,0.0,0.0,0.0,0.0,0.0,0.0,0.0,0.0,0.0,0.0,0.0,0.0,0.0,0.0,0.0,0.0,0.0,0.0,0.0,0.0,0.0,-1.0685,0.0,0.0,0.0,0.0,0.0,0.0,0.0,0.0,0.0,-1.203,-1.2423,-1.2772,-1.2927,-1.294,-1.2784,-1.24,0.0,0.0,0.0,0.0,0.0,0.0,0.0,-0.9846,-0.9012,-0.8662,-0.8377,-0.8074,-0.8013,-0.8082,-0.8245,0.0,0.0,-0.7641,-0.7597,-0.7597,-0.7597,-0.7597,-0.7597,-0.7597,-0.7597,-0.7597,0.0,0.0,0.0,0.0,0.0,0.0,0.0,0.0,-1.3024,-1.3111,0.0,-1.3084,0.0,0.0,0.0,0.0,0.0,-1.2164,0.0,0.0,-1.2675,-1.2822,-1.3113,-1.3303,-1.3318,-1.3123,-1.3092,-1.2742,-1.2087,-1.0722,0.0,0.0,0.0,0.0,0.0,0.0,-1.0147,-1.0152,-1.0479,-1.062,-1.0633,-1.062,-1.06,-1.0579,-1.0303,-1.0118,-1.0105,-0.9853,-0.9648,-0.9551,-0.9496,0.0,0.0,0.0,0.0,0.0,0.0,0.0,0.0,0.0,0.0,0.0,0.0,0.0,0.0,0.0,0.0,0.0,0.0,0.0,0.0,-1.1181,0.0,0.0,0.0,0.0,0.0,0.0,0.0,0.0,0.0,0.0,-1.3002,-1.3019,-1.3128,-1.3375,0.0,0.0,0.0,0.0,-1.3324,-1.2819,-1.2964,-1.2877,-1.2116,-1.162,-1.1005,-0.9984,0.0,0.0,-0.8894,-0.8821,-0.8789,-0.8821,-0.8782,-0.8557,-0.7787,-0.7678,-0.7675,-0.7671,-0.7678,-0.7638,-0.7617,-0.7668,-0.7634,-1.6573,0.0,0.0,0.0,0.0,-1.5127,-1.5026,-1.4909,-1.505,-1.5127,-1.5155,-1.4924,0.0,0.0,0.0,0.0,0.0,0.0,-1.3986,-1.4099,-1.4115,-1.4039,-1.3883,-1.3933,-1.3941,-1.3891,-1.36,-1.3362,-1.3145,-1.241,-1.1544,-1.0569,0.0,0.0,0.0,0.0,-1.0742,-1.0755,-1.1012,-1.1176,-1.1176,-1.0975,-1.0801,-1.0593,-1.0506,-1.045,-1.045,-1.0147,-1.0078,-1.0263,-0.9779,0.0,0.0,0.0,0.0,0.0,0.0,0.0,0.0,0.0,0.0,0.0,0.0,0.0,0.0,0.0,0.0,0.0,0.0,0.0,-1.1527,-1.1866,-1.2131,0.0,0.0,0.0,0.0,0.0,0.0,0.0,0.0,0.0,-1.3748,-1.3568,-1.3548,0.0,0.0,-1.3671,-1.3845,-1.3941,-1.3894,-1.3601,-1.3785,0.0,-1.271,-1.2318,-1.1734,-1.069,-0.9987,-0.9567,-0.9636,-0.9327,-0.9154,-0.9327,-0.9076,-0.8717,-0.8517,-0.8443,-0.8464,-0.8443,-0.83,-0.8178,-0.8154,-0.8035,-0.7885,-1.822,-1.7374,-1.6787,-1.648,-1.635,-1.6158,-1.601,-1.5888,-1.601,-1.6124,-1.6179,-1.5936,-1.5838,-1.5798,-1.5377,0.0,0.0,0.0,-1.5046,-1.5138,-1.5303,-1.5308,-1.5214,-1.5237,-1.5243,-1.5173,-1.4841,-1.4494,-1.4152,-1.3876,-1.3187,-1.2074,0.0,0.0,-1.117,-1.1314,-1.1386,-1.141,-1.1472,-1.1508,-1.1515,-1.1273,-1.1022,-1.0758,-1.0767,-1.0707,-1.0593,-1.041,-1.039,-1.0579,-1.0181,-1.0045,0.0,0.0,0.0,0.0,0.0,0.0,0.0,0.0,0.0,0.0,0.0,-0.9451,0.0,0.0,0.0,0.0,-1.1569,-1.2005,-1.2371,-1.2559,0.0,0.0,0.0,0.0,0.0,0.0,0.0,-1.3586,-1.3727,-1.3867,-1.4076,-1.3928,-1.3867,-1.4068,-1.4054,-1.4101,-1.4293,0.0,-1.4545,-1.4231,-1.442,-1.4304,-1.3394,-1.2934,-1.2322,-1.1272,-1.0556,-1.0142,-1.0265,-0.9949,-0.9752,-0.9846,-0.9645,-0.9394,-0.9299,-0.9274,-0.915,-0.885,-0.8676,-0.8581,-0.8556,-0.8333,-0.8137,-1.9491,-1.9326,-1.7971,-1.7252,-1.704,-1.6601,-1.6432,-1.6407,-1.6416,-1.6529,-1.6693,-1.6529,-1.6536,-1.6677,-1.6354,0.0,-1.5734,-1.5718,-1.5802,-1.5975,-1.6349,-1.6608,-1.678,-1.689,-1.6882,-1.6758,-1.6495,-1.5958,-1.5186,-1.5152,-1.4795,-1.4168,-1.3122,-1.2452,-1.2146,-1.2132,-1.2132,-1.207,-1.1926,-1.1809,-1.1744,-1.1549,-1.1299,-1.1035,-1.1009,-1.0885,-1.0646,-1.06,-1.06,-1.0642,-1.062,-1.076,-1.1002,0.0,0.0,0.0,0.0,0.0,0.0,0.0,0.0,0.0,0.0,0.0,0.0,0.0,0.0,0.0,-1.2396,0.0,-1.318,-1.3206,0.0,0.0,0.0,-1.3253,-1.328,-1.348,-1.364,-1.364,0.0,0.0,-1.4109,-1.4129,-1.4122,-1.415,-1.4355,-1.4514,-1.4561,-1.5028,-1.5219,-1.4678,-1.4894,-1.4796,-1.3955,-1.3394,-1.2735,-1.1878,-1.1267,-1.09,-1.09,-1.0679,-1.0511,-1.0462,-1.0458,-1.0339,-1.0068,-0.9994,-0.9797,-0.9097,-0.8874,-0.8829,-0.8829,-0.863,-0.8432,-2.1074,-2.0693,-2.003,-1.9286,-1.8499,-1.8366,-1.8247,-1.8131,-1.8292,-1.8363,-1.8426,-1.8513,-1.8495,-1.8381,-1.8158,-1.7917,-1.7702,-1.7711,-1.7578,-1.7333,-1.7423,-1.743,-1.7397,-1.7411,-1.7417,-1.7361,-1.7164,-1.6845,-1.6451,-1.6356,-1.6136,-1.5823,-1.5386,-1.4524,-1.3279,-1.3324,-1.3148,-1.2701,-1.2895,-1.2693,-1.2101,-1.1887,-1.1634,-1.1319,-1.1109,-1.0978,-1.0905,-1.0707,-1.0693,-1.0891,-1.0889,-1.1045,-1.1292,-1.1265,0.0,0.0,0.0,0.0,0.0,0.0,0.0,0.0,0.0,-1.0921,-1.1402,0.0,-1.2004,0.0,-1.2879,-1.3133,-1.3187,-1.3206,0.0,0.0,-1.35,-1.3607,-1.3854,-1.3935,-1.396,-1.3981,-1.4048,-1.4109,-1.4109,-1.4275,-1.4394,-1.4401,-1.4454,-1.4654,-1.511,-1.5291,-1.5299,-1.5055,-1.5062,-1.482,-1.4027,-1.3322,-1.2807,-1.2565,-1.2054,-1.1712,-1.1707,-1.1516,-1.1243,-1.1051,-1.0826,-1.0609,-1.0364,-1.0314,-1.0265,-1.0015,-0.955,-0.9109,-0.9084,-0.8903,-0.8701,-2.1748,-2.1484,-2.128,-2.082,-2.0236,-1.9452,-1.9068,-1.8985,-1.9086,-1.9151,-1.9151,-1.9251,-1.9187,-1.8986,-1.8885,-1.871,-1.8544,-1.8554,-1.8415,-1.8202,-1.8284,-1.83,-1.8224,-1.8233,-1.8227,-1.8218,-1.8015,-1.7746,-1.7456,-1.7369,-1.7245,-1.7158,-1.6878,-1.6283,-1.5421,-1.4824,-1.432,-1.3878,-1.3549,-1.3138,-1.262,-1.2258,-1.1917,-1.163,-1.1336,-1.1122,-1.0995,-1.0874,-1.0845,-1.0998,-1.1116,-1.1316,-1.1603,-1.1623,-1.1761,0.0,0.0,0.0,0.0,0.0,0.0,0.0,0.0,0.0,0.0,0.0,-1.2736,-1.3126,-1.328,-1.3433,-1.3594,-1.358,-1.3667,-1.3807,-1.382,-1.3887,-1.4096,-1.4109,-1.4109,-1.4109,-1.4109,-1.4135,-1.4262,-1.4401,-1.4601,-1.4841,-1.491,-1.5023,-1.5331,-1.5498,-1.5511,-1.5307,-1.5178,-1.4814,-1.4027,-1.3545,-1.3244,-1.3104,-1.2691,-1.2346,-1.2346,-1.2054,-1.1707,-1.1565,-1.1443,-1.1218,-1.085,-1.0752,-1.0708,-1.0388,-1.0043,-0.9727,-0.9579,-0.9253,-0.8981,-2.2042,-2.1984,-2.1993,-2.1934,-2.1768,-2.0283,-1.9638,-1.9638,-1.9638,-1.959,-1.9559,-1.9541,-1.9438,-1.9223,-1.9205,-1.9113,-1.8975,-1.8975,-1.9013,-1.9023,-1.9211,-1.9274,-1.9273,-1.9292,-1.9267,-1.9236,-1.901,-1.8685,-1.8307,-1.8225,-1.8207,-1.8207,-1.7818,-1.7686,-1.7759,-1.6386,-1.5502,-1.5153,-1.4079,-1.3385,-1.3146,-1.2641,-1.2236,-1.1948,-1.1637,-1.1346,-1.1116,-1.1069,-1.1069,-1.1116,-1.1349,-1.1617,-1.1922,-1.1993,-1.2248,0.0,-1.2836,0.0,0.0,0.0,0.0,0.0,0.0,0.0,0.0,-1.322,-1.3367,-1.3633,-1.366,-1.3787,-1.4068,-1.4109,-1.4109,-1.4109,-1.4109,-1.4109,-1.4109,-1.4109,-1.4109,-1.4109,-1.4136,-1.4249,-1.4447,-1.4554,-1.4821,-1.5271,-1.5404,-1.5438,-1.5455,-1.5641,-1.5693,-1.5516,-1.5244,-1.4772,-1.4196,-1.3955,-1.3786,-1.3563,-1.3177,-1.291,-1.2886,-1.2492,-1.2151,-1.2127,-1.2049,-1.1853,-1.1389,-1.1292,-1.1149,-1.0703,-1.0536,-1.0388,-1.0068,-0.9649,-0.9335,-2.2684,-2.2402,-2.2371,-2.2197,-2.1855,-2.1553,-2.1417,-2.1417,-2.1407,-2.1201,-2.0849,-2.0849,-2.0654,-2.0303,-2.0303,-2.0353,-2.0484,-2.0475,-2.0567,-2.0729,-2.0764,-2.0781,-2.0791,-2.0784,-2.0707,-2.0523,-2.0185,-1.9758,-1.9304,-1.8987,-1.8834,-1.8806,-1.8437,-1.8312,-1.8462,0.0,0.0,0.0,-1.4531,-1.3814,-1.335,-1.292,-1.2556,-1.2231,-1.1944,0.0,-1.1739,-1.147,-1.1456,-1.1708,-1.1775,0.0,0.0,0.0,0.0,0.0,0.0,0.0,0.0,0.0,0.0,0.0,-1.3413,-1.33,-1.3207,-1.3407,-1.3667,-1.3975,-1.4022,-1.4028,-1.4103,-1.4109,-1.4109,-1.4109,-1.4109,-1.4109,-1.4109,-1.4109,-1.4109,-1.4109,-1.4295,-1.4441,-1.4527,-1.4923,-1.5257,-1.5398,-1.5568,-1.5708,-1.5715,-1.5768,-1.573,-1.5516,-1.5118,-1.4742,-1.4568,-1.419,-1.3937,-1.3786,-1.3563,-1.337,-1.3346,-1.3104,-1.2832,-1.2686,-1.2473,-1.2248,-1.1902,-1.1858,-1.1736,-1.1438,-1.1198,-1.09,-1.0413,-1.0072,-0.985,-2.3181,0.0,-2.2791,-2.2684,0.0,-2.2488,-2.2479,-2.2459,-2.206,-2.1758,-2.1553,-2.1532,-2.1435,-2.1241,-2.1241,-2.1288,-2.14,-2.14,-2.1455,-2.1555,-2.1411,-2.1339,-2.1339,-2.1244,-2.114,-2.1057,-2.0756,-2.0467,-2.0221,-1.9905,-1.9723,-1.9723,-1.93,-1.9068,-1.8955,-1.7931,-1.6875,-1.5856,-1.502,-1.4347,-1.3856,-1.3247,-1.2805,-1.2549,-1.2134,0.0,0.0,0.0,0.0,0.0,0.0,0.0,0.0,0.0,0.0,-1.3173,-1.332,-1.3467,-1.3627,-1.3641,-1.3707,-1.3834,-1.3861,-1.3801,-1.3654,-1.3781,-1.3921,-1.4068,-1.4109,-1.4109,-1.4109,-1.4109,-1.4109,-1.4109,-1.4109,-1.4109,-1.4123,-1.4215,-1.4302,-1.4329,-1.4584,-1.4783,-1.4937,-1.519,-1.5451,-1.5591,-1.5708,-1.5801,-1.5801,-1.5801,-1.5737,-1.554,-1.5309,-1.5046,-1.4909,-1.458,-1.4292,-1.4238,-1.3955,-1.3738,-1.369,-1.3491,-1.3268,-1.3152,-1.3031,-1.2832,-1.2497,-1.2395,-1.2273,-1.1902,-1.1683,-1.1463,-1.1047,-1.056,-1.0167,-2.362,-2.3218,-2.323,-2.3181,-2.3101,-2.3101,-2.3101,-2.3052,0.0,0.0,0.0,-2.1992,-2.1974,-2.1915,-2.1915,-2.1944,-2.2013,-2.2002,-2.2031,-2.2109,-2.1892,-2.1789,-2.1778,-2.161,-2.1514,-2.1463,-2.1259,-2.1083,-2.1002,-2.0705,-2.0542,-2.0458,-2.0023,-1.9588,-1.9108,-1.8056,-1.706,-1.6205,-1.5481,-1.4883,-1.4353,-1.3645,-1.3149,-1.2922,-1.2414,-1.2129,-1.2141,-1.2122,-1.2122,-1.2147,-1.235,-1.2572,-1.287,-1.2911,-1.3126,-1.3553,-1.3653,-1.3814,-1.4089,-1.4109,-1.4109,-1.4109,-1.4109,-1.4109,-1.4109,-1.4109,-1.4109,-1.4109,-1.4109,-1.4109,-1.4109,-1.4109,-1.4109,-1.4109,-1.4135,-1.419,-1.4188,-1.4422,-1.4603,-1.4629,-1.4856,-1.5169,-1.536,-1.5438,-1.5551,-1.5741,-1.5795,-1.5801,-1.5801,-1.5801,-1.5761,-1.5611,-1.5493,-1.5404,-1.5196,-1.4933,-1.4783,-1.4748,-1.4358,-1.4052,-1.3997,-1.3781,-1.3612,-1.3545,-1.3539,-1.3322,-1.3031,-1.291,-1.274,-1.2248,-1.2127,-1.2049,-1.1688,-1.1125,-1.0556,-2.4082,-2.3701,-2.3691,-2.3486,-2.3101,-2.3101,-2.3101,-2.3103,-2.2964,-2.2742,-2.2432,-2.241,-2.2227,-2.1915,-2.1915,-2.208,-2.2412,-2.2422,-2.2586,-2.2937,-2.2872,-2.2894,-2.2872,-2.285,-2.2751,-2.2548,-2.2191,-2.1805,-2.1406,-2.1034,-2.0731,-2.0488,-2.0023,-1.9401,-1.8623,-1.8133,-1.7456,-1.6536,-1.5929,-1.5265,-1.4577,-1.4094,-1.374,-1.3408,-1.3151,-1.3007,-1.3019,-1.3013,-1.3019,-1.3007,-1.3047,-1.3106,-1.3146,-1.3353,-1.354,-1.3606,-1.386,-1.4048,-1.4109,-1.4109,-1.4109,-1.4109,-1.4109,-1.4109,-1.4109,-1.4109,-1.4109,-1.4109,-1.4109,-1.4109,-1.4109,-1.4116,-1.4108,-1.415,-1.4315,-1.4462,-1.4441,-1.4723,-1.4926,-1.4932,-1.518,-1.5344,-1.5424,-1.5588,-1.5728,-1.5788,-1.5801,-1.5801,-1.5801,-1.5801,-1.5801,-1.5754,-1.5611,-1.5493,-1.5428,-1.522,-1.5077,-1.5035,-1.479,-1.455,-1.455,-1.4172,-1.3907,-1.3835,-1.3714,-1.3521,-1.3418,-1.3418,-1.3201,-1.2783,-1.2667,-1.2516,-1.2078,-1.1663,-1.1243,-2.4512,-2.4141,-2.4131,-2.3887,-2.3477,-2.3188,-2.3101,-2.3101,-2.3101,-2.3015,-2.2818,-2.283,-2.2701,-2.2557,-2.2537,-2.2654,-2.283,-2.283,-2.2906,-2.3081,-2.3101,-2.3101,-2.3101,-2.3101,-2.3047,-2.295,-2.2676,-2.2341,-2.1998,-2.1699,-2.1398,-2.1119,-2.0496,-1.9718,-1.8811,-1.8442,-1.7811,-1.6886,-1.6234,-1.5578,-1.4895,-1.4411,-1.4027,-1.3782,-1.3393,-1.3206,-1.3206,-1.3206,-1.3206,-1.3206,-1.3206,-1.326,-1.342,-1.3533,-1.3694,-1.3854,-1.4015,-1.4109,-1.4109,-1.4109,-1.4109,-1.4116,-1.4235,-1.4322,-1.4315,-1.4175,-1.4109,-1.4109,-1.4109,-1.4155,-1.4302,-1.4322,-1.4404,-1.4571,-1.4711,-1.4778,-1.479,-1.5017,-1.522,-1.5247,-1.5451,-1.5601,-1.5608,-1.5721,-1.5801,-1.5801,-1.5801,-1.5801,-1.5801,-1.5801,-1.5801,-1.5801,-1.5706,-1.5666,-1.5666,-1.5475,-1.5333,-1.5309,-1.51,-1.4933,-1.4909,-1.4574,-1.4358,-1.431,-1.4112,-1.3901,-1.3781,-1.3714,-1.3545,-1.3273,-1.305,-1.2807,-1.2492,-1.2127,-1.1585,-2.4961,-2.456,-2.456,-2.4316,-2.3916,-2.3552,-2.3383,-2.3415,-2.3393,-2.3406,-2.3364,-2.3188,-2.3101,-2.3101,-2.3101,-2.3091,-2.3101,-2.3101,-2.3091,-2.3101,-2.3101,-2.3101,-2.3101,-2.3101,-2.3101,-2.3101,-2.2938,-2.2706,-2.2419,-2.2252,-2.1941,-2.1526,-2.0913,-2.0099,-1.915,-1.8778,-1.8153,-1.7236,-1.6627,-1.6006,-1.5295,-1.4689,-1.4322,-1.4145,-1.3669,-1.3407,-1.3387,-1.3414,-1.3407,-1.3407,-1.3407,-1.3487,-1.368,-1.372,-1.3827,-1.4083,-1.4109,-1.4122,-1.4182,-1.4188,-1.4236,-1.4282,-1.4511,-1.4623,-1.4603,-1.4422,-1.4303,-1.4303,-1.433,-1.4417,-1.4576,-1.4623,-1.4716,-1.4981,-1.5075,-1.5079,-1.5106,-1.5317,-1.5498,-1.5518,-1.5675,-1.5795,-1.5801,-1.5801,-1.5801,-1.5801,-1.5801,-1.5801,-1.5801,-1.5801,-1.5801,-1.5801,-1.5801,-1.5801,-1.5784,-1.5666,-1.5594,-1.5564,-1.5363,-1.522,-1.5148,-1.4957,-1.4814,-1.4742,-1.4568,-1.4328,-1.4124,-1.4027,-1.3883,-1.3617,-1.3418,-1.3177,-1.2807,-1.2492,-1.1902,-2.541,-2.5063,-2.5043,-2.4756,-2.4375,-2.4274,-2.4245,-2.4245,-2.4274,-2.4274,-2.4157,-2.3442,-2.312,-2.3101,-2.311,-2.311,-2.3101,-2.3101,-2.3101,-2.3101,-2.3101,-2.3101,-2.3101,-2.3101,-2.3101,-2.3101,-2.3079,-2.2838,-2.241,-2.2353,-2.1922,-2.1154,-2.0984,-2.0486,-1.9594,-1.9158,-1.8501,-1.7567,-1.7185,-1.6626,-1.5848,-1.5049,-1.465,-1.4622,-1.4239,-1.4029,-1.3968,-1.4008,-1.4022,-1.4008,-1.3988,-1.4029,-1.4035,-1.4041,-1.4055,-1.4116,-1.4116,-1.4202,-1.4449,-1.4461,-1.4589,-1.4872,-1.4919,-1.4939,-1.4946,-1.4926,-1.4899,-1.4921,-1.4928,-1.4885,-1.4961,-1.4946,-1.4972,-1.5059,-1.5247,-1.5351,-1.5414,-1.5618,-1.5761,-1.5768,-1.5775,-1.5801,-1.5801,-1.5801,-1.5801,-1.5801,-1.5801,-1.5801,-1.5801,-1.5801,-1.5801,-1.5801,-1.5801,-1.5801,-1.5801,-1.5801,-1.5761,-1.573,-1.5588,-1.5475,-1.5404,-1.5244,-1.5083,-1.5053,-1.4838,-1.4646,-1.4574,-1.4424,-1.4184,-1.3979,-1.3786,-1.3617,-1.3007,-1.2735,-1.2322,-2.5601,-2.5459,-2.5445,-2.5215,-2.4795,-2.4508,-2.4424,-2.4424,-2.4424,-2.4424,-2.4362,-2.402,-2.3737,-2.3535,-2.3525,-2.3367,-2.311,-2.3101,-2.3101,-2.3101,-2.3101,-2.3101,-2.3101,-2.3101,-2.3101,-2.3101,-2.3101,-2.285,-2.2419,-2.2109,-2.1633,-2.1064,-2.0997,-2.0532,-1.9662,-1.943,-1.8871,-1.7911,-1.7567,-1.7108,-1.6448,-1.5504,-1.5007,-1.4929,-1.4409,-1.4109,-1.4109,-1.4109,-1.4109,-1.4109,-1.4109,-1.4109,-1.4109,-1.4109,-1.4162,-1.4307,-1.4531,-1.4678,-1.4798,-1.4783,-1.4859,-1.4979,-1.5146,-1.524,-1.5231,-1.5378,-1.5478,-1.5438,-1.5193,-1.5068,-1.5213,-1.524,-1.5307,-1.5444,-1.5561,-1.5621,-1.5658,-1.5721,-1.5801,-1.5801,-1.5801,-1.5801,-1.5801,-1.5801,-1.5801,-1.5801,-1.5801,-1.5801,-1.5801,-1.5801,-1.5801,-1.5801,-1.5801,-1.5801,-1.5801,-1.5801,-1.5801,-1.5784,-1.5737,-1.5659,-1.5635,-1.5493,-1.5339,-1.5339,-1.51,-1.4957,-1.4933,-1.4718,-1.4472,-1.431,-1.4027,-1.3738,-1.3298,-1.3104,-1.271,-2.5708,-2.5708,-2.5708,-2.5532,-2.5258,-2.4922,-2.4762,-2.4752,-2.4752,-2.4752,-2.4752,-2.4762,-2.4541,-2.4183,-2.4036,-2.3757,-2.3493,-2.3464,-2.3452,-2.3454,-2.3347,-2.332,-2.3279,-2.313,-2.3101,-2.3101,-2.3101,-2.285,-2.2397,-2.1941,-2.1454,-2.1064,-2.0997,-2.0532,-1.9693,-1.9587,-1.9112,-1.8156,-1.7858,-1.7492,-1.6931,-1.5995,-1.5391,-1.53,-1.4695,-1.435,-1.4329,-1.4344,-1.435,-1.4329,-1.435,-1.435,-1.435,-1.435,-1.4444,-1.4623,-1.4865,-1.5042,-1.5093,-1.5106,-1.514,-1.5227,-1.5404,-1.5518,-1.5551,-1.5688,-1.5795,-1.5761,-1.5444,-1.5317,-1.5464,-1.5495,-1.5588,-1.5775,-1.5801,-1.5801,-1.5795,-1.5801,-1.5801,-1.5801,-1.5801,-1.5801,-1.5801,-1.5801,-1.5801,-1.5801,-1.5801,-1.5801,-1.5801,-1.5801,-1.5801,-1.5801,-1.5801,-1.5801,-1.5801,-1.5801,-1.5801,-1.5801,-1.5778,-1.5778,-1.5801,-1.5659,-1.5594,-1.5547,-1.5333,-1.5213,-1.5196,-1.4999,-1.4742,-1.4646,-1.4382,-1.3979,-1.366,-1.3443,-1.3225,-2.5708,-2.5708,-2.5708,-2.5664,-2.5669,-2.5596,-2.562,-2.5562,-2.5577,-2.562,-2.5581,-2.5601,-2.5396,-2.4984,-2.46,-2.4352,-2.4313,-2.4297,-2.4264,-2.4215,-2.3926,-2.376,-2.373,-2.3305,-2.311,-2.3159,-2.3159,-2.2889,-2.2407,-2.1932,-2.1454,-2.1019,-2.0997,-2.0532,-1.9716,-1.9587,-1.9089,-1.821,-1.8048,-1.7809,-1.726,-1.6462,-1.5931,-1.5677,-1.52,-1.4928,-1.4941,-1.4955,-1.4926,-1.4961,-1.4934,-1.4941,-1.4955,-1.4955,-1.4961,-1.4966,-1.4992,-1.5149,-1.5337,-1.5371,-1.5471,-1.5688,-1.5728,-1.5775,-1.5741,-1.5775,-1.5801,-1.5801,-1.5741,-1.5728,-1.5748,-1.5735,-1.5755,-1.5788,-1.5801,-1.5801,-1.5801,-1.5801,-1.5801,-1.5801,-1.5801,-1.5801,-1.5801,-1.5801,-1.5801,-1.5801,-1.5801,-1.5801,-1.5801,-1.5801,-1.5801,-1.5801,-1.5801,-1.5801,-1.5801,-1.5801,-1.5801,-1.5801,-1.5801,-1.5801,-1.5801,-1.5801,-1.5784,-1.5761,-1.5571,-1.5475,-1.5428,-1.5261,-1.5005,-1.4838,-1.4712,-1.4376,-1.407,-1.3931,-1.3666,-2.5708,-2.5708,-2.5708,-2.5708,-2.5708,-2.5708,-2.5708,-2.5708,-2.5708,-2.5708,-2.5708,-2.5708,-2.563,-2.5488,-2.5308,-2.4928,-2.4453,-2.4424,-2.4424,-2.4381,-2.4235,-2.4189,-2.418,-2.3991,-2.3776,-2.3562,-2.3555,-2.3142,-2.2416,-2.1932,-2.1463,-2.1087,-2.0997,-2.051,-1.9762,-1.9587,-1.9097,-1.8203,-1.8087,-1.7846,-1.7302,-1.6727,-1.6357,-1.6246,-1.5445,-1.5015,-1.5015,-1.5015,-1.5015,-1.5015,-1.5015,-1.5015,-1.5028,-1.5166,-1.526,-1.528,-1.5411,-1.5565,-1.5635,-1.5648,-1.5688,-1.5781,-1.5801,-1.5801,-1.5801,-1.5801,-1.5801,-1.5801,-1.5801,-1.5801,-1.5801,-1.5801,-1.5801,-1.5801,-1.5801,-1.5801,-1.5801,-1.5801,-1.5801,-1.5801,-1.5801,-1.5801,-1.5801,-1.5801,-1.5801,-1.5801,-1.5801,-1.5801,-1.5801,-1.5801,-1.5801,-1.5801,-1.5801,-1.5801,-1.5801,-1.5801,-1.5801,-1.5801,-1.5801,-1.5801,-1.5801,-1.5801,-1.5808,-1.5808,-1.5689,-1.5666,-1.5611,-1.5493,-1.5237,-1.5029,-1.4903,-1.4736,-1.4472,-1.4214,-1.3931,-2.5708,-2.5708,-2.5708,-2.5708,-2.5708,-2.5708,-2.5708,-2.5708,-2.5708,-2.5708,-2.5708,-2.5708,-2.5708,-2.5708,-2.5708,-2.5391,-2.4836,-2.482,-2.482,-2.4824,-2.4697,-2.4629,-2.46,-2.4482,-2.4277,-2.401,-2.3835,-2.3364,-2.2643,-2.2126,-2.1581,-2.1019,-2.0997,-2.0541,-1.9762,-1.9587,-1.9089,-1.8295,-1.8087,-1.7846,-1.7309,-1.684,-1.6612,-1.6485,-1.5722,-1.5267,-1.5267,-1.5267,-1.5244,-1.5237,-1.526,-1.5267,-1.5271,-1.5431,-1.5515,-1.5535,-1.5688,-1.5801,-1.5801,-1.5801,-1.5801,-1.5801,-1.5801,-1.5801,-1.5801,-1.5801,-1.5801,-1.5801,-1.5801,-1.5801,-1.5801,-1.5801,-1.5801,-1.5801,-1.5801,-1.5801,-1.5801,-1.5801,-1.5801,-1.5801,-1.5801,-1.5801,-1.5801,-1.5801,-1.5801,-1.5801,-1.5801,-1.5801,-1.5801,-1.5801,-1.5801,-1.5801,-1.5801,-1.5801,-1.5801,-1.5801,-1.5801,-1.5801,-1.5801,-1.5801,-1.5801,-1.5801,-1.5801,-1.5801,-1.5801,-1.5801,-1.5754,-1.5659,-1.5475,-1.5267,-1.5148,-1.5022,-1.4736,-1.4406,-1.4142,-2.5718,-2.5684,-2.5708,-2.5708,-2.5708,-2.5708,-2.5708,-2.5708,-2.5708,-2.5708,-2.5708,-2.5708,-2.5708,-2.5708,-2.5708,-2.5654,-2.5577,-2.5562,-2.5571,-2.5542,-2.5244,-2.5102,-2.5072,-2.4727,-2.4498,-2.4378,-2.3919,-2.3491,-2.3085,-2.2556,-2.1903,-2.1194,-2.1068,-2.061,-1.9627,-1.9589,-1.912,-1.8319,-1.8087,-1.7846,-1.7309,-1.684,-1.6612,-1.6541,-1.6038,-1.5735,-1.5755,-1.5755,-1.5728,-1.5748,-1.5755,-1.5788,-1.5728,-1.5761,-1.5788,-1.5768,-1.5801,-1.5801,-1.5801,-1.5801,-1.5801,-1.5801,-1.5801,-1.5801,-1.5801,-1.5801,-1.5801,-1.5801,-1.5801,-1.5801,-1.5801,-1.5801,-1.5801,-1.5801,-1.5801,-1.5801,-1.5801,-1.5801,-1.5801,-1.5801,-1.5801,-1.5801,-1.5801,-1.5801,-1.5801,-1.5801,-1.5801,-1.5801,-1.5801,-1.5801,-1.5801,-1.5801,-1.5801,-1.5801,-1.5801,-1.5801,-1.5801,-1.5801,-1.5801,-1.5801,-1.5801,-1.5801,-1.5801,-1.5801,-1.5801,-1.5801,-1.5801,-1.5706,-1.5666,-1.5499,-1.5404,-1.5285,-1.5022,-1.4712,-1.4406,-2.6006,-2.5718,-2.5708,-2.5708,-2.5708,-2.5708,-2.5708,-2.5708,-2.5708,-2.5708,-2.5708,-2.5708,-2.5708,-2.5708,-2.5708,-2.5708,-2.5708,-2.5708,-2.5708,-2.5689,-2.5552,-2.5484,-2.5464,-2.5347,-2.5142,-2.4793,-2.4072,-2.3648,-2.3442,-2.2991,-2.2387,-2.1879,-2.1529,-2.0885,-1.9972,-1.9696,-1.9112,-1.8226,-1.8087,-1.7823,-1.7302,-1.684,-1.6612,-1.6541,-1.6086,-1.5801,-1.5801,-1.5801,-1.5801,-1.5801,-1.5801,-1.5801,-1.5801,-1.5801,-1.5801,-1.5801,-1.5801,-1.5801,-1.5801,-1.5801,-1.5801,-1.5801,-1.5801,-1.5801,-1.5801,-1.5801,-1.5801,-1.5801,-1.5801,-1.5801,-1.5801,-1.5801,-1.5801,-1.5801,-1.5801,-1.5801,-1.5801,-1.5801,-1.5801,-1.5801,-1.5801,-1.5801,-1.5801,-1.5801,-1.5801,-1.5801,-1.5801,-1.5801,-1.5801,-1.5801,-1.5801,-1.5801,-1.5801,-1.5801,-1.5801,-1.5801,-1.5801,-1.5801,-1.5801,-1.5801,-1.5801,-1.5801,-1.5801,-1.5801,-1.5801,-1.5801,-1.5801,-1.5778,-1.5737,-1.5689,-1.5571,-1.5397,-1.5255,-1.4992,-1.4712,-2.623,-2.5942,-2.5776,-2.5708,-2.5708,-2.5708,-2.5708,-2.5708,-2.5708,-2.5708,-2.5708,-2.5708,-2.5708,-2.5708,-2.5708,-2.5708,-2.5708,-2.5708,-2.5708,-2.5708,-2.5708,-2.5708,-2.5708,-2.5708,-2.5591,-2.5236,-2.4517,-2.4061,-2.3895,-2.3375,-2.2827,-2.2236,-2.1952,-2.1321,-2.0391,-1.9967,-1.9282,-1.8426,-1.8179,-1.7846,-1.7333,-1.684,-1.6612,-1.6518,-1.6092,-1.5825,-1.5801,-1.5801,-1.5801,-1.5801,-1.5801,-1.5801,-1.5801,-1.5801,-1.5801,-1.5801,-1.5801,-1.5801,-1.5801,-1.5801,-1.5801,-1.5801,-1.5801,-1.5801,-1.5801,-1.5801,-1.5801,-1.5801,-1.5801,-1.5801,-1.5801,-1.5801,-1.5801,-1.5801,-1.5801,-1.5801,-1.5801,-1.5801,-1.5801,-1.5801,-1.5801,-1.5801,-1.5801,-1.5801,-1.5801,-1.5801,-1.5801,-1.5801,-1.5801,-1.5801,-1.5801,-1.5801,-1.5801,-1.5801,-1.5801,-1.5801,-1.5801,-1.5801,-1.5801,-1.5801,-1.5801,-1.5801,-1.5801,-1.5801,-1.5801,-1.5801,-1.5801,-1.5801,-1.5778,-1.573,-1.5683,-1.5564,-1.5421,-1.5278,-1.5022,-2.648,-2.6377,-2.5962,-2.5845,-2.5845,-2.5806,-2.5796,-2.5767,-2.5718,-2.5708,-2.5708,-2.5708,-2.5708,-2.5708,-2.5708,-2.5708,-2.5708,-2.5708,-2.5708,-2.5708,-2.5708,-2.5708,-2.5708,-2.5708,-2.5654,-2.5504,-2.5061,-2.4637,-2.4244,-2.3743,-2.3094,-2.2425,-2.2202,-2.1711,-2.0804,-2.0322,-1.9588,-1.8649,-1.8301,-1.7883,-1.7301,-1.684,-1.6565,-1.6541,-1.6092,-1.5801,-1.5801,-1.5801,-1.5801,-1.5801,-1.5801,-1.5801,-1.5801,-1.5801,-1.5801,-1.5801,-1.5801,-1.5801,-1.5801,-1.5801,-1.5801,-1.5801,-1.5801,-1.5801,-1.5801,-1.5801,-1.5801,-1.5801,-1.5801,-1.5801,-1.5801,-1.5801,-1.5801,-1.5801,-1.5801,-1.5801,-1.5801,-1.5801,-1.5801,-1.5801,-1.5801,-1.5801,-1.5801,-1.5801,-1.5801,-1.5801,-1.5801,-1.5801,-1.5801,-1.5801,-1.5801,-1.5801,-1.5801,-1.5801,-1.5801,-1.5801,-1.5801,-1.5801,-1.5801,-1.5801,-1.5801,-1.5801,-1.5801,-1.5801,-1.5801,-1.5801,-1.5801,-1.5801,-1.5801,-1.5778,-1.573,-1.5683,-1.5588,-1.5445,-1.5302,-2.7164,-2.6846,-2.6703,-2.6654,-2.6606,-2.6357,-2.6221,-2.6172,-2.5854,-2.5776,-2.5728,-2.5708,-2.5757,-2.5718,-2.5713,-2.5708,-2.5757,-2.5723,-2.5708,-2.5708,-2.5708,-2.5708,-2.5708,-2.5684,-2.5586,-2.5391,-2.5079,-2.4752,-2.4438,-2.3935,-2.3487,-2.3061,-2.236,-2.176,-2.1064,-2.0467,-1.9654,-1.8748,-1.8553,-1.8,-1.7173,-1.6791,-1.6494,-1.6289,-1.5974,-1.5825,-1.5801,-1.5801,-1.5801,-1.5801,-1.5801,-1.5801,-1.5801,-1.5801,-1.5801,-1.5801,-1.5801,-1.5801,-1.5801,-1.5801,-1.5801,-1.5801,-1.5801,-1.5801,-1.5801,-1.5801,-1.5801,-1.5801,-1.5801,-1.5801,-1.5801,-1.5801,-1.5801,-1.5801,-1.5801,-1.5801,-1.5801,-1.5801,-1.5801,-1.5801,-1.5801,-1.5801,-1.5801,-1.5801,-1.5801,-1.5801,-1.5801,-1.5801,-1.5801,-1.5801,-1.5801,-1.5801,-1.5801,-1.5801,-1.5801,-1.5801,-1.5801,-1.5801,-1.5801,-1.5801,-1.5801,-1.5801,-1.5801,-1.5801,-1.5801,-1.5801,-1.5801,-1.5801,-1.5801,-1.5801,-1.5778,-1.573,-1.5689,-1.5594,-1.5493,-2.7545,-2.7266,-2.709,-2.7012,-2.6967,-2.6748,-2.666,-2.6602,-2.6371,-2.6254,-2.6245,-2.6245,-2.6245,-2.6254,-2.6254,-2.623,-2.6245,-2.623,-2.6157,-2.5952,-2.5806,-2.5718,-2.5708,-2.5684,-2.5562,-2.5318,-2.503,-2.475,-2.4455,-2.4019,-2.3671,-2.3294,-2.2604,-2.1944,-2.1403,-2.0637,-1.9888,-1.9131,-1.8791,-1.8171,-1.7249,-1.6927,-1.6599,-1.6259,-1.5957,-1.5801,-1.5801,-1.5801,-1.5801,-1.5801,-1.5801,-1.5801,-1.5801,-1.5801,-1.5801,-1.5801,-1.5801,-1.5801,-1.5801,-1.5801,-1.5801,-1.5801,-1.5801,-1.5801,-1.5801,-1.5801,-1.5801,-1.5801,-1.5801,-1.5801,-1.5801,-1.5801,-1.5801,-1.5801,-1.5801,-1.5801,-1.5801,-1.5801,-1.5801,-1.5801,-1.5801,-1.5801,-1.5801,-1.5801,-1.5801,-1.5801,-1.5801,-1.5801,-1.5801,-1.5801,-1.5801,-1.5801,-1.5801,-1.5801,-1.5801,-1.5801,-1.5801,-1.5801,-1.5801,-1.5801,-1.5801,-1.5801,-1.5801,-1.5801,-1.5801,-1.5801,-1.5801,-1.5801,-1.5801,-1.5801,-1.5801,-1.5801,-1.5761,-1.5713,-1.5611,-2.7761,-2.7721,-2.7314,-2.7123,-2.7178,-2.71,-2.708,-2.708,-2.6963,-2.6908,-2.6934,-2.6982,-2.6885,-2.7012,-2.6846,-2.6963,-2.6973,-2.685,-2.6703,-2.6411,-2.6137,-2.5962,-2.5981,-2.5776,-2.5523,-2.5245,-2.499,-2.4735,-2.439,-2.3969,-2.3646,-2.3263,-2.2736,-2.219,-2.1567,-2.0827,-2.0155,-1.9548,-1.9029,-1.8326,-1.753,-1.715,-1.6769,-1.6276,-1.594,-1.5808,-1.5801,-1.5801,-1.5801,-1.5801,-1.5801,-1.5801,-1.5801,-1.5801,-1.5801,-1.5801,-1.5801,-1.5801,-1.5801,-1.5801,-1.5801,-1.5801,-1.5801,-1.5801,-1.5801,-1.5801,-1.5801,-1.5801,-1.5801,-1.5801,-1.5801,-1.5801,-1.5801,-1.5801,-1.5801,-1.5801,-1.5801,-1.5801,-1.5801,-1.5801,-1.5801,-1.5801,-1.5801,-1.5801,-1.5801,-1.5801,-1.5801,-1.5801,-1.5801,-1.5801,-1.5801,-1.5801,-1.5801,-1.5801,-1.5801,-1.5801,-1.5801,-1.5801,-1.5801,-1.5801,-1.5801,-1.5801,-1.5801,-1.5801,-1.5801,-1.5801,-1.5801,-1.5801,-1.5801,-1.5801,-1.5801,-1.5801,-1.5801,-1.5778,-1.5706,-2.8164,-2.8154,-2.8083,-2.8018,-2.7959,-2.7676,-2.7555,-2.7526,-2.7168,-2.709,-2.7031,-2.7031,-2.7051,-2.7041,-2.709,-2.7012,-2.708,-2.707,-2.6943,-2.6869,-2.6816,-2.6738,-2.6547,-2.6098,-2.5469,-2.5117,-2.4941,-2.4686,-2.4267,-2.3795,-2.3472,-2.3297,-2.2459,-2.1827,-2.1616,-2.0872,-2.018,-1.9651,-1.927,-1.8543,-1.7669,-1.7278,-1.6888,-1.6315,-1.5983,-1.5815,-1.5801,-1.5801,-1.5801,-1.5801,-1.5801,-1.5801,-1.5801,-1.5801,-1.5801,-1.5801,-1.5801,-1.5801,-1.5801,-1.5801,-1.5801,-1.5801,-1.5801,-1.5801,-1.5801,-1.5801,-1.5801,-1.5801,-1.5801,-1.5801,-1.5801,-1.5801,-1.5801,-1.5801,-1.5801,-1.5801,-1.5801,-1.5801,-1.5801,-1.5801,-1.5801,-1.5801,-1.5801,-1.5801,-1.5801,-1.5801,-1.5801,-1.5801,-1.5801,-1.5801,-1.5801,-1.5801,-1.5801,-1.5801,-1.5801,-1.5801,-1.5801,-1.5801,-1.5801,-1.5801,-1.5801,-1.5801,-1.5801,-1.5801,-1.5801,-1.5801,-1.5801,-1.5801,-1.5801,-1.5801,-1.5801,-1.5801,-1.5801,-1.5801,-1.5861,-2.8301,-2.8301,-2.8301,-2.8301,-2.8262,-2.8083,-2.7985,-2.7946,-2.7751,-2.7607,-2.7617,-2.7617,-2.7617,-2.7607,-2.7617,-2.7627,-2.7559,-2.7393,-2.7324,-2.7266,-2.7139,-2.7002,-2.6922,-2.6406,-2.5818,-2.5269,-2.4992,-2.4655,-2.4168,-2.3714,-2.3431,-2.3297,-2.2249,-2.1776,-2.1547,-2.0789,-2.0207,-1.9836,-1.9418,-1.8753,-1.7862,-1.76,-1.706,-1.6466,-1.6112,-1.5992,-1.5821,-1.5801,-1.5801,-1.5801,-1.5801,-1.5801,-1.5801,-1.5801,-1.5801,-1.5801,-1.5801,-1.5801,-1.5801,-1.5801,-1.5801,-1.5801,-1.5801,-1.5801,-1.5801,-1.5801,-1.5801,-1.5801,-1.5801,-1.5801,-1.5801,-1.5801,-1.5801,-1.5801,-1.5801,-1.5801,-1.5801,-1.5801,-1.5801,-1.5801,-1.5801,-1.5801,-1.5801,-1.5801,-1.5801,-1.5801,-1.5801,-1.5801,-1.5801,-1.5801,-1.5801,-1.5801,-1.5801,-1.5801,-1.5801,-1.5801,-1.5801,-1.5801,-1.5801,-1.5801,-1.5801,-1.5801,-1.5801,-1.5801,-1.5801,-1.5801,-1.5801,-1.5801,-1.5801,-1.5801,-1.5801,-1.5801,-1.5808,-1.5821,-1.5959,-2.8301,-2.8301,-2.8301,-2.8301,-2.8301,-2.8281,-2.8271,-2.8281,-2.8301,-2.8184,-2.8281,-2.8301,-2.8174,-2.8252,-2.8232,-2.8281,-2.8174,-2.7976,-2.779,-2.7741,-2.749,-2.7373,-2.7208,-2.6862,-2.6385,-2.5768,-2.534,-2.4833,-2.4258,-2.3745,-2.3428,-2.3123,-2.2257,-2.1649,-2.1369,-2.067,-2.0063,-1.9904,-1.942,-1.8874,-1.8128,-1.7921,-1.7312,-1.659,-1.6284,-1.6146,-1.5965,-1.5855,-1.5801,-1.5801,-1.5801,-1.5801,-1.5801,-1.5801,-1.5801,-1.5801,-1.5801,-1.5801,-1.5801,-1.5801,-1.5801,-1.5801,-1.5801,-1.5801,-1.5801,-1.5801,-1.5801,-1.5801,-1.5801,-1.5801,-1.5801,-1.5801,-1.5801,-1.5801,-1.5801,-1.5801,-1.5801,-1.5801,-1.5801,-1.5801,-1.5801,-1.5801,-1.5801,-1.5801,-1.5801,-1.5801,-1.5801,-1.5801,-1.5801,-1.5801,-1.5801,-1.5801,-1.5801,-1.5801,-1.5801,-1.5801,-1.5801,-1.5801,-1.5801,-1.5801,-1.5801,-1.5801,-1.5801,-1.5801,-1.5801,-1.5801,-1.5801,-1.5801,-1.5801,-1.5801,-1.5801,-1.5801,-1.5821,-1.5841,-1.6039,-2.8301,-2.8301,-2.8301,-2.8301,-2.8301,-2.8301,-2.8301,-2.8301,-2.8301,-2.8301,-2.8301,-2.8301,-2.8301,-2.8301,-2.8301,-2.8301,-2.8262,-2.8154,-2.8135,-2.8144,-2.7998,-2.7969,-2.7775,-2.7306,-2.6881,-2.6532,-2.5959,-2.5228,-2.4501,-2.4047,-2.3515,-2.2747,-2.2063,-2.158,-2.1045,-2.0421,-2.0001,-1.9776,-1.9298,-1.8753,-1.8341,-1.7876,-1.7423,-1.6685,-1.6498,-1.6317,-1.6152,-1.5959,-1.5801,-1.5801,-1.5801,-1.5801,-1.5801,-1.5801,-1.5801,-1.5801,-1.5801,-1.5801,-1.5801,-1.5801,-1.5801,-1.5801,-1.5801,-1.5801,-1.5801,-1.5801,-1.5801,-1.5801,-1.5801,-1.5801,-1.5801,-1.5801,-1.5801,-1.5801,-1.5801,-1.5801,-1.5801,-1.5801,-1.5801,-1.5801,-1.5801,-1.5801,-1.5801,-1.5801,-1.5801,-1.5801,-1.5801,-1.5801,-1.5801,-1.5801,-1.5801,-1.5801,-1.5801,-1.5801,-1.5801,-1.5801,-1.5801,-1.5801,-1.5801,-1.5801,-1.5801,-1.5801,-1.5801,-1.5801,-1.5801,-1.5801,-1.5801,-1.5808,-1.5801,-1.5801,-1.5801,-1.5821,-1.5915,-1.6021,-1.6226,-2.8301,-2.8301,-2.8301,-2.8301,-2.8301,-2.8301,-2.8301,-2.8301,-2.8301,-2.8301,-2.8301,-2.8301,-2.8301,-2.8301,-2.8301,-2.8301,-2.8301,-2.8301,-2.8301,-2.8301,-2.8301,-2.8211,-2.8067,-2.7559,-2.7201,-2.6841,-2.637,-2.5637,-2.4711,-2.4398,-2.3703,-2.2903,-2.2271,-2.1649,-2.0956,-2.037,-1.9983,-1.9654,-1.9175,-1.8731,-1.8377,-1.7872,-1.7383,-1.705,-1.6805,-1.6636,-1.6297,-1.6197,-1.5979,-1.5841,-1.5801,-1.5801,-1.5808,-1.5801,-1.5801,-1.5801,-1.5801,-1.5801,-1.5801,-1.5801,-1.5801,-1.5801,-1.5801,-1.5801,-1.5801,-1.5801,-1.5808,-1.5815,-1.5801,-1.5801,-1.5801,-1.5821,-1.5801,-1.5801,-1.5821,-1.5828,-1.5815,-1.5821,-1.5841,-1.5861,-1.5848,-1.5848,-1.5801,-1.5801,-1.5801,-1.5801,-1.5801,-1.5801,-1.5801,-1.5801,-1.5801,-1.5801,-1.5801,-1.5801,-1.5801,-1.5801,-1.5801,-1.5801,-1.5801,-1.5801,-1.5801,-1.5801,-1.5801,-1.5801,-1.5801,-1.5855,-1.5815,-1.5821,-1.5815,-1.5848,-1.5992,-1.6092,-1.6146,-1.6253,-1.6478,-2.8301,-2.8301,-2.8301,-2.8301,-2.8301,-2.8301,-2.8301,-2.8301,-2.8301,-2.8301,-2.8301,-2.8301,-2.8301,-2.8301,-2.8301,-2.8301,-2.8301,-2.8301,-2.8301,-2.8301,-2.8301,-2.8157,-2.7879,-2.7584,-2.7249,-2.6932,-2.6526,-2.5946,-2.5057,-2.4712,-2.4036,-2.3124,-2.2501,-2.1799,-2.0918,-2.0354,-1.9987,-1.9524,-1.9089,-1.8646,-1.8213,-1.7832,-1.7515,-1.7293,-1.7233,-1.6958,-1.6616,-1.6438,-1.6273,-1.6106,-1.5968,-1.5932,-1.5912,-1.5841,-1.5808,-1.5801,-1.5801,-1.5801,-1.5801,-1.5801,-1.5801,-1.5801,-1.5801,-1.5801,-1.5801,-1.5815,-1.5835,-1.5875,-1.5932,-1.5975,-1.6048,-1.6008,-1.6015,-1.6028,-1.6035,-1.6001,-1.6055,-1.6082,-1.6108,-1.6075,-1.5975,-1.5908,-1.5888,-1.5801,-1.5801,-1.5801,-1.5801,-1.5801,-1.5801,-1.5801,-1.5801,-1.5801,-1.5801,-1.5801,-1.5801,-1.5801,-1.5801,-1.5801,-1.5801,-1.5801,-1.5801,-1.5801,-1.5835,-1.5939,-1.5972,-1.6012,-1.5915,-1.5928,-1.6028,-1.6159,-1.6266,-1.6346,-1.64,-1.6567,-1.6812,-2.8301,-2.8301,-2.8301,-2.8301,-2.8301,-2.8301,-2.8301,-2.8301,-2.8301,-2.8301,-2.8301,-2.8301,-2.8301,-2.8301,-2.8301,-2.8301,-2.8301,-2.8301,-2.8301,-2.8301,-2.8264,-2.813,-2.7879,-2.753,-2.7206,-2.6908,-2.6427,-2.5775,-2.521,-2.504,-2.4241,-2.3101,-2.2483,-2.1766,-2.08,-2.0344,-1.9843,-1.9338,-1.8776,-1.8239,-1.7786,-1.7635,-1.7575,-1.7488,-1.736,-1.7172,-1.6985,-1.6785,-1.66,-1.654,-1.6326,-1.6257,-1.6203,-1.5952,-1.5828,-1.5801,-1.5801,-1.5808,-1.5835,-1.5895,-1.5915,-1.5928,-1.5888,-1.5821,-1.5895,-1.5921,-1.5995,-1.623,-1.625,-1.6306,-1.6422,-1.6522,-1.6562,-1.6515,-1.6448,-1.6475,-1.6502,-1.6335,-1.6368,-1.6402,-1.6335,-1.6122,-1.5995,-1.5888,-1.5801,-1.5801,-1.5801,-1.5808,-1.5801,-1.5801,-1.5801,-1.5801,-1.5801,-1.5801,-1.5801,-1.5801,-1.5821,-1.5815,-1.5892,-1.5899,-1.5945,-1.5999,-1.6072,-1.6139,-1.6179,-1.6266,-1.6313,-1.6353,-1.638,-1.6446,-1.6553,-1.6613,-1.6653,-1.6892,-1.7159,-2.8301,-2.8301,-2.8301,-2.8301,-2.8301,-2.8301,-2.8301,-2.8301,-2.8301,-2.8301,-2.8301,-2.8301,-2.8301,-2.8301,-2.8301,-2.8301,-2.8301,-2.8301,-2.8301,-2.8237,-2.8157,-2.7906,-2.762,-2.7323,-2.7043,-2.67,-2.6309,-2.5945,-2.5448,-2.4969,-2.4277,-2.3288,-2.2605,-2.1907,-2.0926,-2.0378,-1.9869,-1.9261,-1.8601,-1.799,-1.772,-1.7615,-1.7615,-1.7608,-1.7501,-1.7367,-1.7206,-1.7073,-1.6854,-1.6747,-1.6547,-1.652,-1.65,-1.6406,-1.6308,-1.6333,-1.6333,-1.6259,-1.6132,-1.6208,-1.6242,-1.6288,-1.6288,-1.6322,-1.6295,-1.6282,-1.6308,-1.65,-1.652,-1.66,-1.6662,-1.67,-1.6707,-1.6714,-1.6794,-1.6774,-1.6767,-1.6714,-1.6647,-1.6687,-1.6714,-1.6533,-1.6353,-1.6226,-1.6146,-1.6079,-1.5981,-1.5895,-1.5855,-1.5801,-1.5801,-1.5801,-1.5801,-1.5801,-1.5801,-1.5801,-1.5855,-1.5919,-1.613,-1.6143,-1.6183,-1.6237,-1.6337,-1.6413,-1.6493,-1.6587,-1.6712,-1.6685,-1.6613,-1.6714,-1.684,-1.6901,-1.6974,-1.7168,-1.7401,-2.8301,-2.8301,-2.8301,-2.8301,-2.8301,-2.8301,-2.8301,-2.8301,-2.8301,-2.8301,-2.8301,-2.8301,-2.8301,-2.8301,-2.8301,-2.8301,-2.8301,-2.8301,-2.8301,-2.8211,-2.8023,-2.7745,-2.7449,-2.7152,-2.6836,-2.6482,-2.6136,-2.5743,-2.5303,-2.4827,-2.4174,-2.3508,-2.2799,-2.2076,-2.1282,-2.0607,-1.9969,-1.9149,-1.8411,-1.7918,-1.7661,-1.7615,-1.7615,-1.7615,-1.7588,-1.7508,-1.7321,-1.728,-1.7147,-1.7014,-1.686,-1.682,-1.6826,-1.6693,-1.6627,-1.6647,-1.668,-1.6732,-1.6593,-1.6607,-1.6693,-1.6707,-1.6707,-1.6595,-1.6647,-1.6707,-1.6774,-1.68,-1.6839,-1.6854,-1.6914,-1.6961,-1.7001,-1.7021,-1.7001,-1.6947,-1.6927,-1.6967,-1.7021,-1.7088,-1.7108,-1.7041,-1.6854,-1.6678,-1.6531,-1.6373,-1.6219,-1.6028,-1.5995,-1.5981,-1.6041,-1.6102,-1.6115,-1.6122,-1.6102,-1.6061,-1.6021,-1.6059,-1.627,-1.6384,-1.6438,-1.6531,-1.6613,-1.6707,-1.68,-1.6979,-1.7113,-1.6986,-1.6879,-1.7041,-1.7201,-1.7254,-1.7347,-1.7515,-1.7555,-2.8301,-2.8301,-2.8301,-2.8301,-2.8301,-2.8301,-2.8301,-2.8301,-2.8301,-2.8301,-2.8301,-2.8301,-2.8301,-2.8301,-2.8301,-2.8301,-2.8301,-2.8301,-2.8264,-2.8184,-2.8014,-2.7664,-2.7341,-2.7016,-2.6691,-2.6209,-2.5907,-2.5459,-2.487,-2.4415,-2.4036,-2.3743,-2.2835,-2.2178,-2.1475,-2.0773,-1.9895,-1.9088,-1.8314,-1.7866,-1.7674,-1.7615,-1.7615,-1.7615,-1.7615,-1.7595,-1.7575,-1.7541,-1.7508,-1.7421,-1.7254,-1.7147,-1.7107,-1.6947,-1.6867,-1.6894,-1.7046,-1.7112,-1.706,-1.6894,-1.6747,-1.6727,-1.676,-1.6834,-1.6867,-1.6767,-1.6847,-1.7107,-1.714,-1.7247,-1.7368,-1.7508,-1.7401,-1.7367,-1.7295,-1.7301,-1.7334,-1.7388,-1.7448,-1.7521,-1.7481,-1.7361,-1.7281,-1.7086,-1.6872,-1.6732,-1.6533,-1.6342,-1.6402,-1.6415,-1.6475,-1.6553,-1.658,-1.6593,-1.66,-1.654,-1.6382,-1.642,-1.6591,-1.6665,-1.6687,-1.6794,-1.6967,-1.7053,-1.716,-1.7334,-1.7441,-1.7274,-1.7234,-1.7428,-1.7528,-1.7488,-1.7468,-1.7561,-1.7575,-2.8301,-2.8301,-2.8301,-2.8301,-2.8301,-2.8301,-2.8301,-2.8301,-2.8301,-2.8301,-2.8301,-2.8301,-2.8301,-2.8301,-2.8301,-2.8301,-2.8301,-2.8301,-2.8211,-2.7996,-2.7755,-2.7449,-2.7134,-2.6863,-2.6509,-2.6099,-2.5798,-2.5404,-2.4814,-2.4164,-2.3661,-2.3231,-2.2615,-2.2278,-2.1663,-2.0751,-1.9759,-1.903,-1.8352,-1.7876,-1.7655,-1.7615,-1.7615,-1.7615,-1.7615,-1.7615,-1.7608,-1.7608,-1.7615,-1.7582,-1.7488,-1.7441,-1.7408,-1.7274,-1.7201,-1.7194,-1.7361,-1.7401,-1.7447,-1.7314,-1.7274,-1.7267,-1.7274,-1.7247,-1.7181,-1.7228,-1.7301,-1.7414,-1.7428,-1.7495,-1.7555,-1.7602,-1.7575,-1.7602,-1.7615,-1.7615,-1.7615,-1.7615,-1.7608,-1.7588,-1.7588,-1.7548,-1.7521,-1.7455,-1.726,-1.7053,-1.6854,-1.6727,-1.6787,-1.6807,-1.6847,-1.686,-1.6867,-1.6834,-1.6834,-1.678,-1.6727,-1.6807,-1.6913,-1.6959,-1.7001,-1.724,-1.7388,-1.746,-1.744,-1.7495,-1.7521,-1.7495,-1.7515,-1.7582,-1.7608,-1.7588,-1.7602,-1.7615,-1.7536,-2.8301,-2.8301,-2.8301,-2.8301,-2.8301,-2.8301,-2.8301,-2.8301,-2.8301,-2.8301,-2.8301,-2.8301,-2.8301,-2.8301,-2.8301,-2.8301,-2.8301,-2.8264,-2.8121,-2.7879,-2.7593,-2.726,-2.6971,-2.6618,-2.6263,-2.5962,-2.5541,-2.5091,-2.4462,-2.3996,-2.3472,-2.2937,-2.2392,-2.2121,-2.1648,-2.0606,-1.9549,-1.9023,-1.8381,-1.7949,-1.7742,-1.7655,-1.7615,-1.7615,-1.7615,-1.7615,-1.7615,-1.7615,-1.7615,-1.7615,-1.7595,-1.7602,-1.7608,-1.7615,-1.7615,-1.7615,-1.7615,-1.7615,-1.7615,-1.7608,-1.7608,-1.7535,-1.7548,-1.7568,-1.7615,-1.7615,-1.7548,-1.7568,-1.7595,-1.7615,-1.7615,-1.7615,-1.7615,-1.7615,-1.7615,-1.7615,-1.7615,-1.7615,-1.7615,-1.7608,-1.7615,-1.7615,-1.7602,-1.7568,-1.7488,-1.7327,-1.7267,-1.7134,-1.7128,-1.7134,-1.7108,-1.7108,-1.7101,-1.7048,-1.6987,-1.7054,-1.7121,-1.7161,-1.7254,-1.7274,-1.7374,-1.7548,-1.7608,-1.7548,-1.7548,-1.7602,-1.7588,-1.7548,-1.7568,-1.7608,-1.7615,-1.7615,-1.7615,-1.7589,-1.743,-2.8301,-2.8301,-2.8301,-2.8301,-2.8301,-2.8301,-2.8301,-2.8301,-2.8301,-2.8301,-2.8301,-2.8301,-2.8301,-2.8301,-2.8301,-2.8301,-2.8264,-2.8264,-2.8104,-2.7799,-2.7476,-2.7233,-2.6854,-2.6455,-2.6072,-2.5651,-2.5202,-2.4676,-2.3996,-2.3669,-2.3171,-2.2626,-2.2108,-2.1803,-2.1574,-2.0458,-1.9696,-1.9289,-1.8467,-1.815,-1.7909,-1.7749,-1.7675,-1.7615,-1.7615,-1.7615,-1.7615,-1.7615,-1.7615,-1.7615,-1.7615,-1.7615,-1.7615,-1.7615,-1.7615,-1.7615,-1.7615,-1.7615,-1.7615,-1.7615,-1.7615,-1.7615,-1.7615,-1.7615,-1.7615,-1.7615,-1.7615,-1.7615,-1.7615,-1.7615,-1.7615,-1.7615,-1.7615,-1.7615,-1.7615,-1.7615,-1.7615,-1.7615,-1.7615,-1.7615,-1.7615,-1.7615,-1.7615,-1.7608,-1.7608,-1.7568,-1.7595,-1.7555,-1.7448,-1.7395,-1.7361,-1.7347,-1.7308,-1.7315,-1.7301,-1.7461,-1.7541,-1.7568,-1.7535,-1.7495,-1.7501,-1.7575,-1.7608,-1.7615,-1.7615,-1.7615,-1.7615,-1.7608,-1.7615,-1.7615,-1.7615,-1.7615,-1.7615,-1.7536,-1.7351,-2.8301,-2.8301,-2.8301,-2.8301,-2.8301,-2.8301,-2.8301,-2.8301,-2.8301,-2.8301,-2.8301,-2.8301,-2.8301,-2.8301,-2.8301,-2.8291,-2.8264,-2.8067,-2.7879,-2.7557,-2.7287,-2.6999,-2.6655,-2.6291,-2.5926,-2.5596,-2.5091,-2.4454,-2.3921,-2.3444,-2.2853,-2.2286,-2.1645,-2.116,-2.0945,-2.0345,-1.9932,-1.9413,-1.8845,-1.8436,-1.8042,-1.7909,-1.7789,-1.7642,-1.7628,-1.7615,-1.7615,-1.7615,-1.7615,-1.7615,-1.7615,-1.7615,-1.7615,-1.7615,-1.7615,-1.7615,-1.7615,-1.7615,-1.7615,-1.7615,-1.7615,-1.7615,-1.7615,-1.7615,-1.7615,-1.7615,-1.7615,-1.7615,-1.7615,-1.7615,-1.7615,-1.7615,-1.7622,-1.7615,-1.7615,-1.7615,-1.7615,-1.7615,-1.7615,-1.7615,-1.7615,-1.7615,-1.7615,-1.7615,-1.7615,-1.7615,-1.7615,-1.7615,-1.7548,-1.7555,-1.7521,-1.7535,-1.7535,-1.7568,-1.7615,-1.7615,-1.7615,-1.7595,-1.7588,-1.7582,-1.7602,-1.7615,-1.7615,-1.7615,-1.7615,-1.7615,-1.7615,-1.7615,-1.7615,-1.7615,-1.7615,-1.7615,-1.7615,-1.743,-1.7166,-2.8301,-2.8301,-2.8301,-2.8301,-2.8301,-2.8301,-2.8301,-2.8301,-2.8301,-2.8301,-2.8301,-2.8301,-2.8301,-2.8301,-2.8301,-2.8301,-2.8264,-2.8014,-2.7718,-2.7404,-2.7125,-2.6781,-2.6436,-2.6108,-2.5679,-2.5348,-2.4787,-2.4156,-2.352,-2.3106,-2.257,-2.1909,-2.1124,-2.078,-2.0544,-2.0228,-1.987,-1.9399,-1.8981,-1.8696,-1.8355,-1.8115,-1.7916,-1.7782,-1.7675,-1.7615,-1.7615,-1.7615,-1.7615,-1.7615,-1.7615,-1.7615,-1.7615,-1.7615,-1.7615,-1.7615,-1.7615,-1.7615,-1.7615,-1.7615,-1.7615,-1.7615,-1.7615,-1.7615,-1.7615,-1.7615,-1.7615,-1.7615,-1.7635,-1.7642,-1.7655,-1.7662,-1.7742,-1.7749,-1.7862,-1.7876,-1.7762,-1.7776,-1.7709,-1.7695,-1.7675,-1.7655,-1.7635,-1.7615,-1.7615,-1.7615,-1.7615,-1.7615,-1.7615,-1.7615,-1.7615,-1.7615,-1.7615,-1.7615,-1.7615,-1.7615,-1.7615,-1.7615,-1.7615,-1.7615,-1.7615,-1.7615,-1.7615,-1.7615,-1.7615,-1.7615,-1.7615,-1.7615,-1.7615,-1.7615,-1.7615,-1.7615,-1.7615,-1.7371,-1.7079,-2.8301,-2.8301,-2.8301,-2.8301,-2.8301,-2.8301,-2.8301,-2.8301,-2.8301,-2.8301,-2.8301,-2.8301,-2.8301,-2.8301,-2.8301,-2.8301,-2.8184,-2.7996,-2.7701,-2.7377,-2.7053,-2.6618,-2.6209,-2.588,-2.5486,-2.4842,-2.4267,-2.3792,-2.307,-2.2626,-2.2173,-2.1596,-2.0924,-2.0551,-2.0241,-1.9953,-1.9679,-1.9376,-1.9169,-1.891,-1.8676,-1.8369,-1.8136,-1.7942,-1.7802,-1.7655,-1.7615,-1.7615,-1.7615,-1.7615,-1.7615,-1.7615,-1.7615,-1.7615,-1.7615,-1.7615,-1.7615,-1.7622,-1.7662,-1.7675,-1.7722,-1.7769,-1.7722,-1.7675,-1.7689,-1.7762,-1.7842,-1.7829,-1.7809,-1.7769,-1.7729,-1.7883,-1.8029,-1.8123,-1.8277,-1.8217,-1.8063,-1.7989,-1.7896,-1.7856,-1.7809,-1.7776,-1.7716,-1.7682,-1.7709,-1.7615,-1.7615,-1.7615,-1.7615,-1.7615,-1.7615,-1.7615,-1.7615,-1.7615,-1.7615,-1.7615,-1.7615,-1.7615,-1.7615,-1.7615,-1.7615,-1.7615,-1.7615,-1.7615,-1.7615,-1.7615,-1.7615,-1.7615,-1.7615,-1.7615,-1.7615,-1.7615,-1.7615,-1.735,-1.7116,-2.8301,-2.8301,-2.8301,-2.8301,-2.8301,-2.8301,-2.8301,-2.8301,-2.8301,-2.8301,-2.8301,-2.8301,-2.8301,-2.8301,-2.8301,-2.8301,-2.8104,-2.7835,-2.7557,-2.7269,-2.6926,-2.6491,-2.6127,-2.5761,-2.5321,-2.4768,-2.4156,-2.3548,-2.2929,-2.24,-2.1624,-2.0988,-2.0673,-2.0299,-1.9989,-1.9678,-1.9511,-1.9403,-1.9274,-1.9125,-1.8956,-1.8683,-1.8409,-1.8136,-1.7942,-1.7776,-1.7669,-1.7622,-1.7615,-1.7615,-1.7615,-1.7615,-1.7615,-1.7615,-1.7615,-1.7615,-1.7635,-1.7662,-1.7829,-1.7889,-1.7949,-1.8123,-1.819,-1.8049,-1.805,-1.8063,-1.817,-1.811,-1.809,-1.807,-1.8117,-1.8223,-1.8316,-1.8403,-1.8537,-1.8524,-1.8404,-1.8309,-1.8209,-1.815,-1.8097,-1.8003,-1.7949,-1.7896,-1.7923,-1.7709,-1.7635,-1.7668,-1.7628,-1.7635,-1.7615,-1.7615,-1.7615,-1.7615,-1.7615,-1.7615,-1.7615,-1.7615,-1.7615,-1.7615,-1.7615,-1.7615,-1.7615,-1.7615,-1.7615,-1.7615,-1.7615,-1.7615,-1.7615,-1.7595,-1.7602,-1.7622,-1.7563,-1.7336,-1.7181,-2.7891,-2.8027,-2.8064,-2.8135,-2.8281,-2.8301,-2.8301,-2.8301,-2.8301,-2.8301,-2.8301,-2.8301,-2.8301,-2.8301,-2.8301,-2.8291,-2.8264,-2.7728,-2.7404,-2.7269,-2.6727,-2.6272,-2.5935,-2.5624,-2.5064,-2.4545,-2.4016,-2.3436,-2.2703,-2.1945,-2.1196,-2.078,-2.0443,-2.0097,-1.9815,-1.9591,-1.9453,-1.9424,-1.9361,-1.9274,-1.9132,-1.8956,-1.8643,-1.8403,-1.8203,-1.7922,-1.7769,-1.7689,-1.7622,-1.7615,-1.7615,-1.7615,-1.7615,-1.7615,-1.7702,-1.7729,-1.7769,-1.7929,-1.8156,-1.8217,-1.833,-1.847,-1.8604,-1.8564,-1.8457,-1.843,-1.8437,-1.841,-1.8444,-1.8477,-1.8524,-1.8577,-1.8624,-1.8671,-1.8731,-1.8819,-1.8738,-1.8677,-1.8584,-1.849,-1.8417,-1.835,-1.8297,-1.8223,-1.8176,-1.8103,-1.8003,-1.7956,-1.7822,-1.7662,-1.7648,-1.7615,-1.7615,-1.7615,-1.7615,-1.7615,-1.7615,-1.7615,-1.7615,-1.7615,-1.7615,-1.7615,-1.7615,-1.7615,-1.7615,-1.7628,-1.7622,-1.7628,-1.7595,-1.7655,-1.7742,-1.7769,-1.7647,-1.7356,-1.7243,-2.7256,-2.7643,-2.7682,-2.7917,-2.8213,-2.8271,-2.8301,-2.8301,-2.8301,-2.8301,-2.8301,-2.8301,-2.8301,-2.8301,-2.8301,-2.8237,-2.8077,-2.7647,-2.7341,-2.7314,-2.6554,-2.6044,-2.5715,-2.5312,-2.4795,-2.4192,-2.3661,-2.3127,-2.2194,-2.1482,-2.0988,-2.0666,-2.0357,-2.0018,-1.9707,-1.9511,-1.9395,-1.9395,-1.9395,-1.9354,-1.9308,-1.9118,-1.8903,-1.8776,-1.8443,-1.8055,-1.7956,-1.7782,-1.7609,-1.7628,-1.7615,-1.7615,-1.7682,-1.7675,-1.7796,-1.7949,-1.8042,-1.8223,-1.843,-1.8517,-1.8571,-1.8684,-1.8804,-1.8891,-1.8865,-1.8791,-1.8778,-1.8764,-1.8798,-1.8798,-1.8831,-1.8891,-1.8945,-1.8985,-1.906,-1.9073,-1.9027,-1.8958,-1.8911,-1.8831,-1.8784,-1.8711,-1.8571,-1.8489,-1.8409,-1.8437,-1.8364,-1.8257,-1.8143,-1.7889,-1.7736,-1.7689,-1.7628,-1.7628,-1.7615,-1.7615,-1.7615,-1.7615,-1.7615,-1.7615,-1.7615,-1.7615,-1.7615,-1.7615,-1.7615,-1.7642,-1.7662,-1.7695,-1.7809,-1.7969,-1.8014,-1.7984,-1.7797,-1.7474,-1.7348,-2.707,-2.7207,-2.7555,-2.7761,-2.7888,-2.8164,-2.8291,-2.8301,-2.8301,-2.8301,-2.8301,-2.8301,-2.8301,-2.8301,-2.8301,-2.8211,-2.7933,-2.7611,-2.7314,-2.6962,-2.6364,-2.5926,-2.5605,-2.5128,-2.4545,-2.396,-2.338,-2.276,-2.1909,-2.1225,-2.0701,-2.0385,-2.0104,-1.9815,-1.9569,-1.9395,-1.9395,-1.9395,-1.9395,-1.9395,-1.9368,-1.9328,-1.9207,-1.8991,-1.8649,-1.8362,-1.8216,-1.7955,-1.7762,-1.7649,-1.7628,-1.7709,-1.7889,-1.7902,-1.8063,-1.8317,-1.8363,-1.8551,-1.8724,-1.8838,-1.8891,-1.908,-1.9221,-1.9254,-1.9254,-1.9207,-1.9167,-1.9154,-1.9147,-1.9134,-1.9147,-1.9214,-1.9232,-1.9301,-1.9328,-1.9301,-1.9267,-1.9247,-1.9199,-1.9194,-1.916,-1.9018,-1.8871,-1.8778,-1.8684,-1.8597,-1.8504,-1.8437,-1.8437,-1.827,-1.8016,-1.7903,-1.7689,-1.7648,-1.7655,-1.7635,-1.7655,-1.7635,-1.7615,-1.7615,-1.7628,-1.7742,-1.7822,-1.7668,-1.7622,-1.7756,-1.7896,-1.7909,-1.8049,-1.818,-1.8162,-1.8115,-1.7957,-1.7663,-1.7544,-2.6537,-2.6787,-2.7197,-2.7409,-2.7461,-2.7858,-2.8044,-2.8073,-2.8213,-2.8301,-2.8301,-2.8301,-2.8301,-2.8301,-2.8301,-2.813,-2.7862,-2.7557,-2.7287,-2.6881,-2.6309,-2.5898,-2.5459,-2.4962,-2.4443,-2.3829,-2.2986,-2.223,-2.1632,-2.1074,-2.0579,-2.027,-1.9953,-1.9671,-1.9453,-1.9395,-1.9395,-1.9395,-1.9395,-1.9395,-1.9395,-1.9368,-1.9341,-1.9132,-1.891,-1.8676,-1.8529,-1.8309,-1.8156,-1.8036,-1.8029,-1.807,-1.8217,-1.8243,-1.8369,-1.8591,-1.8718,-1.8804,-1.9018,-1.9132,-1.9178,-1.9341,-1.9395,-1.9354,-1.9354,-1.9301,-1.9301,-1.9294,-1.9294,-1.9287,-1.9287,-1.9334,-1.9341,-1.9361,-1.9368,-1.9354,-1.9341,-1.9334,-1.9321,-1.9314,-1.9287,-1.9267,-1.9132,-1.9118,-1.9045,-1.9067,-1.8933,-1.8744,-1.8718,-1.8671,-1.8418,-1.8217,-1.807,-1.7869,-1.7849,-1.7789,-1.7769,-1.7702,-1.7689,-1.7716,-1.7809,-1.7949,-1.803,-1.797,-1.7983,-1.811,-1.8196,-1.8175,-1.8191,-1.8325,-1.827,-1.8166,-1.7986,-1.778,-1.7555,-2.5952,-2.6348,-2.6758,-2.6934,-2.7002,-2.7428,-2.7614,-2.7682,-2.8044,-2.8203,-2.8203,-2.8252,-2.8291,-2.8301,-2.8264,-2.8077,-2.7835,-2.753,-2.726,-2.6781,-2.609,-2.5816,-2.5385,-2.4812,-2.4108,-2.338,-2.2598,-2.2059,-2.1554,-2.096,-2.0465,-2.0241,-1.9953,-1.9613,-1.9482,-1.9395,-1.9395,-1.9395,-1.9395,-1.9395,-1.9395,-1.9395,-1.9374,-1.9252,-1.9132,-1.8943,-1.8823,-1.8724,-1.8557,-1.845,-1.8397,-1.8457,-1.851,-1.8551,-1.8731,-1.8891,-1.8985,-1.9112,-1.9294,-1.9341,-1.9361,-1.9395,-1.9395,-1.9395,-1.9395,-1.9395,-1.9395,-1.9395,-1.9395,-1.9395,-1.9395,-1.9395,-1.9395,-1.9395,-1.9395,-1.9395,-1.9395,-1.9395,-1.9395,-1.9395,-1.9388,-1.9388,-1.9381,-1.9381,-1.9388,-1.9395,-1.9341,-1.9214,-1.9065,-1.8998,-1.8859,-1.8746,-1.8659,-1.8444,-1.8156,-1.8049,-1.7996,-1.7983,-1.7976,-1.7949,-1.7996,-1.8163,-1.8283,-1.837,-1.841,-1.8417,-1.8422,-1.8419,-1.8458,-1.8438,-1.823,-1.8122,-1.7968,-1.7738,-1.743,-2.5757,-2.5874,-2.6328,-2.6529,-2.6572,-2.6963,-2.7139,-2.7217,-2.7588,-2.7809,-2.7897,-2.8154,-2.8301,-2.8291,-2.8301,-2.805,-2.7593,-2.7431,-2.7089,-2.6609,-2.6017,-2.5789,-2.5376,-2.459,-2.3464,-2.2732,-2.223,-2.1867,-2.1318,-2.0701,-2.0349,-2.0241,-1.9707,-1.9482,-1.9453,-1.9395,-1.9395,-1.9395,-1.9395,-1.9395,-1.9395,-1.9395,-1.9395,-1.9361,-1.9341,-1.9125,-1.8978,-1.8856,-1.8704,-1.8571,-1.8551,-1.8677,-1.8771,-1.8851,-1.8991,-1.9118,-1.9241,-1.9287,-1.9381,-1.9395,-1.9395,-1.9395,-1.9395,-1.9395,-1.9395,-1.9395,-1.9395,-1.9395,-1.9395,-1.9395,-1.9395,-1.9395,-1.9395,-1.9395,-1.9395,-1.9395,-1.9395,-1.9395,-1.9395,-1.9395,-1.9395,-1.9395,-1.9395,-1.9395,-1.9395,-1.9395,-1.9395,-1.9287,-1.9274,-1.9267,-1.9247,-1.9187,-1.912,-1.8873,-1.8517,-1.8424,-1.8364,-1.8323,-1.8297,-1.8296,-1.8329,-1.839,-1.8504,-1.8664,-1.8651,-1.8617,-1.8641,-1.8633,-1.856,-1.848,-1.8191,-1.801,-1.7849,-1.7614,-1.7232]},{"header":{"parameterUnit":"m.s-1","parameterCategory":1,"la1":31.0,"la2":29.5877,"lo1":-88.7671,"lo2":-86.6584,"dy":0.0162,"dx":0.0185,"nx":115,"ny":88,"refTime":"2023-05-09T06:00:00:Z","depth":0,"parameterNumber":3,"parameterNumberName":"V-component_of_WINDS"},"data":[0.0,0.0,0.0,0.0,0.0,0.0,0.0,0.0,0.0,0.0,0.0,0.0,0.0,0.0,0.0,0.0,0.0,0.0,0.0,0.0,0.0,0.0,0.0,0.0,0.0,0.0,0.0,0.0,0.0,0.0,0.0,0.0,0.0,0.0,0.0,0.0,0.0,0.0,0.0,0.0,0.0,0.0,0.0,0.0,0.0,0.0,0.0,0.0,0.0,0.0,0.0,0.0,0.0,0.0,0.0,0.0,0.0,0.0,0.0,0.0,0.0,0.0,0.0,0.0,0.0,0.0,0.0,0.0,0.0,0.0,0.0,0.0,0.0,0.0,0.0,0.0,0.0,0.0,0.0,0.0,0.0,0.0,0.0,0.0,0.0,0.0,0.0,0.0,0.0,0.0,0.0,0.0,0.0,0.0,0.0,0.0,0.0,0.0,0.0,0.0,0.0,0.0,0.0,0.0,0.0,0.0,0.0,0.0,0.0,0.0,0.0,0.0,0.0,0.0,0.0,0.0,0.0,0.0,0.0,0.0,0.0,0.0,0.0,0.0,0.0,0.0,0.0,0.0,0.0,0.0,0.0,0.0,0.0,0.0,0.0,0.0,0.0,0.0,0.0,0.0,0.0,0.0,0.0,0.0,0.0,0.0,0.0,0.0,0.0,0.0,0.0,0.0,0.0,0.0,0.0,0.0,0.0,0.0,0.0,0.0,0.0,0.0,0.0,0.0,0.0,0.0,0.0,0.0,0.0,0.0,0.0,0.0,0.0,0.0,0.0,0.0,0.0,0.0,0.0,0.0,0.0,0.0,0.0,0.0,0.0,0.0,0.0,0.0,0.0,0.0,0.0,0.0,0.0,0.0,0.0,0.0,0.0,0.0,0.0,0.0,0.0,0.0,0.0,0.0,0.0,0.0,0.0,0.0,0.0,0.0,0.0,0.0,0.0,0.0,0.0,0.0,0.0,0.0,0.0,0.0,0.0,0.0,0.0,0.0,0.0,0.0,0.0,0.0,0.0,0.0,0.0,0.0,0.0,0.0,0.0,0.0,0.0,0.0,0.0,0.0,0.0,0.0,0.0,0.0,0.0,0.0,0.0,0.0,0.0,0.0,0.0,0.0,0.0,0.0,0.0,0.0,0.0,0.0,0.0,0.0,0.0,0.0,0.0,0.0,0.0,0.0,0.0,0.0,0.0,0.0,0.0,0.0,0.0,0.0,0.0,0.0,0.0,0.0,0.0,0.0,0.0,0.0,0.0,0.0,0.0,0.0,0.0,0.0,0.0,0.0,0.0,0.0,0.0,0.0,0.0,0.0,0.0,0.0,0.0,0.0,0.0,0.0,0.0,0.0,0.0,0.0,0.0,0.0,0.0,0.0,0.0,0.0,0.0,0.0,0.0,0.0,0.0,0.0,0.0,0.0,0.0,0.0,0.0,0.0,0.0,0.0,0.0,0.0,0.0,0.0,0.0,0.0,0.0,0.0,0.0,0.0,0.0,0.0,0.0,0.0,0.0,0.0,0.0,0.0,0.0,0.0,0.0,0.0,0.0,0.0,0.0,0.0,0.0,0.0,0.0,0.0,0.0,0.0,0.0,0.0,0.0,0.0,0.0,0.0,0.0,0.0,0.0,0.0,0.0,0.0,0.0,0.0,0.0,0.0,0.0,0.0,0.0,0.0,0.0,0.0,0.0,0.0,0.0,0.0,0.0,0.0,0.0,0.0,0.0,0.0,0.0,0.0,0.0,0.0,0.0,0.0,0.0,0.0,0.0,0.0,0.0,0.0,0.0,0.0,0.0,0.0,0.0,0.0,0.0,0.0,0.0,0.0,0.0,0.0,0.0,0.0,0.0,0.0,0.0,0.0,0.0,0.0,0.0,0.0,0.0,0.0,0.0,0.0,0.0,0.0,0.0,0.0,0.0,0.0,0.0,0.0,0.0,0.0,0.0,0.0,0.0,0.0,0.0,0.0,0.0,0.0,0.0,0.0,0.0,0.0,0.0,0.0,0.0,0.0,0.0,0.0,0.0,0.0,0.0,0.0,0.0,0.0,0.0,0.0,0.0,0.0,0.0,0.0,0.0,0.0,0.0,0.0,0.0,0.0,0.0,0.0,0.0,0.0,0.0,0.0,0.0,0.0,0.0,0.0,0.0,0.0,0.0,0.0,0.0,0.0,0.0,0.0,0.0,0.0,0.0,0.0,0.0,0.0,0.0,0.0,0.0,0.0,0.0,0.0,0.0,0.0,0.0,0.0,0.0,0.0,0.0,0.0,0.0,0.0,0.0,0.0,0.0,0.0,0.0,0.0,0.0,0.0,0.0,0.0,0.0,0.0,0.0,0.0,0.0,0.0,0.0,0.0,0.0,0.0,0.0,0.0,0.0,0.0,0.0,0.0,0.0,0.0,0.0,0.0,0.0,0.0,0.0,0.0,0.0,0.0,0.0,0.0,0.0,0.0,0.0,0.0,0.0,0.0,0.0,0.0,0.0,0.0,0.0,0.0,0.0,0.0,0.0,0.0,0.0,0.0,0.0,0.0,0.0,0.0,0.0,0.0,0.0,0.0,0.0,0.0,0.0,0.0,0.0,0.0,0.0,0.0,0.0,0.0,0.0,0.0,0.0,0.0,0.0,0.0,0.0,0.0,0.0,0.0,0.0,0.0,0.0,0.0,0.0,0.0,0.0,0.0,0.0,0.0,0.0,0.0,0.0,0.0,0.0,0.0,0.0,0.0,0.0,0.0,0.0,0.0,0.0,0.0,0.0,0.0,0.0,0.0,0.0,0.0,0.0,0.0,0.0,0.0,0.0,0.0,0.0,0.0,0.0,0.0,0.0,0.0,0.0,0.0,0.0,0.0,0.0,0.0,0.0,0.0,0.0,0.0,0.0,0.0,0.0,0.0,0.0,0.0,0.0,0.0,0.0,0.0,0.0,0.0,0.0,0.0,0.0,0.0,0.0,0.0,0.0,0.0,0.0,0.0,0.0,0.0,0.0,0.0,0.0,0.0,0.0,0.0,0.0,0.0,0.0,0.0,0.0,0.0,0.0,0.0,0.0,0.0,0.0,0.0,0.0,0.0,0.0,0.0,0.0,0.0,0.0,0.0,0.0,0.0,0.0,0.0,0.0,0.0,0.0,0.0,0.0,0.0,0.0,0.0,0.0,0.0,0.0,0.0,0.0,0.0,0.0,0.0,0.0,0.0,0.0,0.0,0.0,0.0,0.0,0.0,0.0,0.0,0.0,0.0,0.0,0.0,0.0,0.0,0.0,0.0,0.0,0.0,0.0,0.0,0.0,0.0,0.0,0.0,0.0,0.0,0.0,0.0,0.0,0.0,0.0,0.0,0.0,0.0,0.0,0.0,0.0,0.0,0.0,0.0,0.0,0.0,0.0,0.0,0.0,0.0,0.0,0.0,0.0,0.0,0.0,0.0,0.0,0.0,0.0,0.0,0.0,0.0,0.0,0.0,0.0,0.0,0.0,0.0,0.0,0.0,0.0,0.0,0.0,0.0,0.0,0.0,0.0,0.0,0.0,0.0,0.0,0.0,0.0,0.0,0.0,0.0,0.0,0.0,0.0,0.0,0.0,0.0,0.0,0.0,0.0,0.0,0.0,0.0,0.0,0.0,0.0,0.0,0.0,0.0,0.0,0.0,0.0,0.0,0.0,0.0,0.0,0.0,0.0,0.0,0.0,0.0,0.0,0.0,0.0,0.0,0.0,0.0,0.0,0.0,0.0,0.0,0.0,0.0,0.0,0.0,0.0,0.0,0.0,0.0,0.0,0.0,0.0,0.0,0.0,0.0,0.0,0.0,0.0,0.0,0.0,0.0,0.0,0.0,0.0,0.0,0.0,0.0,0.0,0.0,0.0,0.0,0.0,0.0,0.0,0.0,0.0,0.0,0.0,0.0,0.0,0.0,0.0,0.0,0.0,0.0,0.0,0.0,0.0,0.0,0.0,0.0,0.0,0.0,0.0,0.0,0.0,0.0,0.0,0.0,0.0,0.0,0.0,0.0,0.0,0.0,0.0,0.0,0.0,0.0,0.0,0.0,0.0,0.0,0.0,0.0,0.0,0.0,0.0,0.0,0.0,0.0,0.0,0.0,0.0,0.0,0.0,0.0,0.0,0.0,0.0,0.0,0.0,0.0,0.0,0.0,0.0,0.0,0.0,0.0,0.0,0.0,0.0,0.0,0.0,0.0,0.0,0.0,0.0,0.0,0.0,0.0,0.0,0.0,0.0,0.0,0.0,0.0,0.0,0.0,0.0,0.0,0.0,0.0,1.8298,0.0,0.0,0.0,0.0,0.0,0.0,0.0,0.0,0.0,0.0,0.0,0.0,0.0,0.0,0.0,0.0,0.0,0.0,0.0,0.0,0.0,0.0,0.0,0.0,0.0,0.0,0.0,0.0,0.0,0.0,0.0,0.0,0.0,0.0,0.0,0.0,0.0,0.0,0.0,0.0,0.0,0.0,0.0,0.0,0.0,0.0,0.0,0.0,0.0,0.0,0.0,0.0,0.0,0.0,0.0,0.0,0.0,0.0,0.0,0.0,0.0,0.0,0.0,0.0,0.0,0.0,0.0,0.0,0.0,0.0,0.0,0.0,0.0,0.0,0.0,0.0,0.0,0.0,0.0,0.0,0.0,0.0,0.0,0.0,0.0,0.0,0.0,0.0,0.0,0.0,0.0,0.0,0.0,0.0,0.0,0.0,0.0,0.0,0.0,0.0,0.0,0.0,0.0,0.0,0.0,0.0,0.0,0.0,0.0,0.0,1.9282,1.9279,1.8875,1.8482,1.8115,0.0,0.0,0.0,0.0,0.0,0.0,0.0,0.0,0.0,0.0,0.0,0.0,0.0,0.0,0.0,0.0,0.0,0.0,0.0,0.0,0.0,0.0,0.0,0.0,0.0,0.0,0.0,0.0,0.0,0.0,0.0,0.0,0.0,0.0,0.0,0.0,0.0,0.0,0.0,0.0,0.0,0.0,0.0,0.0,0.0,0.0,0.0,0.0,0.0,0.0,0.0,0.0,0.0,0.0,0.0,0.0,0.0,0.0,0.0,0.0,0.0,0.0,0.0,0.0,0.0,0.0,0.0,0.0,0.0,0.0,0.0,0.0,0.0,0.0,0.0,0.0,0.0,0.0,0.0,0.0,0.0,0.0,0.0,0.0,0.0,0.0,0.0,0.0,0.0,0.0,0.0,0.0,0.0,0.0,0.0,0.0,0.0,0.0,0.0,0.0,0.0,0.0,0.0,0.0,0.0,0.0,0.0,0.0,0.0,0.0,0.0,0.0,1.8328,1.7931,1.7542,0.0,0.0,0.0,0.0,0.0,0.0,0.0,0.0,0.0,0.0,0.0,0.0,0.0,0.0,0.0,0.0,0.0,0.0,0.0,0.0,0.0,0.0,0.0,0.0,0.0,0.0,0.0,0.0,0.0,0.0,0.0,0.0,0.0,0.0,0.0,0.0,0.0,0.0,0.0,0.0,0.0,0.0,0.0,0.0,0.0,0.0,0.0,0.0,0.0,0.0,0.0,0.0,0.0,0.0,0.0,0.0,0.0,0.0,0.0,0.0,0.0,0.0,0.0,0.0,0.0,0.0,0.0,0.0,0.0,0.0,0.0,0.0,0.0,0.0,0.0,0.0,0.0,0.0,0.0,0.0,0.0,0.0,0.0,0.0,0.0,0.0,0.0,0.0,0.0,0.0,0.0,0.0,0.0,0.0,0.0,0.0,0.0,0.0,0.0,0.0,0.0,0.0,0.0,0.0,0.0,0.0,0.0,0.0,0.0,0.0,1.7854,1.7147,1.7759,0.0,1.6007,0.0,0.0,0.0,0.0,0.0,0.0,0.0,0.0,0.0,0.0,0.0,0.0,0.0,0.0,0.0,0.0,0.0,0.0,0.0,0.0,0.0,0.0,0.0,0.0,0.0,0.0,0.0,0.0,0.0,0.0,0.0,0.0,0.0,0.0,0.0,0.0,0.0,0.0,0.0,0.0,0.0,0.0,0.0,0.0,0.0,0.0,0.0,0.0,0.0,0.0,0.0,0.0,0.0,0.0,0.0,0.0,0.0,0.0,0.0,0.0,0.0,0.0,0.0,0.0,0.0,0.0,0.0,0.0,0.0,0.0,0.0,0.0,0.0,0.0,0.0,0.0,0.0,0.0,0.0,0.0,0.0,0.0,0.0,0.0,0.0,0.0,0.0,0.0,0.0,0.0,0.0,0.0,0.0,0.0,0.0,0.0,0.0,0.0,0.0,0.0,0.0,0.0,0.0,0.0,0.0,0.0,0.0,0.0,0.0,0.0,1.8166,1.8331,1.7722,1.687,0.0,0.0,0.0,0.0,0.0,0.0,0.0,0.0,0.0,0.0,0.0,0.0,0.0,0.0,0.0,0.0,0.0,0.0,0.0,0.0,0.0,0.0,0.0,0.0,0.0,0.0,0.0,0.0,0.0,0.0,0.0,0.0,0.0,0.0,0.0,0.0,0.0,0.0,0.0,0.0,0.0,0.0,0.0,0.0,0.0,0.0,0.0,0.0,0.0,0.0,0.0,0.0,0.0,0.0,0.0,0.0,0.0,0.0,0.0,0.0,0.0,0.0,0.0,0.0,0.0,0.0,0.0,0.0,0.0,0.0,0.0,0.0,0.0,0.0,0.0,0.0,0.0,0.0,0.0,0.0,0.0,0.0,0.0,0.0,0.0,0.0,0.0,0.0,0.0,0.0,0.0,0.0,0.0,0.0,0.0,0.0,0.0,0.0,0.0,0.0,0.0,0.0,0.0,0.0,0.0,0.0,0.0,0.0,0.0,0.0,1.7979,1.8372,1.8875,1.7659,1.6578,1.5833,0.0,0.0,0.0,0.0,0.0,0.0,0.0,0.0,0.0,0.0,0.0,0.0,0.0,0.0,0.0,0.0,0.0,0.0,0.0,0.0,0.0,0.0,0.0,0.0,0.0,0.0,0.0,0.0,0.0,0.0,0.0,0.0,0.0,0.0,0.0,0.0,0.0,0.0,0.0,0.0,0.0,0.0,0.0,0.0,0.0,0.0,0.0,0.0,0.0,0.0,0.0,0.0,0.0,0.0,0.0,0.0,0.0,0.0,0.0,0.0,0.0,0.0,0.0,0.0,0.0,0.0,0.0,0.0,0.0,0.0,0.0,0.0,0.0,0.0,0.0,0.0,0.0,0.0,0.0,0.0,0.0,0.0,0.0,0.0,0.0,0.0,0.0,0.0,0.0,0.0,0.0,0.0,0.0,0.0,0.0,0.0,0.0,0.0,0.0,0.0,0.0,0.0,0.0,0.0,0.0,0.0,0.0,0.0,1.6963,1.7719,1.8133,1.8185,1.7415,1.6628,0.0,0.0,0.0,0.0,0.0,0.0,0.0,0.0,0.0,0.0,0.0,0.0,0.0,0.0,0.0,0.0,0.0,0.0,0.0,0.0,0.0,0.0,0.0,0.0,0.0,0.0,0.0,0.0,0.0,0.0,0.0,0.0,0.0,0.0,0.0,0.0,0.0,0.0,0.0,0.0,0.0,0.0,0.0,0.0,0.0,0.0,0.0,0.0,0.0,0.0,0.0,0.0,0.0,0.0,0.0,0.0,0.0,0.0,0.0,0.0,0.0,0.0,0.0,0.0,0.0,0.0,0.0,0.0,0.0,0.0,0.0,0.0,0.0,0.0,0.0,0.0,0.0,0.0,0.0,0.0,0.0,0.0,0.0,0.0,0.0,0.0,0.0,0.0,0.0,0.0,0.0,0.0,0.0,0.0,0.0,0.0,0.0,0.0,0.0,0.0,0.0,0.0,0.0,0.0,0.0,0.0,0.0,0.0,0.0,1.7645,1.8441,1.8871,1.8853,1.8161,1.764,0.0,0.0,0.0,0.0,0.0,0.0,0.0,0.0,0.0,0.0,0.0,0.0,0.0,0.0,0.0,0.0,0.0,0.0,0.0,0.0,0.0,0.0,0.0,0.0,0.0,0.0,0.0,0.0,0.0,0.0,0.0,0.0,0.0,0.0,0.0,0.0,0.0,0.0,0.0,0.0,0.0,0.0,0.0,0.0,0.0,0.0,0.0,0.0,0.0,0.0,0.0,0.0,0.0,0.0,0.0,0.0,0.0,0.0,0.0,0.0,0.0,0.0,0.0,0.0,0.0,0.0,0.0,0.0,0.0,0.0,0.0,0.0,0.0,0.0,0.0,0.0,0.0,0.0,0.0,0.0,0.0,0.0,0.0,0.0,0.0,0.0,0.0,0.0,0.0,0.0,0.0,0.0,0.0,0.0,0.0,0.0,0.0,0.0,0.0,0.0,0.0,0.0,0.0,0.0,0.0,0.0,0.0,0.0,0.0,1.846,0.0,1.9282,0.0,1.8853,1.8505,0.0,0.0,0.0,0.0,0.0,0.0,0.0,0.0,0.0,0.0,0.0,0.0,0.0,0.0,0.0,0.0,0.0,0.0,0.0,0.0,0.0,0.0,0.0,0.0,0.0,0.0,0.0,0.0,0.0,0.0,0.0,0.0,0.0,0.0,0.0,0.0,0.0,0.0,0.0,0.0,0.0,0.0,0.0,0.0,0.0,0.0,0.0,0.0,0.0,0.0,0.0,0.0,0.0,0.0,0.0,0.0,0.0,0.0,0.0,0.0,0.0,0.0,0.0,0.0,0.0,0.0,0.0,0.0,0.0,0.0,0.0,0.0,0.0,0.0,0.0,0.0,0.0,0.0,0.0,0.0,0.0,0.0,0.0,0.0,0.0,0.0,0.0,0.0,0.0,0.0,0.0,0.0,0.0,0.0,0.0,0.0,0.0,0.0,0.0,0.0,0.0,0.0,0.0,0.0,0.0,0.0,0.0,0.0,1.8533,1.9275,1.9356,1.9407,1.9356,1.9461,1.9113,0.0,0.0,0.0,0.0,0.0,0.0,0.0,0.0,0.0,0.0,0.0,0.0,0.0,0.0,0.0,0.0,0.0,0.0,0.0,0.0,0.0,0.0,0.0,0.0,0.0,0.0,0.0,0.0,0.0,0.0,0.0,0.0,0.0,0.0,0.0,0.0,0.0,0.0,0.0,0.0,0.0,0.0,0.0,0.0,0.0,0.0,0.0,0.0,0.0,0.0,0.0,0.0,0.0,0.0,0.0,0.0,0.0,0.0,0.0,0.0,0.0,0.0,0.0,0.0,0.0,0.0,0.0,0.0,0.0,0.0,0.0,0.0,0.0,0.0,0.0,0.0,0.0,0.0,0.0,0.0,0.0,0.0,0.0,0.0,0.0,0.0,0.0,0.0,0.0,0.0,0.0,0.0,0.0,0.0,0.0,0.0,0.0,0.0,0.0,0.0,0.0,0.0,0.0,0.0,0.0,0.0,0.0,0.0,0.0,2.0144,2.0725,2.1027,2.1013,2.0574,2.0211,0.0,0.0,0.0,0.0,0.0,0.0,0.0,0.0,0.0,0.0,0.0,0.0,0.0,0.0,0.0,0.0,0.0,0.0,0.0,0.0,0.0,0.0,0.0,0.0,0.0,0.0,0.0,0.0,0.0,0.0,0.0,0.0,0.0,0.0,0.0,0.0,0.0,0.0,0.0,0.0,0.0,0.0,0.0,0.0,0.0,0.0,0.0,0.0,0.0,0.0,0.0,0.0,0.0,0.0,0.0,0.0,0.0,0.0,0.0,0.0,0.0,0.0,0.0,0.0,0.0,0.0,0.0,0.0,0.0,0.0,0.0,0.0,0.0,0.0,0.0,0.0,0.0,0.0,0.0,0.0,0.0,0.0,0.0,0.0,0.0,0.0,0.0,0.0,0.0,0.0,0.0,0.0,0.0,0.0,0.0,0.0,0.0,0.0,0.0,0.0,0.0,0.0,0.0,0.0,0.0,0.0,0.0,0.0,0.0,2.1891,2.2116,2.2244,2.2249,2.1529,2.1149,2.1108,0.0,0.0,0.0,0.0,0.0,0.0,0.0,0.0,0.0,0.0,0.0,0.0,0.0,0.0,0.0,0.0,0.0,0.0,0.0,0.0,0.0,0.0,0.0,0.0,0.0,0.0,0.0,0.0,0.0,0.0,0.0,0.0,0.0,0.0,0.0,0.0,0.0,0.0,0.0,0.0,0.0,0.0,0.0,0.0,0.0,0.0,0.0,0.0,0.0,0.0,0.0,0.0,0.0,0.0,0.0,0.0,0.0,0.0,0.0,0.0,0.0,0.0,0.0,0.0,0.0,0.0,0.0,0.0,0.0,0.0,0.0,0.0,0.0,0.0,0.0,0.0,0.0,0.0,0.0,0.0,0.0,0.0,0.0,0.0,0.0,0.0,0.0,0.0,0.0,0.0,0.0,0.0,0.0,0.0,0.0,0.0,0.0,0.0,0.0,0.0,0.0,0.0,0.0,0.0,0.0,0.0,0.0,0.0,2.4323,2.3634,2.3258,2.3231,2.2465,2.2031,0.0,0.0,0.0,0.0,0.0,0.0,0.0,0.0,0.0,0.0,0.0,0.0,0.0,0.0,0.0,0.0,0.0,0.0,0.0,0.0,0.0,0.0,0.0,0.0,0.0,0.0,0.0,0.0,0.0,0.0,0.0,0.0,0.0,0.0,0.0,0.0,0.0,0.0,0.0,0.0,0.0,0.0,0.0,0.0,0.0,0.0,0.0,0.0,0.0,0.0,0.0,0.0,0.0,0.0,0.0,0.0,0.0,0.0,0.0,0.0,0.0,0.0,0.0,0.0,0.0,0.0,0.0,0.0,0.0,0.0,0.0,0.0,0.0,0.0,0.0,0.0,0.0,0.0,0.0,0.0,0.0,0.0,0.0,0.0,0.0,0.0,0.0,0.0,0.0,0.0,0.0,0.0,0.0,0.0,0.0,0.0,0.0,0.0,0.0,0.0,0.0,0.0,0.0,0.0,0.0,0.0,0.0,0.0,0.0,2.5928,2.6337,2.6245,2.5653,2.4372,2.3684,0.0,0.0,0.0,0.0,0.0,0.0,0.0,0.0,0.0,0.0,0.0,0.0,0.0,0.0,0.0,0.0,0.0,0.0,0.0,0.0,0.0,0.0,0.0,0.0,0.0,0.0,0.0,0.0,0.0,0.0,0.0,0.0,0.0,0.0,0.0,0.0,0.0,0.0,0.0,0.0,0.0,0.0,0.0,0.0,0.0,0.0,0.0,0.0,0.0,0.0,0.0,0.0,0.0,0.0,0.0,0.0,0.0,0.0,0.0,0.0,0.0,0.0,0.0,0.0,0.0,0.0,0.0,0.0,0.0,0.0,0.0,0.0,0.0,0.0,0.0,0.0,0.0,0.0,0.0,0.0,0.0,0.0,0.0,0.0,0.0,0.0,0.0,0.0,0.0,0.0,0.0,0.0,0.0,0.0,0.0,0.0,0.0,0.0,0.0,0.0,0.0,0.0,0.0,0.0,0.0,0.0,0.0,0.0,2.5957,2.709,2.7554,2.7732,2.7611,2.6122,2.5138,0.0,0.0,0.0,0.0,0.0,0.0,0.0,0.0,0.0,0.0,0.0,0.0,0.0,0.0,0.0,0.0,0.0,0.0,0.0,0.0,0.0,0.0,0.0,0.0,0.0,0.0,0.0,0.0,0.0,0.0,0.0,0.0,0.0,0.0,0.0,0.0,0.0,0.0,0.0,0.0,0.0,0.0,0.0,0.0,0.0,0.0,0.0,0.0,0.0,0.0,0.0,0.0,0.0,0.0,0.0,0.0,0.0,0.0,0.0,0.0,0.0,0.0,0.0,0.0,0.0,0.0,0.0,0.0,0.0,0.0,0.0,0.0,0.0,0.0,0.0,0.0,0.0,0.0,0.0,0.0,0.0,0.0,0.0,0.0,0.0,0.0,0.0,0.0,0.0,0.0,0.0,0.0,0.0,0.0,0.0,0.0,0.0,0.0,0.0,0.0,0.0,0.0,0.0,0.0,0.0,0.0,0.0,0.0,2.6384,2.7897,2.7921,2.8259,2.8932,2.759,2.6443,0.0,0.0,0.0,0.0,0.0,0.0,0.0,0.0,0.0,0.0,0.0,0.0,0.0,0.0,0.0,0.0,0.0,0.0,0.0,0.0,0.0,0.0,0.0,0.0,0.0,0.0,0.0,0.0,0.0,0.0,0.0,0.0,0.0,0.0,0.0,0.0,0.0,0.0,0.0,0.0,0.0,0.0,0.0,0.0,0.0,0.0,0.0,0.0,0.0,0.0,0.0,0.0,0.0,0.0,0.0,0.0,0.0,0.0,0.0,0.0,0.0,0.0,0.0,0.0,0.0,0.0,0.0,0.0,0.0,0.0,0.0,0.0,0.0,0.0,0.0,0.0,0.0,0.0,0.0,0.0,0.0,0.0,0.0,0.0,0.0,0.0,0.0,0.0,0.0,0.0,0.0,0.0,0.0,0.0,0.0,0.0,0.0,0.0,0.0,0.0,0.0,0.0,0.0,0.0,0.0,0.0,0.0,0.0,2.775,2.8717,2.8743,2.8822,2.8987,2.8105,2.7256,0.0,0.0,0.0,0.0,0.0,0.0,0.0,0.0,0.0,0.0,0.0,0.0,0.0,0.0,0.0,0.0,0.0,0.0,0.0,0.0,0.0,0.0,0.0,0.0,0.0,0.0,0.0,0.0,0.0,0.0,0.0,0.0,0.0,0.0,0.0,0.0,0.0,0.0,0.0,0.0,0.0,0.0,0.0,0.0,0.0,0.0,0.0,0.0,2.7316,0.0,0.0,0.0,0.0,0.0,0.0,0.0,0.0,0.0,0.0,0.0,0.0,0.0,0.0,0.0,0.0,0.0,0.0,0.0,0.0,0.0,0.0,0.0,0.0,0.0,0.0,0.0,0.0,0.0,0.0,0.0,0.0,0.0,0.0,0.0,0.0,0.0,0.0,0.0,0.0,0.0,0.0,0.0,0.0,0.0,0.0,0.0,0.0,0.0,0.0,0.0,0.0,0.0,0.0,0.0,0.0,0.0,0.0,0.0,2.8191,2.8968,2.8987,2.8987,2.8968,2.8278,2.7517,0.0,0.0,0.0,0.0,0.0,0.0,0.0,0.0,0.0,0.0,0.0,0.0,0.0,0.0,0.0,0.0,0.0,0.0,0.0,0.0,0.0,0.0,0.0,0.0,0.0,0.0,0.0,0.0,0.0,0.0,0.0,0.0,0.0,0.0,0.0,0.0,0.0,0.0,0.0,0.0,0.0,0.0,0.0,0.0,0.0,0.0,0.0,0.0,0.0,0.0,0.0,0.0,0.0,0.0,0.0,0.0,0.0,0.0,0.0,0.0,0.0,0.0,0.0,0.0,0.0,0.0,0.0,0.0,0.0,0.0,0.0,0.0,0.0,0.0,0.0,0.0,0.0,0.0,0.0,0.0,0.0,0.0,0.0,0.0,0.0,0.0,0.0,0.0,0.0,0.0,0.0,0.0,0.0,0.0,0.0,0.0,0.0,0.0,0.0,0.0,0.0,0.0,0.0,0.0,0.0,0.0,0.0,2.7512,2.8319,2.8968,2.8987,2.8987,2.8987,2.8296,2.7517,2.6729,0.0,0.0,0.0,0.0,0.0,0.0,0.0,0.0,0.0,0.0,0.0,0.0,0.0,0.0,0.0,0.0,0.0,0.0,0.0,0.0,0.0,0.0,0.0,0.0,0.0,0.0,0.0,0.0,0.0,0.0,0.0,0.0,0.0,0.0,0.0,0.0,0.0,0.0,2.2026,2.4257,0.0,0.0,0.0,0.0,0.0,0.0,0.0,0.0,2.8662,0.0,0.0,0.0,0.0,0.0,0.0,0.0,0.0,0.0,0.0,0.0,0.0,0.0,0.0,0.0,0.0,0.0,0.0,0.0,0.0,0.0,0.0,0.0,0.0,0.0,0.0,0.0,0.0,0.0,0.0,0.0,0.0,0.0,0.0,0.0,0.0,0.0,0.0,0.0,0.0,0.0,0.0,0.0,0.0,0.0,0.0,0.0,0.0,0.0,0.0,0.0,0.0,0.0,0.0,0.0,0.0,2.6589,2.8051,2.8877,2.8987,2.8987,2.8987,2.8968,2.8278,2.7535,2.6697,0.0,0.0,0.0,0.0,0.0,0.0,0.0,0.0,0.0,0.0,0.0,0.0,0.0,0.0,0.0,0.0,0.0,0.0,0.0,0.0,0.0,0.0,0.0,0.0,0.0,0.0,0.0,0.0,0.0,0.0,0.0,0.0,0.0,0.0,0.0,0.0,0.0,0.0,0.0,2.6831,2.8562,0.0,0.0,0.0,0.0,0.0,0.0,0.0,0.0,3.2064,0.0,0.0,0.0,0.0,0.0,0.0,0.0,0.0,0.0,0.0,0.0,0.0,0.0,0.0,0.0,0.0,0.0,0.0,0.0,0.0,0.0,0.0,0.0,0.0,0.0,0.0,0.0,0.0,0.0,0.0,0.0,0.0,0.0,0.0,0.0,0.0,0.0,0.0,0.0,0.0,0.0,0.0,0.0,0.0,0.0,0.0,0.0,0.0,0.0,0.0,0.0,0.0,0.0,0.0,0.0,2.6528,2.7763,2.8589,2.8968,2.8987,2.8803,2.8387,2.7671,2.689,0.0,0.0,0.0,0.0,0.0,0.0,0.0,0.0,0.0,0.0,0.0,0.0,0.0,0.0,0.0,0.0,0.0,0.0,0.0,0.0,0.0,0.0,0.0,0.0,0.0,0.0,0.0,0.0,0.0,0.0,0.0,0.0,0.0,0.0,0.0,0.0,0.0,0.0,0.0,0.0,2.865,3.0052,3.0957,0.0,0.0,0.0,0.0,0.0,0.0,3.2891,3.2891,0.0,0.0,0.0,0.0,0.0,0.0,0.0,0.0,0.0,0.0,0.0,0.0,0.0,0.0,0.0,0.0,0.0,0.0,0.0,0.0,0.0,0.0,0.0,0.0,0.0,0.0,0.0,0.0,0.0,0.0,0.0,0.0,0.0,0.0,0.0,0.0,0.0,0.0,0.0,0.0,0.0,0.0,0.0,0.0,0.0,0.0,0.0,0.0,0.0,0.0,0.0,0.0,0.0,0.0,0.0,2.6295,2.7315,2.8117,2.873,2.8932,2.8607,2.7811,2.7067,2.6314,0.0,0.0,0.0,0.0,0.0,0.0,0.0,0.0,0.0,0.0,0.0,0.0,0.0,0.0,0.0,0.0,0.0,0.0,0.0,0.0,0.0,0.0,0.0,0.0,0.0,0.0,0.0,0.0,0.0,0.0,0.0,0.0,0.0,0.0,0.0,0.0,0.0,0.0,0.0,0.0,0.0,3.1563,3.2917,3.3283,0.0,0.0,0.0,0.0,3.3891,3.393,0.0,0.0,0.0,0.0,0.0,0.0,0.0,0.0,0.0,0.0,0.0,0.0,0.0,0.0,0.0,0.0,0.0,0.0,0.0,0.0,0.0,0.0,0.0,0.0,0.0,0.0,0.0,0.0,0.0,0.0,0.0,0.0,0.0,0.0,0.0,0.0,0.0,0.0,0.0,0.0,0.0,0.0,0.0,0.0,0.0,0.0,0.0,0.0,0.0,0.0,0.0,0.0,0.0,0.0,0.0,0.0,2.5521,2.7045,2.7866,2.7958,2.8626,2.8626,2.7811,2.7021,2.6273,0.0,0.0,0.0,0.0,0.0,0.0,0.0,0.0,0.0,0.0,0.0,0.0,0.0,0.0,0.0,0.0,0.0,0.0,0.0,0.0,0.0,0.0,0.0,0.0,0.0,0.0,0.0,0.0,0.0,0.0,0.0,0.0,0.0,0.0,0.0,0.0,0.0,0.0,0.0,0.0,0.0,3.3643,3.3838,3.458,3.537,0.0,0.0,3.6523,3.7296,3.7411,0.0,0.0,0.0,0.0,0.0,0.0,0.0,0.0,0.0,0.0,0.0,0.0,0.0,0.0,0.0,0.0,0.0,0.0,0.0,0.0,0.0,0.0,0.0,0.0,0.0,0.0,0.0,0.0,0.0,0.0,0.0,0.0,0.0,0.0,0.0,0.0,0.0,0.0,0.0,0.0,0.0,0.0,0.0,0.0,0.0,0.0,0.0,0.0,0.0,0.0,0.0,0.0,0.0,0.0,0.0,2.3786,2.5379,2.6526,2.7346,2.7787,2.857,2.8381,2.7139,2.6772,2.6048,0.0,0.0,0.0,0.0,0.0,0.0,0.0,0.0,0.0,0.0,0.0,0.0,0.0,0.0,0.0,0.0,0.0,0.0,0.0,0.0,0.0,0.0,0.0,0.0,0.0,0.0,0.0,0.0,0.0,0.0,0.0,0.0,0.0,0.0,0.0,0.0,0.0,0.0,0.0,0.0,0.0,0.0,3.5904,3.6434,0.0,0.0,0.0,3.7686,3.86,0.0,0.0,0.0,0.0,0.0,0.0,0.0,0.0,0.0,0.0,0.0,0.0,0.0,0.0,0.0,0.0,0.0,0.0,0.0,0.0,0.0,0.0,0.0,0.0,0.0,0.0,0.0,0.0,0.0,0.0,0.0,0.0,0.0,0.0,0.0,0.0,0.0,0.0,0.0,0.0,0.0,0.0,0.0,0.0,0.0,0.0,0.0,0.0,0.0,0.0,0.0,0.0,0.0,0.0,0.0,0.0,0.0,2.5086,2.6098,2.6901,2.7517,2.8473,2.8235,2.668,2.6607,0.0,0.0,0.0,0.0,0.0,0.0,0.0,0.0,0.0,0.0,0.0,0.0,0.0,0.0,0.0,0.0,0.0,0.0,0.0,0.0,0.0,0.0,0.0,0.0,0.0,0.0,0.0,2.1734,0.0,0.0,0.0,0.0,0.0,0.0,0.0,0.0,0.0,0.0,0.0,0.0,0.0,0.0,3.5907,3.7338,3.7817,3.8293,0.0,0.0,3.8785,3.9488,3.905,3.8627,0.0,0.0,0.0,0.0,0.0,0.0,0.0,0.0,0.0,0.0,0.0,0.0,0.0,0.0,0.0,0.0,0.0,0.0,0.0,0.0,0.0,0.0,0.0,0.0,0.0,0.0,0.0,0.0,0.0,0.0,0.0,0.0,0.0,0.0,0.0,0.0,0.0,0.0,0.0,0.0,0.0,0.0,0.0,0.0,0.0,0.0,0.0,0.0,0.0,0.0,0.0,0.0,0.0,0.0,0.0,2.43,2.5823,2.6644,2.6735,2.8198,2.8235,2.668,2.6607,2.5862,0.0,0.0,0.0,0.0,0.0,0.0,0.0,0.0,0.0,0.0,0.0,0.0,0.0,0.0,0.0,0.0,0.0,0.0,0.0,0.0,0.0,0.0,0.0,0.0,0.0,0.0,0.0,0.0,0.0,0.0,0.0,0.0,0.0,0.0,0.0,0.0,0.0,0.0,0.0,0.0,0.0,3.6439,3.7315,3.8275,3.8935,0.0,0.0,4.0275,4.0401,4.0352,4.0326,4.0335,0.0,0.0,0.0,0.0,0.0,0.0,0.0,0.0,0.0,0.0,0.0,0.0,0.0,0.0,0.0,0.0,0.0,0.0,0.0,0.0,0.0,0.0,0.0,0.0,0.0,0.0,0.0,0.0,0.0,0.0,0.0,0.0,0.0,0.0,0.0,0.0,0.0,0.0,0.0,0.0,0.0,0.0,0.0,0.0,0.0,0.0,0.0,0.0,0.0,0.0,0.0,0.0,0.0,2.4135,2.4934,2.6025,2.6827,2.7346,2.8436,2.846,2.7383,2.6864,2.6101,0.0,0.0,0.0,0.0,0.0,0.0,0.0,0.0,0.0,0.0,0.0,0.0,0.0,0.0,0.0,0.0,0.0,0.0,0.0,0.0,0.0,0.0,0.0,0.0,0.0,0.0,0.0,0.0,2.6081,2.631,2.6934,0.0,0.0,0.0,0.0,0.0,0.0,0.0,0.0,0.0,0.0,3.7878,3.8761,3.9271,0.0,0.0,4.0725,4.0684,4.1867,4.1174,4.0499,4.0489,3.9823,0.0,0.0,0.0,0.0,0.0,0.0,0.0,0.0,0.0,0.0,0.0,0.0,0.0,0.0,0.0,0.0,0.0,0.0,0.0,0.0,0.0,0.0,0.0,0.0,0.0,0.0,0.0,0.0,0.0,0.0,0.0,0.0,0.0,0.0,0.0,0.0,0.0,0.0,0.0,0.0,0.0,0.0,0.0,0.0,0.0,0.0,0.0,0.0,0.0,0.0,0.0,0.0,2.4842,2.5398,2.6416,2.7218,2.7811,2.857,2.862,2.7829,2.7255,2.65,0.0,0.0,0.0,0.0,0.0,0.0,0.0,0.0,0.0,0.0,0.0,0.0,0.0,0.0,0.0,0.0,0.0,0.0,0.0,0.0,0.0,0.0,0.0,0.0,0.0,0.0,0.0,0.0,2.7735,2.8061,2.8067,0.0,0.0,0.0,0.0,0.0,0.0,0.0,0.0,0.0,0.0,3.8791,3.9956,4.042,4.1111,4.2517,4.1894,4.1662,4.276,4.1723,4.081,4.0861,0.0,0.0,0.0,0.0,0.0,0.0,0.0,0.0,0.0,0.0,0.0,0.0,0.0,0.0,0.0,0.0,0.0,0.0,0.0,0.0,0.0,0.0,0.0,0.0,0.0,0.0,0.0,0.0,0.0,0.0,2.1179,0.0,0.0,0.0,0.0,0.0,0.0,0.0,0.0,0.0,0.0,0.0,0.0,0.0,0.0,0.0,0.0,0.0,0.0,0.0,0.0,0.0,0.0,2.5398,2.5429,2.6966,2.7774,2.7829,2.8583,2.8626,2.7848,2.7774,2.7027,2.5466,0.0,0.0,0.0,0.0,0.0,0.0,0.0,0.0,0.0,0.0,0.0,0.0,0.0,0.0,0.0,0.0,0.0,0.0,0.0,0.0,0.0,0.0,0.0,0.0,0.0,0.0,2.7983,2.9449,3.0409,0.0,0.0,0.0,0.0,0.0,0.0,0.0,0.0,0.0,0.0,3.8141,3.8845,4.059,4.1623,4.2214,4.2473,4.3167,4.3466,4.2817,4.2025,4.1538,0.0,0.0,0.0,0.0,0.0,0.0,0.0,0.0,0.0,0.0,0.0,0.0,0.0,0.0,0.0,0.0,0.0,0.0,0.0,0.0,0.0,0.0,0.0,0.0,0.0,0.0,0.0,2.3944,2.3897,0.0,0.0,0.0,0.0,0.0,0.0,0.0,0.0,0.0,0.0,0.0,2.6309,2.6262,0.0,0.0,0.0,0.0,0.0,0.0,0.0,0.0,0.0,0.0,0.0,0.0,2.6471,2.699,2.7523,2.8044,2.8583,2.8858,2.8858,2.8583,2.8086,2.731,2.6245,0.0,0.0,0.0,0.0,0.0,0.0,0.0,0.0,0.0,0.0,0.0,0.0,0.0,0.0,0.0,0.0,0.0,0.0,0.0,0.0,0.0,0.0,0.0,0.0,0.0,2.896,0.0,0.0,0.0,0.0,0.0,0.0,0.0,0.0,0.0,0.0,0.0,3.6317,3.7706,3.8419,3.9065,3.9744,4.0647,4.1481,0.0,0.0,0.0,0.0,0.0,0.0,0.0,0.0,0.0,0.0,0.0,0.0,0.0,0.0,4.1393,4.1393,4.1393,4.1393,4.1393,0.0,0.0,0.0,0.0,0.0,0.0,0.0,0.0,0.0,0.0,0.0,0.0,0.0,0.0,2.5307,0.0,2.4772,0.0,0.0,0.0,0.0,0.0,0.0,0.0,0.0,2.6748,2.708,2.7758,2.7751,2.7732,0.0,2.782,2.7786,0.0,0.0,0.0,0.0,0.0,0.0,0.0,0.0,2.7278,2.7774,2.8081,2.8479,2.8968,2.8987,2.8987,2.8987,2.8227,2.7548,2.7034,2.6282,2.6142,0.0,0.0,0.0,0.0,0.0,0.0,0.0,0.0,0.0,0.0,0.0,0.0,0.0,0.0,0.0,0.0,0.0,0.0,0.0,0.0,0.0,0.0,0.0,3.0383,0.0,0.0,0.0,0.0,0.0,0.0,0.0,0.0,0.0,3.5312,3.6271,3.7225,3.8081,3.8674,3.9198,3.9629,0.0,0.0,0.0,0.0,0.0,0.0,0.0,4.2968,4.3211,4.3302,4.3478,4.3833,4.3904,4.3871,4.3821,0.0,0.0,4.3196,4.3085,4.3085,4.3085,4.3085,4.3085,4.3085,4.3085,4.3085,0.0,0.0,0.0,0.0,0.0,0.0,0.0,0.0,2.539,2.5389,0.0,2.5337,0.0,0.0,0.0,0.0,0.0,2.5683,0.0,0.0,2.8179,2.9054,3.0568,3.0549,3.0628,3.0776,3.0704,3.0386,2.9684,2.7705,0.0,0.0,0.0,0.0,0.0,0.0,2.7879,2.7939,2.8693,2.9078,2.9115,2.9078,2.9023,2.8968,2.8259,2.7848,2.7811,2.7071,2.6688,2.6786,2.6722,0.0,0.0,0.0,0.0,0.0,0.0,0.0,0.0,0.0,0.0,0.0,0.0,0.0,0.0,0.0,0.0,0.0,0.0,0.0,0.0,3.1036,0.0,0.0,0.0,0.0,0.0,0.0,0.0,0.0,0.0,0.0,3.7559,3.7677,3.7991,3.8774,0.0,0.0,0.0,0.0,4.1938,4.2932,4.3765,4.436,4.4635,4.4039,4.3633,4.3898,0.0,0.0,4.5227,4.5381,4.5347,4.5381,4.5309,4.4935,4.3468,4.3269,4.325,4.3231,4.3269,4.3177,4.3201,4.335,4.3297,2.9937,0.0,0.0,0.0,0.0,2.819,2.8222,2.8262,2.8231,2.819,2.8131,2.7523,0.0,0.0,0.0,0.0,0.0,0.0,2.836,2.9477,2.947,2.9809,3.0419,3.0396,3.0414,3.0437,3.0547,3.0502,3.0277,2.9868,2.9166,2.8222,0.0,0.0,0.0,0.0,2.9512,2.9549,3.0307,3.0705,3.0705,3.0155,2.9574,2.9005,2.8767,2.8662,2.8662,2.7879,2.7737,2.8294,2.7285,0.0,0.0,0.0,0.0,0.0,0.0,0.0,0.0,0.0,0.0,0.0,0.0,0.0,0.0,0.0,0.0,0.0,0.0,0.0,3.1887,3.2657,3.333,0.0,0.0,0.0,0.0,0.0,0.0,0.0,0.0,0.0,3.829,3.7919,3.7864,0.0,0.0,3.9146,3.9996,4.085,4.1753,4.2731,4.3554,0.0,4.451,4.4417,4.4373,4.4636,4.4819,4.501,4.5215,4.5339,4.5375,4.5339,4.537,4.5242,4.4863,4.4737,4.4714,4.4737,4.4784,4.4807,4.4811,4.4852,4.4859,3.2082,3.0787,2.9975,2.9654,2.9726,2.9452,2.9333,2.9377,2.9333,2.9315,2.9263,2.875,2.8536,2.8536,2.821,0.0,0.0,0.0,2.9489,3.0361,3.0693,3.1084,3.1498,3.1856,3.2048,3.2081,3.2193,3.1943,3.137,3.1535,3.1067,3.0026,0.0,0.0,2.9875,3.0363,3.0607,3.0619,3.1096,3.1353,3.1371,3.0919,3.0283,2.9506,2.9482,2.9317,2.9005,2.8552,2.8497,2.8968,2.8116,2.7978,0.0,0.0,0.0,0.0,0.0,0.0,0.0,0.0,0.0,0.0,0.0,2.8555,0.0,0.0,0.0,0.0,3.2556,3.3209,3.399,3.4504,0.0,0.0,0.0,0.0,0.0,0.0,0.0,3.7456,3.7779,3.8164,3.8608,3.8267,3.8164,3.8652,3.901,3.9409,3.9879,0.0,4.1944,4.2608,4.341,4.4023,4.4329,4.4466,4.4619,4.4896,4.5049,4.5164,4.5136,4.5227,4.527,4.523,4.5253,4.5286,4.5325,4.533,4.5356,4.5395,4.5429,4.5467,4.5471,4.5513,4.5568,3.3717,3.3474,3.1482,3.061,3.0505,2.9833,2.9569,2.9561,2.9578,2.9515,2.9467,2.9515,2.9489,2.9476,2.9657,0.0,2.9946,2.9955,3.0396,3.1185,3.1915,3.2682,3.3427,3.4202,3.4662,3.4744,3.4826,3.4172,3.2894,3.2867,3.2558,3.1962,3.1582,3.1411,3.1384,3.1452,3.1452,3.1392,3.1531,3.1533,3.1411,3.1463,3.1097,3.032,3.0246,2.9855,2.9152,2.9023,2.9023,2.9091,2.9078,2.9464,3.0228,0.0,0.0,0.0,0.0,0.0,0.0,0.0,0.0,0.0,0.0,0.0,0.0,0.0,0.0,0.0,3.4231,0.0,3.6211,3.6285,0.0,0.0,0.0,3.6413,3.6486,3.7162,3.7603,3.7603,0.0,0.0,3.8699,3.8755,3.8799,3.881,3.9441,3.9945,4.0073,4.1358,4.239,4.2704,4.3332,4.3902,4.4176,4.4329,4.4503,4.4719,4.4877,4.4967,4.4967,4.502,4.508,4.5091,4.5072,4.512,4.5181,4.5197,4.524,4.5346,4.539,4.5419,4.5419,4.5457,4.5495,3.6502,3.5887,3.4781,3.3744,3.2822,3.2627,3.2582,3.2625,3.2579,3.2539,3.2526,3.2432,3.2442,3.2529,3.2632,3.2743,3.2859,3.2876,3.3059,3.343,3.3603,3.3842,3.4144,3.4356,3.4462,3.449,3.4567,3.4441,3.4155,3.4243,3.4261,3.4127,3.4155,3.3703,3.2868,3.3502,3.3593,3.3033,3.3649,3.3392,3.2258,3.2275,3.191,3.1152,3.0522,3.0112,2.991,2.9317,2.928,2.9873,2.9916,3.0295,3.1078,3.1109,0.0,0.0,0.0,0.0,0.0,0.0,0.0,0.0,0.0,3.1438,3.2367,0.0,3.3666,0.0,3.5385,3.6083,3.6292,3.6285,0.0,0.0,3.7217,3.7448,3.8065,3.8285,3.8421,3.8414,3.8597,3.8699,3.8699,3.9221,3.9614,3.9633,3.978,4.033,4.1515,4.2011,4.261,4.3338,4.3667,4.3894,4.4153,4.4351,4.4482,4.4551,4.4692,4.4783,4.4764,4.4833,4.4883,4.495,4.4985,4.5057,4.5114,4.5125,4.5136,4.5173,4.5293,4.5404,4.5409,4.5405,4.5424,3.7669,3.7257,3.6811,3.6197,3.5406,3.4077,3.3532,3.3556,3.3521,3.3507,3.3507,3.3427,3.3486,3.3601,3.3635,3.371,3.3802,3.3819,3.3872,3.4009,3.4387,3.4599,3.4683,3.5119,3.5342,3.5325,3.5451,3.5302,3.5011,3.5076,3.5115,3.5179,3.5336,3.527,3.4995,3.4976,3.4785,3.4459,3.4673,3.4393,3.3586,3.3283,3.2742,3.1953,3.1146,3.0558,3.021,2.9776,2.9745,3.0167,3.054,3.1091,3.188,3.1935,3.2259,0.0,0.0,0.0,0.0,0.0,0.0,0.0,0.0,0.0,0.0,0.0,3.5292,3.6064,3.6549,3.6971,3.7349,3.7375,3.7551,3.7999,3.8036,3.8219,3.8663,3.8699,3.8699,3.8699,3.8699,3.8836,3.9184,3.9633,4.0183,4.0844,4.0965,4.1277,4.2121,4.258,4.3053,4.3602,4.3771,4.3875,4.4153,4.4304,4.4354,4.4416,4.4535,4.4612,4.4612,4.4692,4.4764,4.4821,4.4852,4.4889,4.4979,4.5003,4.5033,4.5108,4.5186,4.5275,4.5307,4.5355,4.5409,3.813,3.8029,3.8046,3.799,3.7702,3.5087,3.3971,3.3971,3.3971,3.3931,3.3835,3.3846,3.3838,3.3848,3.3858,3.3955,3.41,3.41,3.4168,3.4318,3.5062,3.5406,3.5451,3.6284,3.6717,3.6755,3.6762,3.6425,3.5784,3.5673,3.5638,3.5638,3.5834,3.6312,3.6972,3.6061,3.5599,3.5643,3.5178,3.4925,3.487,3.4266,3.3562,3.2773,3.1971,3.1225,3.054,3.0411,3.0411,3.054,3.1182,3.1916,3.2699,3.2839,3.3537,0.0,3.5089,0.0,0.0,0.0,0.0,0.0,0.0,0.0,0.0,3.6384,3.6787,3.7584,3.7658,3.7944,3.8652,3.8699,3.8699,3.8699,3.8699,3.8699,3.8699,3.8699,3.8699,3.8699,3.8773,3.9148,3.9761,4.0055,4.0789,4.1956,4.2323,4.2415,4.2533,4.3047,4.3485,4.359,4.3728,4.391,4.4099,4.4176,4.4229,4.4278,4.4394,4.4473,4.448,4.4572,4.4666,4.4672,4.4673,4.4725,4.4846,4.487,4.4926,4.5014,4.5074,4.5108,4.5181,4.5272,4.5378,3.9339,3.8802,3.8797,3.8447,3.7855,3.7285,3.7048,3.7048,3.7031,3.6721,3.6158,3.6158,3.5819,3.5255,3.521,3.561,3.6298,3.6281,3.6678,3.7348,3.7507,3.7587,3.7604,3.7786,3.794,3.7995,3.7467,3.7208,3.7182,3.662,3.6325,3.6318,3.6529,3.6679,3.6778,0.0,0.0,0.0,3.5965,3.5408,3.4834,3.4788,3.438,3.3605,3.2816,0.0,3.2142,3.1513,3.1476,3.2112,3.2295,0.0,0.0,0.0,0.0,0.0,0.0,0.0,0.0,0.0,0.0,0.0,3.6978,3.6666,3.6347,3.6898,3.7613,3.8395,3.8461,3.8542,3.8681,3.8699,3.8699,3.8699,3.8699,3.8699,3.8699,3.8699,3.8699,3.8699,3.9276,3.9743,3.9981,4.1001,4.1919,4.2304,4.2845,4.3231,4.3249,4.3396,4.3513,4.359,4.3751,4.3899,4.3937,4.4081,4.4202,4.4229,4.4278,4.4336,4.4344,4.4416,4.4475,4.4517,4.4597,4.4639,4.4712,4.4744,4.4776,4.4833,4.4914,4.4967,4.5103,4.52,4.5249,4.0202,0.0,3.9525,3.9339,0.0,3.9,3.8983,3.8949,3.821,3.7686,3.733,3.7342,3.7127,3.6744,3.6744,3.6965,3.7395,3.7395,3.7634,3.8049,3.8086,3.8103,3.8103,3.8179,3.8236,3.8282,3.798,3.7892,3.798,3.7683,3.7536,3.7536,3.7777,3.7676,3.7252,3.7279,3.7298,3.7297,3.6714,3.6248,3.5979,3.5312,3.4768,3.4362,3.3225,0.0,0.0,0.0,0.0,0.0,0.0,0.0,0.0,0.0,0.0,3.6193,3.6659,3.7063,3.7441,3.7477,3.7661,3.8072,3.8083,3.7918,3.7514,3.7863,3.8248,3.8652,3.8699,3.8699,3.8699,3.8699,3.8699,3.8699,3.8699,3.8699,3.8736,3.9056,3.9294,3.9368,4.0002,4.0616,4.1038,4.1735,4.2451,4.2837,4.3231,4.3488,4.3488,4.3488,4.3532,4.3582,4.3684,4.3775,4.3843,4.3974,4.4068,4.4065,4.4176,4.4244,4.4259,4.43,4.4347,4.4401,4.4437,4.4475,4.459,4.4599,4.4632,4.4712,4.477,4.4827,4.4931,4.5068,4.5159,4.0963,4.0316,4.0286,4.0202,4.0113,4.0113,4.0113,4.0028,0.0,0.0,0.0,3.8091,3.8012,3.791,3.791,3.7961,3.8079,3.8108,3.8159,3.8294,3.8352,3.8365,3.8394,3.8489,3.8565,3.8571,3.855,3.858,3.858,3.8585,3.8583,3.8628,3.8877,3.8704,3.8115,3.7696,3.7707,3.8061,3.7433,3.7128,3.7148,3.5955,3.5286,3.5203,3.3933,3.3268,3.3243,3.325,3.325,3.3261,3.3874,3.4541,3.5181,3.5353,3.6064,3.7364,3.7639,3.8017,3.8644,3.8699,3.8699,3.8699,3.8699,3.8699,3.8699,3.8699,3.8699,3.8699,3.8699,3.8699,3.8699,3.8699,3.8699,3.8699,3.8836,3.892,3.8982,3.9625,4.012,4.0194,4.0818,4.1535,4.2131,4.2415,4.2727,4.3322,4.3469,4.3488,4.3488,4.3488,4.3523,4.3556,4.3599,4.3651,4.3744,4.3835,4.3865,4.3918,4.4026,4.4146,4.4142,4.4211,4.4263,4.4304,4.4285,4.4351,4.4437,4.4473,4.4522,4.4639,4.4672,4.4673,4.4789,4.4932,4.5049,4.1711,4.1052,4.1035,4.0679,4.0113,4.0113,4.0113,4.0066,3.9876,3.944,3.8853,3.8865,3.8497,3.791,3.791,3.8244,3.8819,3.8836,3.9169,3.9779,3.9816,3.9804,3.9816,3.9828,3.9908,3.9955,3.9372,3.9186,3.9271,3.874,3.8482,3.8634,3.8877,3.9126,3.9264,3.861,3.8471,3.8897,3.822,3.7606,3.7124,3.7017,3.6629,3.5981,3.5827,3.5796,3.5771,3.5752,3.5771,3.5796,3.5906,3.6009,3.6119,3.6751,3.7265,3.7511,3.8146,3.8597,3.8699,3.8699,3.8699,3.8699,3.8699,3.8699,3.8699,3.8699,3.8699,3.8699,3.8699,3.8699,3.8699,3.8718,3.8762,3.881,3.9331,3.9735,3.9743,4.0451,4.0938,4.0956,4.1635,4.2158,4.2378,4.29,4.3286,4.3451,4.3488,4.3488,4.3488,4.3488,4.3488,4.3505,4.3556,4.3599,4.3642,4.3736,4.3786,4.382,4.3883,4.3963,4.3963,4.4107,4.4191,4.4214,4.4252,4.4311,4.4322,4.4322,4.4387,4.4489,4.4542,4.4565,4.4685,4.4796,4.4883,4.2455,4.1813,4.1796,4.1373,4.0663,4.0265,4.0113,4.0113,4.0113,3.9914,3.9622,3.9592,3.9419,3.9119,3.9085,3.9288,3.9592,3.9592,3.9774,4.0079,4.0113,4.0113,4.0113,4.0113,4.0121,4.0154,3.9928,3.9893,3.9994,3.9757,3.972,3.9825,3.9688,3.9819,4.0169,3.9436,3.9253,3.966,3.8537,3.79,3.7754,3.7419,3.7084,3.6738,3.6487,3.6285,3.6285,3.6285,3.6285,3.6285,3.6285,3.6494,3.6934,3.7309,3.7687,3.8127,3.8505,3.8699,3.8699,3.8699,3.8699,3.8718,3.9111,3.935,3.9331,3.8946,3.8699,3.8699,3.8699,3.8891,3.9294,3.935,3.9507,3.9966,4.0351,4.0534,4.0634,4.1258,4.1746,4.1819,4.2451,4.2937,4.2955,4.3267,4.3488,4.3488,4.3488,4.3488,4.3488,4.3488,4.3488,4.3488,4.3522,4.3558,4.3558,4.3625,4.3676,4.3684,4.3777,4.3835,4.3843,4.3955,4.4026,4.4042,4.4085,4.4173,4.4211,4.4252,4.4304,4.4365,4.4411,4.4482,4.4572,4.4672,4.4796,4.3234,4.254,4.254,4.2117,4.1424,4.0844,4.0603,4.0608,4.062,4.0591,4.057,4.0265,4.0113,4.0113,4.0113,4.0096,4.0113,4.0113,4.0096,4.0113,4.0113,4.0113,4.0113,4.0113,4.0113,4.0113,4.0184,4.0337,4.0497,4.0612,4.0781,4.0913,4.055,4.0589,4.1067,4.027,4.0064,4.036,3.9112,3.8463,3.852,3.7834,3.7494,3.752,3.7114,3.6835,3.6842,3.6853,3.6835,3.6835,3.6835,3.7118,3.7713,3.776,3.8054,3.8626,3.8699,3.8799,3.8964,3.8982,3.9048,3.9239,3.98,4.0175,4.012,3.9625,3.9232,3.9232,3.9305,3.9544,4.0047,4.0175,4.0432,4.1022,4.1279,4.136,4.1434,4.2084,4.258,4.2635,4.3139,4.3469,4.3488,4.3488,4.3488,4.3488,4.3488,4.3488,4.3488,4.3488,4.3488,4.3488,4.3488,4.3488,4.3515,4.3558,4.3583,4.3573,4.3686,4.3736,4.3761,4.3826,4.3875,4.3899,4.3937,4.4016,4.4123,4.4153,4.4199,4.4281,4.4322,4.4394,4.4482,4.4572,4.4712,4.4012,4.3355,4.3321,4.2878,4.2219,4.2097,4.2046,4.2046,4.2097,4.2097,4.1894,4.0705,4.0146,4.0113,4.013,4.013,4.0113,4.0113,4.0113,4.0113,4.0113,4.0113,4.0113,4.0113,4.0113,4.0113,4.0125,4.0263,4.048,4.0534,4.0746,4.1128,4.1128,4.1313,4.1722,4.1085,4.0892,4.126,4.0424,3.977,3.9287,3.8637,3.8289,3.8279,3.8402,3.8479,3.8377,3.8487,3.8461,3.8487,3.8432,3.8479,3.856,3.8579,3.8615,3.8718,3.8718,3.9019,3.9698,3.9798,4.0084,4.0791,4.092,4.0975,4.0993,4.0938,4.0865,4.0857,4.0875,4.0828,4.0967,4.0993,4.1067,4.1305,4.1819,4.2176,4.2278,4.291,4.3378,4.3396,4.3414,4.3488,4.3488,4.3488,4.3488,4.3488,4.3488,4.3488,4.3488,4.3488,4.3488,4.3488,4.3488,4.3488,4.3488,4.3488,4.3523,4.3513,4.3565,4.3625,4.3651,4.3728,4.3804,4.3794,4.3867,4.3931,4.3955,4.3984,4.4062,4.4169,4.4229,4.4281,4.4444,4.4503,4.4619,4.4398,4.4096,4.4127,4.3673,4.2946,4.2503,4.2303,4.2303,4.2303,4.2303,4.2249,4.1657,4.1166,4.0764,4.0747,4.0523,4.013,4.0113,4.0113,4.0113,4.0113,4.0113,4.0113,4.0113,4.0113,4.0113,4.0113,4.0234,4.0497,4.0667,4.0901,4.1175,4.1209,4.1464,4.1927,4.1669,4.1711,4.2068,4.1323,4.086,4.0646,3.9676,3.9094,3.9082,3.886,3.8699,3.8699,3.8699,3.8699,3.8699,3.8699,3.8699,3.8699,3.8699,3.8909,3.9376,3.9856,4.0259,4.0589,4.0616,4.0755,4.1085,4.1544,4.1801,4.1846,4.2249,4.2525,4.2415,4.1672,4.126,4.1727,4.1801,4.1984,4.2433,4.2827,4.2992,4.302,4.3267,4.3488,4.3488,4.3488,4.3488,4.3488,4.3488,4.3488,4.3488,4.3488,4.3488,4.3488,4.3488,4.3488,4.3488,4.3488,4.3488,4.3488,4.3488,4.3488,4.3515,4.3532,4.3539,4.3548,4.3599,4.3694,4.3694,4.3777,4.3826,4.3835,4.3907,4.3968,4.4042,4.4153,4.4244,4.4358,4.4416,4.451,4.4584,4.4584,4.4584,4.4279,4.3693,4.3166,4.2943,4.2926,4.2926,4.2926,4.2926,4.2943,4.2506,4.1833,4.158,4.12,4.0743,4.0692,4.0722,4.0675,4.0489,4.0392,4.0371,4.0163,4.0113,4.0113,4.0113,4.0234,4.051,4.0781,4.0995,4.1175,4.1209,4.1464,4.1934,4.2005,4.2181,4.2516,4.2006,4.1842,4.1841,4.0868,4.016,3.9922,3.9566,3.936,3.9368,3.9342,3.936,3.9368,3.936,3.936,3.936,3.936,3.9617,4.0175,4.0773,4.1187,4.1397,4.1434,4.1525,4.1764,4.2323,4.2635,4.2727,4.3176,4.3469,4.3378,4.2433,4.2084,4.2488,4.2643,4.29,4.3414,4.3488,4.3488,4.3469,4.3488,4.3488,4.3488,4.3488,4.3488,4.3488,4.3488,4.3488,4.3488,4.3488,4.3488,4.3488,4.3488,4.3488,4.3488,4.3488,4.3488,4.3488,4.3488,4.3488,4.3488,4.3496,4.3496,4.3488,4.3539,4.3583,4.36,4.3676,4.3718,4.3744,4.3792,4.3899,4.3931,4.4019,4.4169,4.4248,4.4314,4.438,4.4584,4.4584,4.4584,4.4564,4.4516,4.4445,4.4432,4.433,4.4412,4.4432,4.4364,4.4398,4.4042,4.322,4.2608,4.2232,4.2164,4.2083,4.208,4.1995,4.1441,4.1153,4.1102,4.0468,4.013,4.0214,4.0214,4.0301,4.0527,4.0764,4.0995,4.1197,4.1209,4.1464,4.1923,4.2005,4.2191,4.2514,4.2519,4.2599,4.2719,4.2195,4.15,4.0907,4.0858,4.0875,4.0912,4.0948,4.0938,4.0967,4.0893,4.0912,4.0948,4.0948,4.0967,4.1048,4.1122,4.148,4.2139,4.2231,4.2506,4.3176,4.3286,4.3414,4.3322,4.3414,4.3488,4.3488,4.3322,4.3286,4.3341,4.3304,4.3359,4.3451,4.3488,4.3488,4.3488,4.3488,4.3488,4.3488,4.3488,4.3488,4.3488,4.3488,4.3488,4.3488,4.3488,4.3488,4.3488,4.3488,4.3488,4.3488,4.3488,4.3488,4.3488,4.3488,4.3488,4.3488,4.3488,4.3488,4.3488,4.3488,4.3515,4.3523,4.3592,4.3625,4.3642,4.3701,4.381,4.3867,4.3889,4.4,4.4119,4.4184,4.4267,4.4584,4.4584,4.4584,4.4584,4.4584,4.4584,4.4584,4.4584,4.4584,4.4584,4.4584,4.4584,4.4448,4.4147,4.389,4.323,4.2354,4.2303,4.2303,4.2283,4.2029,4.1897,4.188,4.1606,4.1234,4.0861,4.0798,4.0696,4.0544,4.0764,4.1012,4.1163,4.1209,4.1475,4.1902,4.2005,4.2209,4.256,4.2609,4.2689,4.2892,4.2805,4.2613,4.2321,4.1517,4.1113,4.1113,4.1113,4.1113,4.1113,4.1113,4.1113,4.115,4.1599,4.1856,4.1911,4.2341,4.2763,4.3029,4.3065,4.3176,4.3433,4.3488,4.3488,4.3488,4.3488,4.3488,4.3488,4.3488,4.3488,4.3488,4.3488,4.3488,4.3488,4.3488,4.3488,4.3488,4.3488,4.3488,4.3488,4.3488,4.3488,4.3488,4.3488,4.3488,4.3488,4.3488,4.3488,4.3488,4.3488,4.3488,4.3488,4.3488,4.3488,4.3488,4.3488,4.3488,4.3488,4.3488,4.3488,4.3488,4.3488,4.3506,4.3506,4.3549,4.3558,4.3556,4.3599,4.3709,4.3802,4.3824,4.3881,4.3968,4.4073,4.4184,4.4584,4.4584,4.4584,4.4584,4.4584,4.4584,4.4584,4.4584,4.4584,4.4584,4.4584,4.4584,4.4584,4.4584,4.4584,4.409,4.3125,4.3044,4.3044,4.2997,4.2777,4.2658,4.2608,4.2405,4.2049,4.164,4.165,4.1401,4.0954,4.1125,4.1237,4.1197,4.1209,4.1482,4.1902,4.2005,4.2191,4.252,4.2609,4.2689,4.291,4.3096,4.3205,4.3087,4.2331,4.1874,4.1874,4.1874,4.1882,4.1864,4.1856,4.1874,4.1956,4.2396,4.2698,4.2753,4.3176,4.3488,4.3488,4.3488,4.3488,4.3488,4.3488,4.3488,4.3488,4.3488,4.3488,4.3488,4.3488,4.3488,4.3488,4.3488,4.3488,4.3488,4.3488,4.3488,4.3488,4.3488,4.3488,4.3488,4.3488,4.3488,4.3488,4.3488,4.3488,4.3488,4.3488,4.3488,4.3488,4.3488,4.3488,4.3488,4.3488,4.3488,4.3488,4.3488,4.3488,4.3488,4.3488,4.3488,4.3488,4.3488,4.3488,4.3488,4.3488,4.3488,4.3505,4.3539,4.3625,4.3719,4.3761,4.3783,4.3881,4.4011,4.4096,4.4601,4.4598,4.4584,4.4584,4.4584,4.4584,4.4584,4.4584,4.4584,4.4584,4.4584,4.4584,4.4584,4.4584,4.4584,4.4547,4.4412,4.433,4.4347,4.4296,4.3724,4.3423,4.3372,4.2828,4.2486,4.233,4.2546,4.227,4.1647,4.1869,4.1796,4.1372,4.1348,4.1622,4.203,4.2069,4.2199,4.251,4.2609,4.2689,4.291,4.3096,4.3205,4.3233,4.3255,4.3304,4.3359,4.3359,4.3286,4.3341,4.3359,4.3451,4.3286,4.3378,4.3451,4.3396,4.3488,4.3488,4.3488,4.3488,4.3488,4.3488,4.3488,4.3488,4.3488,4.3488,4.3488,4.3488,4.3488,4.3488,4.3488,4.3488,4.3488,4.3488,4.3488,4.3488,4.3488,4.3488,4.3488,4.3488,4.3488,4.3488,4.3488,4.3488,4.3488,4.3488,4.3488,4.3488,4.3488,4.3488,4.3488,4.3488,4.3488,4.3488,4.3488,4.3488,4.3488,4.3488,4.3488,4.3488,4.3488,4.3488,4.3488,4.3488,4.3488,4.3488,4.3488,4.3522,4.3558,4.3617,4.3651,4.3693,4.3783,4.3889,4.4011,4.5043,4.4601,4.4584,4.4584,4.4584,4.4584,4.4584,4.4584,4.4584,4.4584,4.4584,4.4584,4.4584,4.4584,4.4584,4.4584,4.4584,4.4584,4.4584,4.455,4.4313,4.4195,4.4161,4.3958,4.3602,4.3105,4.2819,4.2608,4.2454,4.2677,4.2777,4.271,4.2253,4.2292,4.2709,4.2299,4.2181,4.255,4.2609,4.2699,4.2892,4.3096,4.3205,4.3233,4.3383,4.3488,4.3488,4.3488,4.3488,4.3488,4.3488,4.3488,4.3488,4.3488,4.3488,4.3488,4.3488,4.3488,4.3488,4.3488,4.3488,4.3488,4.3488,4.3488,4.3488,4.3488,4.3488,4.3488,4.3488,4.3488,4.3488,4.3488,4.3488,4.3488,4.3488,4.3488,4.3488,4.3488,4.3488,4.3488,4.3488,4.3488,4.3488,4.3488,4.3488,4.3488,4.3488,4.3488,4.3488,4.3488,4.3488,4.3488,4.3488,4.3488,4.3488,4.3488,4.3488,4.3488,4.3488,4.3488,4.3488,4.3488,4.3488,4.3488,4.3488,4.3488,4.3488,4.3496,4.3532,4.3549,4.3592,4.3632,4.3682,4.3773,4.3889,4.5432,4.499,4.4702,4.4584,4.4584,4.4584,4.4584,4.4584,4.4584,4.4584,4.4584,4.4584,4.4584,4.4584,4.4584,4.4584,4.4584,4.4584,4.4584,4.4584,4.4584,4.4584,4.4584,4.4584,4.4381,4.3931,4.3666,4.3406,4.3163,4.3447,4.3561,4.3405,4.3024,4.3057,4.3419,4.2819,4.2618,4.2953,4.2761,4.2689,4.29,4.3096,4.3205,4.3242,4.3402,4.3479,4.3488,4.3488,4.3488,4.3488,4.3488,4.3488,4.3488,4.3488,4.3488,4.3488,4.3488,4.3488,4.3488,4.3488,4.3488,4.3488,4.3488,4.3488,4.3488,4.3488,4.3488,4.3488,4.3488,4.3488,4.3488,4.3488,4.3488,4.3488,4.3488,4.3488,4.3488,4.3488,4.3488,4.3488,4.3488,4.3488,4.3488,4.3488,4.3488,4.3488,4.3488,4.3488,4.3488,4.3488,4.3488,4.3488,4.3488,4.3488,4.3488,4.3488,4.3488,4.3488,4.3488,4.3488,4.3488,4.3488,4.3488,4.3488,4.3488,4.3488,4.3488,4.3488,4.3496,4.3513,4.3531,4.3573,4.3624,4.3674,4.3783,4.5807,4.5686,4.5024,4.4821,4.4821,4.4753,4.4736,4.4685,4.4601,4.4584,4.4584,4.4584,4.4584,4.4584,4.4584,4.4584,4.4584,4.4584,4.4584,4.4584,4.4584,4.4584,4.4584,4.4584,4.4547,4.4566,4.4749,4.4561,4.4019,4.4247,4.4127,4.3835,4.3751,4.3845,4.411,4.3581,4.3358,4.3537,4.3049,4.2843,4.2955,4.3096,4.3224,4.3233,4.3402,4.3488,4.3488,4.3488,4.3488,4.3488,4.3488,4.3488,4.3488,4.3488,4.3488,4.3488,4.3488,4.3488,4.3488,4.3488,4.3488,4.3488,4.3488,4.3488,4.3488,4.3488,4.3488,4.3488,4.3488,4.3488,4.3488,4.3488,4.3488,4.3488,4.3488,4.3488,4.3488,4.3488,4.3488,4.3488,4.3488,4.3488,4.3488,4.3488,4.3488,4.3488,4.3488,4.3488,4.3488,4.3488,4.3488,4.3488,4.3488,4.3488,4.3488,4.3488,4.3488,4.3488,4.3488,4.3488,4.3488,4.3488,4.3488,4.3488,4.3488,4.3488,4.3488,4.3488,4.3488,4.3496,4.3513,4.3531,4.3565,4.3615,4.3666,4.6991,4.6498,4.631,4.6225,4.614,4.5652,4.5415,4.5331,4.4838,4.4702,4.4618,4.4584,4.4668,4.4601,4.4649,4.4584,4.4668,4.4666,4.4584,4.4584,4.4584,4.4584,4.4584,4.4598,4.4654,4.4765,4.4896,4.4943,4.4892,4.5074,4.5177,4.5199,4.4787,4.48,4.498,4.446,4.4014,4.3835,4.3642,4.3323,4.3112,4.3178,4.3251,4.3349,4.3445,4.3479,4.3488,4.3488,4.3488,4.3488,4.3488,4.3488,4.3488,4.3488,4.3488,4.3488,4.3488,4.3488,4.3488,4.3488,4.3488,4.3488,4.3488,4.3488,4.3488,4.3488,4.3488,4.3488,4.3488,4.3488,4.3488,4.3488,4.3488,4.3488,4.3488,4.3488,4.3488,4.3488,4.3488,4.3488,4.3488,4.3488,4.3488,4.3488,4.3488,4.3488,4.3488,4.3488,4.3488,4.3488,4.3488,4.3488,4.3488,4.3488,4.3488,4.3488,4.3488,4.3488,4.3488,4.3488,4.3488,4.3488,4.3488,4.3488,4.3488,4.3488,4.3488,4.3488,4.3488,4.3488,4.3496,4.3513,4.3549,4.3583,4.3599,4.765,4.7225,4.6921,4.6786,4.6766,4.6329,4.6177,4.6075,4.5734,4.5531,4.5514,4.5514,4.5514,4.5531,4.5531,4.5546,4.5514,4.5546,4.5362,4.5007,4.4753,4.4601,4.4584,4.4598,4.4668,4.4806,4.4923,4.5056,4.5217,4.5472,4.5654,4.5716,4.5647,4.5686,4.5835,4.5349,4.5,4.4797,4.4538,4.414,4.3649,4.367,4.3524,4.3486,4.3472,4.3488,4.3488,4.3488,4.3488,4.3488,4.3488,4.3488,4.3488,4.3488,4.3488,4.3488,4.3488,4.3488,4.3488,4.3488,4.3488,4.3488,4.3488,4.3488,4.3488,4.3488,4.3488,4.3488,4.3488,4.3488,4.3488,4.3488,4.3488,4.3488,4.3488,4.3488,4.3488,4.3488,4.3488,4.3488,4.3488,4.3488,4.3488,4.3488,4.3488,4.3488,4.3488,4.3488,4.3488,4.3488,4.3488,4.3488,4.3488,4.3488,4.3488,4.3488,4.3488,4.3488,4.3488,4.3488,4.3488,4.3488,4.3488,4.3488,4.3488,4.3488,4.3488,4.3488,4.3488,4.3488,4.3488,4.3488,4.3523,4.354,4.3556,4.8022,4.7954,4.731,4.7037,4.7073,4.6938,4.6904,4.6904,4.6701,4.6665,4.665,4.6735,4.6566,4.6786,4.6498,4.6701,4.6718,4.6563,4.631,4.5802,4.5328,4.5024,4.5058,4.4702,4.4713,4.4848,4.4968,4.5086,4.5274,4.5498,4.5667,4.5841,4.604,4.6327,4.6383,4.61,4.6078,4.5914,4.5518,4.5005,4.4504,4.4317,4.4044,4.375,4.3499,4.3506,4.3488,4.3488,4.3488,4.3488,4.3488,4.3488,4.3488,4.3488,4.3488,4.3488,4.3488,4.3488,4.3488,4.3488,4.3488,4.3488,4.3488,4.3488,4.3488,4.3488,4.3488,4.3488,4.3488,4.3488,4.3488,4.3488,4.3488,4.3488,4.3488,4.3488,4.3488,4.3488,4.3488,4.3488,4.3488,4.3488,4.3488,4.3488,4.3488,4.3488,4.3488,4.3488,4.3488,4.3488,4.3488,4.3488,4.3488,4.3488,4.3488,4.3488,4.3488,4.3488,4.3488,4.3488,4.3488,4.3488,4.3488,4.3488,4.3488,4.3488,4.3488,4.3488,4.3488,4.3488,4.3488,4.3488,4.3488,4.3496,4.3522,4.8781,4.8765,4.858,4.8528,4.8426,4.7936,4.7667,4.7616,4.7056,4.6921,4.6819,4.6819,4.6853,4.6836,4.6921,4.6786,4.6904,4.6887,4.6667,4.6597,4.6447,4.6312,4.6039,4.5261,4.4788,4.4964,4.4995,4.5113,4.534,4.5589,4.5757,4.5846,4.624,4.6542,4.6554,4.6743,4.662,4.6295,4.6095,4.5824,4.5289,4.4791,4.4501,4.4298,4.3837,4.3524,4.3488,4.3488,4.3488,4.3488,4.3488,4.3488,4.3488,4.3488,4.3488,4.3488,4.3488,4.3488,4.3488,4.3488,4.3488,4.3488,4.3488,4.3488,4.3488,4.3488,4.3488,4.3488,4.3488,4.3488,4.3488,4.3488,4.3488,4.3488,4.3488,4.3488,4.3488,4.3488,4.3488,4.3488,4.3488,4.3488,4.3488,4.3488,4.3488,4.3488,4.3488,4.3488,4.3488,4.3488,4.3488,4.3488,4.3488,4.3488,4.3488,4.3488,4.3488,4.3488,4.3488,4.3488,4.3488,4.3488,4.3488,4.3488,4.3488,4.3488,4.3488,4.3488,4.3488,4.3488,4.3488,4.3488,4.3488,4.3488,4.3653,4.9018,4.9018,4.9018,4.9018,4.8951,4.858,4.8411,4.8343,4.8005,4.7817,4.7834,4.7834,4.7834,4.7817,4.7834,4.7851,4.7733,4.7445,4.7327,4.7225,4.7005,4.6769,4.6747,4.6142,4.5691,4.5528,4.5145,4.5174,4.5393,4.5676,4.58,4.5846,4.632,4.6566,4.6672,4.7037,4.7034,4.6874,4.688,4.6708,4.6156,4.5776,4.5104,4.4784,4.4268,4.3938,4.3543,4.3488,4.3488,4.3488,4.3488,4.3488,4.3488,4.3488,4.3488,4.3488,4.3488,4.3488,4.3488,4.3488,4.3488,4.3488,4.3488,4.3488,4.3488,4.3488,4.3488,4.3488,4.3488,4.3488,4.3488,4.3488,4.3488,4.3488,4.3488,4.3488,4.3488,4.3488,4.3488,4.3488,4.3488,4.3488,4.3488,4.3488,4.3488,4.3488,4.3488,4.3488,4.3488,4.3488,4.3488,4.3488,4.3488,4.3488,4.3488,4.3488,4.3488,4.3488,4.3488,4.3488,4.3488,4.3488,4.3488,4.3488,4.3488,4.3488,4.3488,4.3488,4.3488,4.3488,4.3488,4.3488,4.3506,4.3543,4.3846,4.9018,4.9018,4.9018,4.9018,4.9018,4.8984,4.8968,4.8984,4.9018,4.8815,4.8984,4.9018,4.8798,4.8934,4.89,4.8984,4.8798,4.8394,4.8073,4.7988,4.7614,4.7411,4.7304,4.7119,4.6873,4.6368,4.5891,4.5678,4.5743,4.5858,4.6042,4.6,4.6338,4.6625,4.6754,4.7046,4.7266,4.7248,4.747,4.7459,4.6996,4.6762,4.6073,4.5196,4.4663,4.436,4.3864,4.3635,4.3488,4.3488,4.3488,4.3488,4.3488,4.3488,4.3488,4.3488,4.3488,4.3488,4.3488,4.3488,4.3488,4.3488,4.3488,4.3488,4.3488,4.3488,4.3488,4.3488,4.3488,4.3488,4.3488,4.3488,4.3488,4.3488,4.3488,4.3488,4.3488,4.3488,4.3488,4.3488,4.3488,4.3488,4.3488,4.3488,4.3488,4.3488,4.3488,4.3488,4.3488,4.3488,4.3488,4.3488,4.3488,4.3488,4.3488,4.3488,4.3488,4.3488,4.3488,4.3488,4.3488,4.3488,4.3488,4.3488,4.3488,4.3488,4.3488,4.3488,4.3488,4.3488,4.3488,4.3488,4.3543,4.3598,4.4066,4.9018,4.9018,4.9018,4.9018,4.9018,4.9018,4.9018,4.9018,4.9018,4.9018,4.9018,4.9018,4.9018,4.9018,4.9018,4.9018,4.8951,4.8765,4.8731,4.8748,4.8494,4.8443,4.8352,4.808,4.7938,4.7865,4.7378,4.6952,4.6631,4.6691,4.6589,4.6317,4.6517,4.6743,4.6922,4.7176,4.7334,4.745,4.7689,4.7759,4.7625,4.726,4.6678,4.5764,4.525,4.4755,4.4378,4.3846,4.3488,4.3488,4.3488,4.3488,4.3488,4.3488,4.3488,4.3488,4.3488,4.3488,4.3488,4.3488,4.3488,4.3488,4.3488,4.3488,4.3488,4.3488,4.3488,4.3488,4.3488,4.3488,4.3488,4.3488,4.3488,4.3488,4.3488,4.3488,4.3488,4.3488,4.3488,4.3488,4.3488,4.3488,4.3488,4.3488,4.3488,4.3488,4.3488,4.3488,4.3488,4.3488,4.3488,4.3488,4.3488,4.3488,4.3488,4.3488,4.3488,4.3488,4.3488,4.3488,4.3488,4.3488,4.3488,4.3488,4.3488,4.3488,4.3488,4.3506,4.3488,4.3488,4.3488,4.3543,4.38,4.4093,4.458,4.9018,4.9018,4.9018,4.9018,4.9018,4.9018,4.9018,4.9018,4.9018,4.9018,4.9018,4.9018,4.9018,4.9018,4.9018,4.9018,4.9018,4.9018,4.9018,4.9018,4.9018,4.9048,4.9107,4.8834,4.8946,4.8988,4.8822,4.8217,4.7469,4.7499,4.7282,4.7024,4.7089,4.7163,4.7069,4.7198,4.7363,4.7522,4.7759,4.7935,4.803,4.772,4.7277,4.6608,4.6094,4.5553,4.47,4.4425,4.3901,4.3598,4.3488,4.3488,4.3506,4.3488,4.3488,4.3488,4.3488,4.3488,4.3488,4.3488,4.3488,4.3488,4.3488,4.3488,4.3488,4.3488,4.3506,4.3524,4.3488,4.3488,4.3488,4.3543,4.3488,4.3488,4.3543,4.3561,4.3524,4.3543,4.3598,4.3653,4.3616,4.3616,4.3488,4.3488,4.3488,4.3488,4.3488,4.3488,4.3488,4.3488,4.3488,4.3488,4.3488,4.3488,4.3488,4.3488,4.3488,4.3488,4.3488,4.3488,4.3488,4.3488,4.3488,4.3488,4.3488,4.3635,4.3524,4.3543,4.3524,4.3616,4.3938,4.4213,4.436,4.4654,4.5195,4.9018,4.9018,4.9018,4.9018,4.9018,4.9018,4.9018,4.9018,4.9018,4.9018,4.9018,4.9018,4.9018,4.9018,4.9018,4.9018,4.9018,4.9018,4.9018,4.9018,4.9018,4.9078,4.9214,4.9381,4.9477,4.9539,4.9757,4.938,4.8456,4.8304,4.8076,4.7807,4.7844,4.7696,4.747,4.7375,4.7446,4.7575,4.7772,4.7947,4.8072,4.8173,4.8039,4.7351,4.7186,4.6434,4.5498,4.5085,4.4709,4.425,4.3947,4.3773,4.3718,4.3598,4.3506,4.3488,4.3488,4.3488,4.3488,4.3488,4.3488,4.3488,4.3488,4.3488,4.3488,4.3524,4.3579,4.369,4.3773,4.3965,4.4167,4.4057,4.4075,4.4112,4.413,4.4038,4.4185,4.4259,4.4332,4.424,4.3965,4.3781,4.3726,4.3488,4.3488,4.3488,4.3488,4.3488,4.3488,4.3488,4.3488,4.3488,4.3488,4.3488,4.3488,4.3488,4.3488,4.3488,4.3488,4.3488,4.3488,4.3488,4.3579,4.3791,4.3883,4.3993,4.38,4.3836,4.4112,4.4397,4.469,4.4911,4.5057,4.5516,4.6113,4.9018,4.9018,4.9018,4.9018,4.9018,4.9018,4.9018,4.9018,4.9018,4.9018,4.9018,4.9018,4.9018,4.9018,4.9018,4.9018,4.9018,4.9018,4.9018,4.9018,4.9017,4.9094,4.9214,4.9411,4.959,4.9752,5.0031,4.9777,4.9277,4.9144,4.9021,4.8705,4.8284,4.7968,4.8268,4.7783,4.7464,4.7714,4.7896,4.8062,4.821,4.8287,4.8205,4.7966,4.7535,4.7021,4.6507,4.6039,4.5608,4.5443,4.4856,4.459,4.4443,4.3828,4.3561,4.3488,4.3488,4.3506,4.3579,4.3745,4.38,4.3836,4.3726,4.3543,4.3745,4.3818,4.402,4.4516,4.4571,4.48,4.5195,4.547,4.558,4.5452,4.5268,4.5342,4.5415,4.4956,4.5048,4.514,4.4956,4.4369,4.402,4.3726,4.3488,4.3488,4.3488,4.3506,4.3488,4.3488,4.3488,4.3488,4.3488,4.3488,4.3488,4.3488,4.3543,4.3524,4.3663,4.3681,4.3809,4.3956,4.4158,4.4342,4.4452,4.469,4.4819,4.4929,4.5002,4.5186,4.548,4.5645,4.5755,4.6333,4.6984,4.9018,4.9018,4.9018,4.9018,4.9018,4.9018,4.9018,4.9018,4.9018,4.9018,4.9018,4.9018,4.9018,4.9018,4.9018,4.9018,4.9018,4.9018,4.9018,4.9032,4.9078,4.9199,4.9383,4.9547,4.9679,4.9886,5.0071,5.0173,4.9945,5.0012,4.9982,4.9589,4.9389,4.9275,4.9149,4.8447,4.8341,4.8356,4.83,4.8197,4.8276,4.8315,4.8315,4.8296,4.792,4.7553,4.7113,4.6828,4.6305,4.6012,4.5461,4.5388,4.5333,4.5076,4.4883,4.4874,4.4874,4.4672,4.4323,4.4607,4.4699,4.4828,4.4828,4.492,4.4846,4.4809,4.4883,4.5333,4.5388,4.5608,4.5856,4.5883,4.5902,4.592,4.614,4.6085,4.6067,4.592,4.5736,4.5847,4.592,4.5424,4.4929,4.458,4.436,4.4176,4.3983,4.3745,4.3635,4.3488,4.3488,4.3488,4.3488,4.3488,4.3488,4.3488,4.3635,4.3736,4.4241,4.4278,4.4388,4.4535,4.481,4.5094,4.5314,4.5571,4.5838,4.5764,4.5645,4.592,4.6269,4.6434,4.6636,4.7168,4.7728,4.9018,4.9018,4.9018,4.9018,4.9018,4.9018,4.9018,4.9018,4.9018,4.9018,4.9018,4.9018,4.9018,4.9018,4.9018,4.9018,4.9018,4.9018,4.9018,4.9048,4.9155,4.929,4.9456,4.9619,4.9813,5.0068,5.0206,5.0321,5.0543,5.0692,5.0682,5.0413,5.0245,5.0247,4.991,4.9368,4.9039,4.8925,4.8435,4.8245,4.8277,4.8315,4.8315,4.8315,4.8241,4.8021,4.7507,4.7397,4.703,4.6746,4.6324,4.6214,4.6149,4.5865,4.5681,4.5736,4.5828,4.5893,4.559,4.5626,4.5865,4.5902,4.5902,4.5672,4.5736,4.5902,4.6085,4.6159,4.6186,4.6305,4.6471,4.6599,4.6709,4.6764,4.6709,4.6562,4.6507,4.6617,4.6764,4.6948,4.7003,4.6819,4.6305,4.5746,4.5342,4.4984,4.4562,4.4112,4.402,4.3983,4.4149,4.4314,4.435,4.4369,4.4314,4.4204,4.4093,4.4121,4.4626,4.4938,4.5085,4.5342,4.5645,4.5902,4.6159,4.6571,4.6938,4.659,4.6296,4.6819,4.726,4.7324,4.7581,4.8039,4.8233,4.9018,4.9018,4.9018,4.9018,4.9018,4.9018,4.9018,4.9018,4.9018,4.9018,4.9018,4.9018,4.9018,4.9018,4.9018,4.9018,4.9018,4.9018,4.9017,4.9063,4.9138,4.9335,4.9515,4.9693,4.9869,5.0146,5.0302,5.0509,5.078,5.1043,5.118,5.1209,5.0914,5.0778,5.0592,5.0229,4.9554,4.9242,4.866,4.8347,4.8314,4.8315,4.8315,4.8315,4.8315,4.826,4.8205,4.8113,4.8021,4.7783,4.7324,4.703,4.692,4.6562,4.6342,4.6416,4.6755,4.6856,4.6792,4.6416,4.6012,4.5957,4.6049,4.625,4.6342,4.6067,4.6287,4.692,4.7012,4.7305,4.7719,4.8104,4.7728,4.7636,4.7517,4.7535,4.7544,4.7691,4.7856,4.8058,4.7948,4.7617,4.748,4.6865,4.6278,4.5893,4.5424,4.4975,4.514,4.5176,4.5342,4.548,4.5553,4.559,4.5608,4.5443,4.5085,4.5112,4.5507,4.5709,4.5847,4.614,4.6617,4.6773,4.7067,4.7544,4.7838,4.7379,4.7269,4.7884,4.8159,4.7966,4.7911,4.8168,4.8288,4.9018,4.9018,4.9018,4.9018,4.9018,4.9018,4.9018,4.9018,4.9018,4.9018,4.9018,4.9018,4.9018,4.9018,4.9018,4.9018,4.9018,4.9018,4.9048,4.917,4.9307,4.9456,4.9651,4.9799,4.9988,5.0203,5.0359,5.0537,5.0807,5.1163,5.1397,5.1421,5.1397,5.1544,5.1424,5.104,5.0322,4.9495,4.9084,4.8864,4.8342,4.8315,4.8315,4.8315,4.8315,4.8315,4.8296,4.8296,4.8315,4.8223,4.7966,4.7838,4.7746,4.7379,4.726,4.7241,4.7617,4.7728,4.7773,4.7489,4.7379,4.7361,4.7379,4.7305,4.7205,4.7333,4.7452,4.7764,4.7801,4.7984,4.815,4.8278,4.8205,4.8278,4.8315,4.8315,4.8315,4.8315,4.8296,4.8241,4.8241,4.8131,4.8058,4.7957,4.7342,4.6773,4.6305,4.5957,4.6122,4.6177,4.6287,4.6324,4.6342,4.625,4.625,4.6104,4.5957,4.6177,4.6388,4.6516,4.6709,4.7287,4.7691,4.781,4.7755,4.7984,4.8058,4.7984,4.8039,4.8223,4.8296,4.8241,4.8278,4.8315,4.8343,4.9018,4.9018,4.9018,4.9018,4.9018,4.9018,4.9018,4.9018,4.9018,4.9018,4.9018,4.9018,4.9018,4.9018,4.9018,4.9018,4.9018,4.9017,4.9077,4.9214,4.9398,4.956,4.974,4.993,5.0117,5.0274,5.0467,5.0671,5.0999,5.1241,5.1505,5.1746,5.1963,5.2036,5.2023,5.1731,5.1011,5.0292,4.9573,4.9399,4.8746,4.8425,4.8315,4.8315,4.8315,4.8315,4.8315,4.8315,4.8315,4.8315,4.826,4.8278,4.8296,4.8315,4.8315,4.8315,4.8315,4.8315,4.8315,4.8296,4.8296,4.8095,4.8131,4.8186,4.8315,4.8315,4.8131,4.8186,4.826,4.8315,4.8315,4.8315,4.8315,4.8315,4.8315,4.8315,4.8315,4.8315,4.8315,4.8296,4.8315,4.8315,4.8278,4.8186,4.7966,4.7526,4.7361,4.7076,4.7058,4.7076,4.7003,4.7003,4.6985,4.6838,4.6673,4.6856,4.704,4.715,4.7324,4.7379,4.7654,4.8131,4.8296,4.8131,4.8131,4.8278,4.8241,4.8131,4.8186,4.8296,4.8315,4.8315,4.8315,4.8324,4.8382,4.9018,4.9018,4.9018,4.9018,4.9018,4.9018,4.9018,4.9018,4.9018,4.9018,4.9018,4.9018,4.9018,4.9018,4.9018,4.9018,4.9017,4.9017,4.9109,4.926,4.9441,4.9575,4.9781,5.0017,5.0217,5.0411,5.0616,5.0874,5.1241,5.1415,5.1663,5.1882,5.2084,5.2234,5.2244,5.1852,5.1645,5.1506,5.0311,4.9866,4.9288,4.8765,4.8563,4.8315,4.8315,4.8315,4.8315,4.8315,4.8315,4.8315,4.8315,4.8315,4.8315,4.8315,4.8315,4.8315,4.8315,4.8315,4.8315,4.8315,4.8315,4.8315,4.8315,4.8315,4.8315,4.8315,4.8315,4.8315,4.8315,4.8315,4.8315,4.8315,4.8315,4.8315,4.8315,4.8315,4.8315,4.8315,4.8315,4.8315,4.8315,4.8315,4.8315,4.8296,4.8296,4.8186,4.826,4.815,4.7939,4.7792,4.7617,4.7581,4.7553,4.7572,4.7535,4.7893,4.8113,4.8186,4.8095,4.7984,4.8003,4.8205,4.8296,4.8315,4.8315,4.8315,4.8315,4.8296,4.8315,4.8315,4.8315,4.8315,4.8315,4.8343,4.841,4.9018,4.9018,4.9018,4.9018,4.9018,4.9018,4.9018,4.9018,4.9018,4.9018,4.9018,4.9018,4.9018,4.9018,4.9018,4.9001,4.9017,4.9107,4.9214,4.9396,4.9545,4.9725,4.9933,5.0103,5.0271,5.0439,5.0671,5.0982,5.1298,5.1518,5.1783,5.2029,5.2257,5.2455,5.2499,5.2316,5.2266,5.1836,5.1255,5.0739,4.9739,4.9288,4.8875,4.8388,4.8351,4.8315,4.8315,4.8315,4.8315,4.8315,4.8315,4.8315,4.8315,4.8315,4.8315,4.8315,4.8315,4.8315,4.8315,4.8315,4.8315,4.8315,4.8315,4.8315,4.8315,4.8315,4.8315,4.8315,4.8315,4.8315,4.8315,4.8315,4.8333,4.8315,4.8315,4.8315,4.8315,4.8315,4.8315,4.8315,4.8315,4.8315,4.8315,4.8315,4.8315,4.8315,4.8315,4.8315,4.8131,4.815,4.8058,4.8095,4.8095,4.8186,4.8315,4.8315,4.8315,4.826,4.8241,4.8223,4.8278,4.8315,4.8315,4.8315,4.8315,4.8315,4.8315,4.8315,4.8315,4.8315,4.8315,4.8315,4.8315,4.8382,4.8476,4.9018,4.9018,4.9018,4.9018,4.9018,4.9018,4.9018,4.9018,4.9018,4.9018,4.9018,4.9018,4.9018,4.9018,4.9018,4.9018,4.9017,4.9138,4.9305,4.9503,4.9634,4.9842,5.0048,5.022,5.0397,5.0564,5.082,5.1145,5.1462,5.167,5.1907,5.2168,5.2449,5.2586,5.2658,5.2696,5.2707,5.232,5.1974,5.1455,5.0602,4.9941,4.9307,4.8857,4.8563,4.8315,4.8315,4.8315,4.8315,4.8315,4.8315,4.8315,4.8315,4.8315,4.8315,4.8315,4.8315,4.8315,4.8315,4.8315,4.8315,4.8315,4.8315,4.8315,4.8315,4.8315,4.8315,4.8315,4.837,4.8388,4.8425,4.8443,4.8746,4.8765,4.8994,4.903,4.8802,4.8838,4.8655,4.8618,4.848,4.8425,4.837,4.8315,4.8315,4.8315,4.8315,4.8315,4.8315,4.8315,4.8315,4.8315,4.8315,4.8315,4.8315,4.8315,4.8315,4.8315,4.8315,4.8315,4.8315,4.8315,4.8315,4.8315,4.8315,4.8315,4.8315,4.8315,4.8315,4.8315,4.8315,4.8315,4.8315,4.8465,4.8652,4.9018,4.9018,4.9018,4.9018,4.9018,4.9018,4.9018,4.9018,4.9018,4.9018,4.9018,4.9018,4.9018,4.9018,4.9018,4.9018,4.9063,4.917,4.9337,4.9518,4.9696,4.993,5.0146,5.0316,5.0495,5.0793,5.1092,5.1315,5.1665,5.1882,5.2078,5.2298,5.2529,5.2676,5.2817,5.2926,5.2987,5.2787,5.2488,5.2042,5.14,5.0555,4.9913,4.938,4.8912,4.8508,4.8398,4.8315,4.8315,4.8315,4.8315,4.8315,4.8315,4.8315,4.8315,4.8315,4.8315,4.8333,4.8526,4.8563,4.8691,4.882,4.8691,4.848,4.8517,4.8718,4.8939,4.8902,4.893,4.8737,4.8627,4.9132,4.9619,4.9876,5.0215,5.005,4.9711,4.9509,4.9252,4.9058,4.8847,4.8755,4.8673,4.8581,4.8655,4.8315,4.8315,4.8315,4.8315,4.8315,4.8315,4.8315,4.8315,4.8315,4.8315,4.8315,4.8315,4.8315,4.8315,4.8315,4.8315,4.8315,4.8315,4.8315,4.8315,4.8315,4.8315,4.8315,4.8315,4.8315,4.8315,4.8315,4.8315,4.8742,4.9011,4.9018,4.9018,4.9018,4.9018,4.9018,4.9018,4.9018,4.9018,4.9018,4.9018,4.9018,4.9018,4.9018,4.9018,4.9018,4.9018,4.9109,4.9262,4.9396,4.9577,4.9786,5.002,5.0189,5.0355,5.0578,5.0851,5.1145,5.1449,5.1728,5.198,5.2287,5.2524,5.2649,5.2794,5.2934,5.3071,5.3153,5.313,5.2865,5.2546,5.2171,5.1418,5.0665,4.9913,4.938,4.8921,4.8545,4.8333,4.8315,4.8315,4.8315,4.8315,4.8315,4.8315,4.8315,4.8315,4.837,4.8526,4.9068,4.9233,4.9399,4.9793,4.9976,4.9674,4.9591,4.9627,4.9921,4.9756,4.9701,4.9646,4.9691,5.0068,5.0408,5.0647,5.093,5.0894,5.0563,5.039,5.0115,4.9866,4.9636,4.9462,4.9315,4.9252,4.9242,4.8655,4.837,4.8462,4.8351,4.837,4.8315,4.8315,4.8315,4.8315,4.8315,4.8315,4.8315,4.8315,4.8315,4.8315,4.8315,4.8315,4.8315,4.8315,4.8315,4.8315,4.8315,4.8315,4.8315,4.8343,4.8361,4.8333,4.8417,4.8955,4.9547,4.8308,4.8545,4.8546,4.8731,4.8984,4.9018,4.9018,4.9018,4.9018,4.9018,4.9018,4.9018,4.9018,4.9018,4.9018,4.9001,4.9017,4.9322,4.9503,4.9577,4.9872,5.0135,5.0288,5.0425,5.0684,5.0959,5.1211,5.15,5.1827,5.2174,5.2462,5.2586,5.2739,5.2872,5.2999,5.3103,5.3175,5.3185,5.3104,5.2865,5.2564,5.2171,5.1308,5.0647,5.0096,4.9325,4.882,4.86,4.8333,4.8315,4.8315,4.8315,4.8315,4.8315,4.8636,4.871,4.8903,4.9344,4.9884,5.005,5.0362,5.0747,5.1114,5.1004,5.071,5.0637,5.0655,5.0582,5.0674,5.0765,5.0894,5.1041,5.1169,5.1298,5.1463,5.1618,5.1481,5.1316,5.1059,5.0802,5.06,5.0417,5.027,5.0151,5.0023,4.9738,4.9462,4.9334,4.8967,4.8526,4.8406,4.8315,4.8315,4.8315,4.8315,4.8315,4.8315,4.8315,4.8315,4.8315,4.8315,4.8315,4.8315,4.8315,4.8315,4.8351,4.8416,4.8351,4.8343,4.8508,4.8913,4.9152,4.9321,4.9527,5.0166,4.7208,4.7819,4.7887,4.8293,4.8866,4.8968,4.9018,4.9018,4.9018,4.9018,4.9018,4.9018,4.9018,4.9018,4.9018,4.9032,4.9124,4.9367,4.9515,4.953,4.9942,5.0231,5.0401,5.0561,5.0838,5.1149,5.1397,5.164,5.2048,5.2345,5.2524,5.2631,5.2772,5.2923,5.306,5.3153,5.3196,5.3196,5.3196,5.3086,5.2957,5.2527,5.2024,5.1675,5.0757,4.9776,4.9417,4.894,4.8379,4.8351,4.8315,4.8315,4.8498,4.8563,4.8976,4.9399,4.9656,5.0151,5.0637,5.0875,5.1022,5.1334,5.1665,5.1903,5.183,5.1628,5.1591,5.1555,5.1646,5.1646,5.1738,5.1903,5.205,5.216,5.2278,5.2315,5.2186,5.2087,5.1958,5.1738,5.161,5.1408,5.1022,5.0886,5.0665,5.0655,5.0453,5.016,4.9848,4.915,4.8728,4.8517,4.8351,4.8351,4.8315,4.8315,4.8315,4.8315,4.8315,4.8315,4.8315,4.8315,4.8315,4.8315,4.8315,4.8471,4.8526,4.8618,4.893,4.9454,4.9832,5.0175,5.0345,5.0479,5.0832,4.6887,4.7124,4.7667,4.8022,4.8242,4.8781,4.9001,4.9018,4.9018,4.9018,4.9018,4.9018,4.9018,4.9018,4.9018,4.9048,4.9184,4.9366,4.953,4.9723,5.0043,5.0271,5.0457,5.0675,5.0959,5.1237,5.1526,5.1802,5.2168,5.245,5.2638,5.2761,5.289,5.2999,5.3132,5.3196,5.3196,5.3196,5.3196,5.3196,5.3122,5.3012,5.2682,5.2179,5.1326,5.062,5.0133,4.95,4.8885,4.8489,4.8351,4.8655,4.9233,4.927,4.9711,5.0325,5.0537,5.0967,5.1444,5.1756,5.1903,5.2333,5.2719,5.281,5.281,5.2682,5.2572,5.2535,5.2517,5.248,5.2517,5.27,5.2839,5.2939,5.3012,5.2939,5.2847,5.2792,5.2747,5.2645,5.2553,5.2252,5.1848,5.1591,5.1334,5.1096,5.0839,5.0655,5.0655,5.0196,4.9416,4.9104,4.8517,4.8406,4.8425,4.8453,4.8508,4.837,4.8315,4.8315,4.8351,4.8663,4.8884,4.8462,4.8333,4.8783,4.9169,4.9288,4.9674,5.0291,5.0672,5.0979,5.151,5.1756,5.1962,4.6022,4.6397,4.7107,4.7413,4.7564,4.8191,4.8512,4.8563,4.8866,4.9018,4.9018,4.9018,4.9018,4.9018,4.9018,4.9094,4.9246,4.9396,4.9545,4.9767,5.0071,5.0285,5.0509,5.0757,5.103,5.132,5.1703,5.2054,5.2305,5.249,5.2665,5.2806,5.2926,5.3053,5.3175,5.3196,5.3196,5.3196,5.3196,5.3196,5.3196,5.3122,5.3049,5.2564,5.2042,5.14,5.0996,5.039,4.9884,4.9554,4.9536,4.9646,5.005,5.0123,5.0555,5.1077,5.1426,5.1665,5.2252,5.2564,5.2692,5.3049,5.3196,5.3086,5.3086,5.2939,5.2939,5.292,5.292,5.2902,5.2902,5.3031,5.3049,5.3104,5.3122,5.3086,5.3049,5.3031,5.2994,5.2976,5.2902,5.2847,5.2564,5.2527,5.2325,5.2297,5.193,5.1499,5.1426,5.1298,5.0517,4.9966,4.9562,4.9095,4.904,4.8958,4.882,4.8636,4.8517,4.8673,4.893,4.9315,4.9452,4.9287,4.9324,4.9673,4.9994,5.0106,5.0578,5.1215,5.1504,5.1748,5.2327,5.2851,5.2947,4.5007,4.5635,4.6346,4.665,4.6769,4.7447,4.7768,4.7887,4.8512,4.8849,4.8849,4.8934,4.9001,4.9018,4.9017,4.9124,4.9262,4.9411,4.956,4.9842,5.0186,5.0327,5.0568,5.0873,5.1189,5.1526,5.1895,5.2126,5.2358,5.2536,5.271,5.2817,5.2926,5.3074,5.3164,5.3196,5.3196,5.3196,5.3196,5.3196,5.3196,5.3196,5.3141,5.2894,5.2564,5.2134,5.1803,5.1444,5.0986,5.0692,5.0545,5.071,5.0857,5.0967,5.1463,5.1903,5.216,5.2509,5.292,5.3049,5.3104,5.3196,5.3196,5.3196,5.3196,5.3196,5.3196,5.3196,5.3196,5.3196,5.3196,5.3196,5.3196,5.3196,5.3196,5.3196,5.3196,5.3196,5.3196,5.3196,5.3177,5.3177,5.3159,5.3159,5.3177,5.3196,5.3049,5.27,5.238,5.2197,5.1728,5.1416,5.1177,5.0674,4.9968,4.9674,4.9527,4.9407,4.9389,4.9399,4.9527,4.9903,5.0233,5.0472,5.0582,5.06,5.0785,5.0952,5.1499,5.2066,5.2387,5.2631,5.2932,5.34,5.3645,4.4668,4.4871,4.5602,4.5892,4.6024,4.6701,4.7005,4.7141,4.7784,4.8107,4.8259,4.8765,4.9018,4.9001,4.9018,4.914,4.9398,4.9488,4.9698,4.9979,5.0246,5.0341,5.0551,5.0981,5.1487,5.1815,5.2054,5.2228,5.2434,5.2638,5.2754,5.2817,5.306,5.3164,5.3175,5.3196,5.3196,5.3196,5.3196,5.3196,5.3196,5.3196,5.3196,5.3104,5.3049,5.2546,5.2142,5.1895,5.1389,5.1022,5.0967,5.1316,5.1573,5.1793,5.2179,5.2527,5.2774,5.2902,5.3159,5.3196,5.3196,5.3196,5.3196,5.3196,5.3196,5.3196,5.3196,5.3196,5.3196,5.3196,5.3196,5.3196,5.3196,5.3196,5.3196,5.3196,5.3196,5.3196,5.3196,5.3196,5.3196,5.3196,5.3196,5.3196,5.3196,5.3196,5.3196,5.2902,5.2865,5.2847,5.2792,5.2627,5.2443,5.1764,5.0875,5.0618,5.0453,5.0343,5.027,5.0353,5.0445,5.0527,5.0839,5.1279,5.1242,5.1151,5.1391,5.181,5.223,5.2734,5.3207,5.3536,5.3734,5.3811,5.3935]}]]